[[{"header":{"parameterUnit":"m.s-1","parameterCategory":1,"la1":30.6,"la2":28.766,"lo1":-90.7593,"lo2":-88.6598,"dy":0.0162,"dx":0.0183,"nx":116,"ny":114,"refTime":"2023-03-22T18:00:00:Z","depth":0,"parameterNumber":2,"parameterNumberName":"U-component_of_WINDS"},"data":[0.0,0.0,0.0,0.0,0.0,0.0,0.0,0.0,0.0,0.0,0.0,0.0,0.0,0.0,0.0,0.0,0.0,0.0,0.0,0.0,0.0,0.0,0.0,0.0,0.0,0.0,0.0,0.0,0.0,0.0,0.0,0.0,0.0,0.0,0.0,0.0,0.0,0.0,0.0,0.0,0.0,0.0,0.0,0.0,0.0,0.0,0.0,0.0,0.0,0.0,0.0,0.0,0.0,0.0,0.0,0.0,0.0,0.0,0.0,0.0,0.0,0.0,0.0,0.0,0.0,0.0,0.0,0.0,0.0,0.0,0.0,0.0,0.0,0.0,0.0,0.0,0.0,0.0,0.0,0.0,0.0,0.0,0.0,0.0,0.0,0.0,0.0,0.0,0.0,0.0,0.0,0.0,0.0,0.0,0.0,0.0,0.0,0.0,0.0,0.0,0.0,0.0,0.0,0.0,0.0,0.0,0.0,0.0,0.0,0.0,0.0,0.0,0.0,0.0,0.0,0.0,0.0,0.0,0.0,0.0,0.0,0.0,0.0,0.0,0.0,0.0,0.0,0.0,0.0,0.0,0.0,0.0,0.0,0.0,0.0,0.0,0.0,0.0,0.0,0.0,0.0,0.0,0.0,0.0,0.0,0.0,0.0,0.0,0.0,0.0,0.0,0.0,0.0,0.0,0.0,0.0,0.0,0.0,0.0,0.0,0.0,0.0,0.0,0.0,0.0,0.0,0.0,0.0,0.0,0.0,0.0,0.0,0.0,0.0,0.0,0.0,0.0,0.0,0.0,0.0,0.0,0.0,0.0,0.0,0.0,0.0,0.0,0.0,0.0,0.0,0.0,0.0,0.0,0.0,0.0,0.0,0.0,0.0,0.0,0.0,0.0,0.0,0.0,0.0,0.0,0.0,0.0,0.0,0.0,0.0,0.0,0.0,0.0,0.0,0.0,0.0,0.0,0.0,0.0,0.0,0.0,0.0,0.0,0.0,0.0,0.0,0.0,0.0,0.0,0.0,0.0,0.0,0.0,0.0,0.0,0.0,0.0,0.0,0.0,0.0,0.0,0.0,0.0,0.0,0.0,0.0,0.0,0.0,0.0,0.0,0.0,0.0,0.0,0.0,0.0,0.0,0.0,0.0,0.0,0.0,0.0,0.0,0.0,0.0,0.0,0.0,0.0,0.0,0.0,0.0,0.0,0.0,0.0,0.0,0.0,0.0,0.0,0.0,0.0,0.0,0.0,0.0,0.0,0.0,0.0,0.0,0.0,0.0,0.0,0.0,0.0,0.0,0.0,0.0,0.0,0.0,0.0,0.0,0.0,0.0,0.0,0.0,0.0,0.0,0.0,0.0,0.0,0.0,0.0,0.0,0.0,0.0,0.0,0.0,0.0,0.0,0.0,0.0,0.0,0.0,0.0,0.0,0.0,0.0,0.0,0.0,0.0,0.0,0.0,0.0,0.0,0.0,0.0,0.0,0.0,0.0,0.0,0.0,0.0,0.0,0.0,0.0,0.0,0.0,0.0,0.0,0.0,0.0,0.0,0.0,0.0,0.0,0.0,0.0,0.0,0.0,0.0,0.0,0.0,0.0,0.0,0.0,0.0,0.0,0.0,0.0,0.0,0.0,0.0,0.0,0.0,0.0,0.0,0.0,0.0,0.0,0.0,0.0,0.0,0.0,0.0,0.0,0.0,0.0,0.0,0.0,0.0,0.0,0.0,0.0,0.0,0.0,0.0,0.0,0.0,0.0,0.0,0.0,0.0,0.0,0.0,0.0,0.0,0.0,0.0,0.0,0.0,0.0,0.0,0.0,0.0,0.0,0.0,0.0,0.0,0.0,0.0,0.0,0.0,0.0,0.0,0.0,0.0,0.0,0.0,0.0,0.0,0.0,0.0,0.0,0.0,0.0,0.0,0.0,0.0,0.0,0.0,0.0,0.0,0.0,0.0,0.0,0.0,0.0,0.0,0.0,0.0,0.0,0.0,0.0,0.0,0.0,0.0,0.0,0.0,0.0,0.0,0.0,0.0,0.0,0.0,0.0,0.0,0.0,0.0,0.0,0.0,0.0,0.0,0.0,0.0,0.0,0.0,0.0,0.0,0.0,0.0,0.0,0.0,0.0,0.0,0.0,0.0,0.0,0.0,0.0,0.0,0.0,0.0,0.0,0.0,0.0,0.0,0.0,0.0,0.0,0.0,0.0,0.0,0.0,0.0,0.0,0.0,0.0,0.0,0.0,0.0,0.0,0.0,0.0,0.0,0.0,0.0,0.0,0.0,0.0,0.0,0.0,0.0,0.0,0.0,0.0,0.0,0.0,0.0,0.0,0.0,0.0,0.0,0.0,0.0,0.0,0.0,0.0,0.0,0.0,0.0,0.0,0.0,0.0,0.0,0.0,0.0,0.0,0.0,0.0,0.0,0.0,0.0,0.0,0.0,0.0,0.0,0.0,0.0,0.0,0.0,0.0,0.0,0.0,0.0,0.0,0.0,0.0,0.0,0.0,0.0,0.0,0.0,0.0,0.0,0.0,0.0,0.0,0.0,0.0,0.0,0.0,0.0,0.0,0.0,0.0,0.0,0.0,0.0,0.0,0.0,0.0,0.0,0.0,0.0,0.0,0.0,0.0,0.0,0.0,0.0,0.0,0.0,0.0,0.0,0.0,0.0,0.0,0.0,0.0,0.0,0.0,0.0,0.0,0.0,0.0,0.0,0.0,0.0,0.0,0.0,0.0,0.0,0.0,0.0,0.0,0.0,0.0,0.0,0.0,0.0,0.0,0.0,0.0,0.0,0.0,0.0,0.0,0.0,0.0,0.0,0.0,0.0,0.0,0.0,0.0,0.0,0.0,0.0,0.0,0.0,0.0,0.0,0.0,0.0,0.0,0.0,0.0,0.0,0.0,0.0,0.0,0.0,0.0,0.0,0.0,0.0,0.0,0.0,0.0,0.0,0.0,0.0,0.0,0.0,0.0,0.0,0.0,0.0,0.0,0.0,0.0,0.0,0.0,0.0,0.0,0.0,0.0,0.0,0.0,0.0,0.0,0.0,0.0,0.0,0.0,0.0,0.0,0.0,0.0,0.0,0.0,0.0,0.0,0.0,0.0,0.0,0.0,0.0,0.0,0.0,0.0,0.0,0.0,0.0,0.0,0.0,0.0,0.0,0.0,0.0,0.0,0.0,0.0,0.0,0.0,0.0,0.0,0.0,0.0,0.0,0.0,0.0,0.0,0.0,0.0,0.0,0.0,0.0,0.0,0.0,0.0,0.0,0.0,0.0,0.0,0.0,0.0,0.0,0.0,0.0,0.0,0.0,0.0,0.0,0.0,0.0,0.0,0.0,0.0,0.0,0.0,0.0,0.0,0.0,0.0,0.0,0.0,0.0,0.0,0.0,0.0,0.0,0.0,0.0,0.0,0.0,0.0,0.0,0.0,0.0,0.0,0.0,0.0,0.0,0.0,0.0,0.0,0.0,0.0,0.0,0.0,0.0,0.0,0.0,0.0,0.0,0.0,0.0,0.0,0.0,0.0,0.0,0.0,0.0,0.0,0.0,0.0,0.0,0.0,0.0,0.0,0.0,0.0,0.0,0.0,0.0,0.0,0.0,0.0,0.0,0.0,0.0,0.0,0.0,0.0,0.0,0.0,0.0,0.0,0.0,0.0,0.0,0.0,0.0,0.0,0.0,0.0,0.0,0.0,0.0,0.0,0.0,0.0,0.0,0.0,0.0,0.0,0.0,0.0,0.0,0.0,0.0,0.0,0.0,0.0,0.0,0.0,0.0,0.0,0.0,0.0,0.0,0.0,0.0,0.0,0.0,0.0,0.0,0.0,0.0,0.0,0.0,0.0,0.0,0.0,0.0,0.0,0.0,0.0,0.0,0.0,0.0,0.0,0.0,0.0,0.0,0.0,0.0,0.0,0.0,0.0,0.0,0.0,0.0,0.0,0.0,0.0,0.0,0.0,0.0,0.0,0.0,0.0,0.0,0.0,0.0,0.0,0.0,0.0,0.0,0.0,0.0,0.0,0.0,0.0,0.0,0.0,0.0,0.0,0.0,0.0,0.0,0.0,0.0,0.0,0.0,0.0,0.0,0.0,0.0,0.0,0.0,0.0,0.0,0.0,0.0,0.0,0.0,0.0,0.0,0.0,0.0,0.0,0.0,0.0,0.0,0.0,0.0,0.0,0.0,0.0,0.0,0.0,0.0,0.0,0.0,0.0,0.0,0.0,0.0,0.0,0.0,0.0,0.0,0.0,0.0,0.0,0.0,0.0,0.0,0.0,0.0,0.0,0.0,0.0,0.0,0.0,0.0,0.0,0.0,0.0,0.0,0.0,0.0,0.0,0.0,0.0,0.0,0.0,0.0,0.0,0.0,0.0,0.0,0.0,0.0,0.0,0.0,0.0,0.0,0.0,0.0,0.0,0.0,0.0,0.0,0.0,0.0,0.0,0.0,0.0,0.0,0.0,0.0,0.0,0.0,0.0,0.0,0.0,0.0,0.0,0.0,0.0,0.0,0.0,0.0,0.0,0.0,0.0,0.0,0.0,0.0,0.0,0.0,0.0,0.0,0.0,0.0,0.0,0.0,0.0,0.0,0.0,0.0,0.0,0.0,0.0,0.0,0.0,0.0,0.0,0.0,0.0,0.0,0.0,0.0,0.0,0.0,0.0,0.0,0.0,0.0,0.0,0.0,0.0,0.0,0.0,0.0,0.0,0.0,0.0,0.0,0.0,0.0,0.0,0.0,0.0,0.0,0.0,0.0,0.0,0.0,0.0,0.0,0.0,0.0,0.0,0.0,0.0,0.0,0.0,0.0,0.0,0.0,0.0,0.0,0.0,0.0,0.0,0.0,0.0,0.0,0.0,0.0,0.0,0.0,0.0,0.0,0.0,0.0,0.0,0.0,0.0,0.0,0.0,0.0,0.0,0.0,0.0,0.0,0.0,0.0,0.0,0.0,0.0,0.0,0.0,0.0,0.0,0.0,0.0,0.0,0.0,0.0,0.0,0.0,0.0,0.0,0.0,0.0,0.0,0.0,0.0,0.0,0.0,0.0,0.0,0.0,0.0,0.0,0.0,0.0,0.0,0.0,0.0,0.0,0.0,0.0,0.0,0.0,0.0,0.0,0.0,0.0,0.0,0.0,0.0,0.0,0.0,0.0,0.0,0.0,0.0,0.0,0.0,0.0,0.0,0.0,0.0,0.0,0.0,0.0,0.0,0.0,0.0,0.0,0.0,0.0,0.0,0.0,0.0,0.0,0.0,0.0,0.0,0.0,0.0,0.0,0.0,0.0,0.0,0.0,0.0,0.0,0.0,0.0,0.0,0.0,0.0,0.0,0.0,0.0,0.0,0.0,0.0,0.0,0.0,0.0,0.0,0.0,0.0,0.0,0.0,0.0,0.0,0.0,0.0,0.0,0.0,0.0,0.0,0.0,0.0,0.0,0.0,0.0,0.0,0.0,0.0,0.0,0.0,0.0,0.0,0.0,0.0,0.0,0.0,0.0,0.0,0.0,0.0,0.0,0.0,0.0,0.0,0.0,0.0,0.0,0.0,0.0,0.0,0.0,0.0,0.0,0.0,0.0,0.0,0.0,0.0,0.0,0.0,0.0,0.0,0.0,0.0,0.0,0.0,0.0,0.0,0.0,0.0,0.0,0.0,0.0,0.0,0.0,0.0,0.0,0.0,0.0,0.0,0.0,0.0,0.0,0.0,0.0,0.0,0.0,0.0,0.0,0.0,0.0,0.0,0.0,0.0,0.0,0.0,0.0,0.0,0.0,0.0,0.0,0.0,0.0,0.0,0.0,0.0,0.0,0.0,0.0,0.0,0.0,0.0,0.0,0.0,0.0,0.0,0.0,0.0,0.0,0.0,0.0,0.0,0.0,0.0,0.0,0.0,0.0,0.0,0.0,0.0,0.0,0.0,0.0,0.0,0.0,0.0,0.0,0.0,0.0,0.0,0.0,0.0,0.0,0.0,0.0,0.0,0.0,0.0,0.0,0.0,0.0,0.0,0.0,0.0,0.0,0.0,0.0,0.0,0.0,0.0,0.0,0.0,0.0,0.0,0.0,0.0,0.0,0.0,0.0,0.0,0.0,0.0,6.1718,6.1534,0.0,0.0,0.0,0.0,0.0,0.0,0.0,0.0,0.0,0.0,0.0,0.0,0.0,0.0,0.0,0.0,0.0,0.0,0.0,0.0,0.0,0.0,0.0,0.0,0.0,0.0,0.0,0.0,0.0,0.0,0.0,0.0,0.0,0.0,0.0,0.0,0.0,0.0,0.0,0.0,0.0,0.0,0.0,0.0,0.0,0.0,0.0,0.0,0.0,0.0,0.0,0.0,0.0,0.0,0.0,0.0,0.0,0.0,0.0,0.0,0.0,0.0,0.0,0.0,0.0,0.0,0.0,0.0,0.0,0.0,0.0,0.0,0.0,0.0,0.0,0.0,0.0,0.0,0.0,0.0,0.0,0.0,0.0,0.0,0.0,0.0,0.0,0.0,0.0,0.0,0.0,0.0,0.0,0.0,0.0,0.0,0.0,0.0,0.0,0.0,0.0,0.0,0.0,0.0,0.0,0.0,0.0,0.0,0.0,0.0,0.0,0.0,0.0,0.0,6.1458,6.135,0.0,0.0,0.0,0.0,0.0,0.0,0.0,0.0,0.0,0.0,0.0,0.0,0.0,0.0,0.0,0.0,0.0,0.0,0.0,0.0,0.0,0.0,0.0,0.0,0.0,0.0,0.0,0.0,0.0,0.0,0.0,0.0,0.0,0.0,0.0,0.0,0.0,0.0,0.0,0.0,0.0,0.0,0.0,0.0,0.0,0.0,0.0,0.0,0.0,0.0,0.0,0.0,0.0,0.0,0.0,0.0,0.0,0.0,0.0,0.0,0.0,0.0,0.0,0.0,0.0,0.0,0.0,0.0,0.0,0.0,0.0,0.0,0.0,0.0,0.0,0.0,0.0,0.0,0.0,0.0,0.0,0.0,0.0,0.0,0.0,0.0,0.0,0.0,0.0,0.0,0.0,0.0,0.0,0.0,0.0,0.0,0.0,0.0,0.0,0.0,0.0,0.0,0.0,0.0,0.0,0.0,0.0,0.0,6.1228,6.1228,6.1228,6.1228,6.1112,6.0973,6.1151,6.1151,6.1026,6.1295,0.0,0.0,0.0,0.0,0.0,0.0,0.0,0.0,0.0,0.0,0.0,0.0,0.0,0.0,0.0,0.0,0.0,0.0,0.0,0.0,0.0,0.0,0.0,5.6601,5.6601,0.0,0.0,0.0,0.0,0.0,0.0,0.0,0.0,0.0,0.0,0.0,0.0,0.0,5.7578,5.8672,5.957,6.0273,6.1133,0.0,0.0,0.0,0.0,0.0,0.0,0.0,0.0,0.0,0.0,0.0,0.0,0.0,0.0,0.0,0.0,0.0,0.0,0.0,0.0,0.0,0.0,0.0,0.0,0.0,0.0,0.0,0.0,0.0,0.0,0.0,0.0,0.0,0.0,0.0,0.0,0.0,0.0,0.0,0.0,0.0,0.0,0.0,6.1328,6.128,0.0,0.0,0.0,0.0,0.0,0.0,0.0,0.0,0.0,0.0,0.0,0.0,0.0,6.0858,6.0858,6.0858,6.0858,6.0858,6.0858,6.0858,6.0858,6.0858,6.0858,6.0819,6.0858,0.0,6.0997,6.1036,0.0,0.0,0.0,0.0,0.0,0.0,0.0,0.0,0.0,0.0,0.0,0.0,0.0,0.0,0.0,0.0,0.0,0.0,0.0,0.0,0.0,0.0,0.0,5.6601,5.6601,0.0,0.0,0.0,0.0,0.0,0.0,0.0,0.0,0.0,0.0,0.0,5.7009,5.7424,5.7851,5.9219,6.0078,6.043,6.1328,6.1719,6.1719,6.1719,0.0,0.0,0.0,0.0,0.0,0.0,0.0,0.0,0.0,0.0,0.0,0.0,0.0,0.0,0.0,0.0,0.0,0.0,0.0,0.0,0.0,0.0,0.0,0.0,0.0,0.0,0.0,0.0,0.0,0.0,0.0,0.0,0.0,0.0,0.0,0.0,0.0,0.0,0.0,6.1189,6.1112,6.1012,6.0935,6.0896,0.0,0.0,0.0,0.0,0.0,0.0,0.0,0.0,0.0,6.0781,6.0781,6.0781,6.0781,6.0781,6.0781,6.0781,6.0781,6.0781,6.0781,6.0781,6.0781,6.0781,6.0781,6.0819,6.0896,6.0973,6.108,6.1253,0.0,0.0,0.0,0.0,6.137,6.1366,0.0,0.0,0.0,0.0,0.0,0.0,0.0,0.0,0.0,0.0,0.0,0.0,0.0,0.0,0.0,5.6601,5.6601,5.6601,5.6601,0.0,0.0,0.0,0.0,0.0,0.0,0.0,0.0,0.0,5.7408,5.7935,5.8423,5.9686,6.043,6.0664,6.1328,6.168,6.1719,6.1719,6.1719,0.0,0.0,0.0,0.0,0.0,0.0,0.0,0.0,0.0,0.0,0.0,0.0,0.0,0.0,0.0,0.0,0.0,0.0,0.0,0.0,0.0,0.0,0.0,0.0,0.0,0.0,0.0,0.0,0.0,0.0,0.0,0.0,0.0,0.0,0.0,0.0,0.0,0.0,6.0973,6.0896,6.0819,6.0671,6.0622,0.0,0.0,0.0,0.0,0.0,0.0,6.0456,6.0456,6.0482,6.0622,6.0622,6.0671,6.0781,6.0781,6.0781,6.0781,6.0781,6.0781,6.0781,6.0781,6.0781,6.0781,6.0781,6.0781,6.0819,6.0896,6.0973,6.102,6.1148,6.1274,6.1313,6.1235,6.1214,6.1228,0.0,0.0,0.0,0.0,0.0,0.0,0.0,0.0,0.0,0.0,0.0,0.0,0.0,0.0,5.6601,5.6601,5.6601,5.6601,5.6601,0.0,0.0,0.0,0.0,0.0,0.0,0.0,0.0,5.7165,5.7211,5.8078,5.9708,5.9904,6.0469,6.125,6.1445,6.1562,6.1719,6.1719,6.1719,6.1719,0.0,0.0,0.0,0.0,0.0,0.0,0.0,0.0,0.0,0.0,0.0,0.0,0.0,0.0,0.0,0.0,0.0,0.0,0.0,0.0,0.0,0.0,0.0,0.0,0.0,0.0,0.0,0.0,0.0,0.0,0.0,0.0,0.0,0.0,0.0,0.0,0.0,0.0,0.0,6.0781,6.043,0.0,0.0,0.0,0.0,5.9458,5.9458,5.9458,5.9458,5.9458,5.9658,6.0132,6.0132,6.0338,6.0781,6.0781,6.0781,6.0781,6.0781,6.0781,6.0781,6.0781,6.0781,6.0781,6.0781,6.0781,6.0781,6.0819,6.0896,6.0997,6.102,6.1158,6.1273,6.1097,6.102,6.0973,0.0,0.0,0.0,0.0,0.0,0.0,0.0,0.0,0.0,0.0,0.0,0.0,0.0,5.6601,5.6601,5.6601,5.6601,5.6601,5.6601,0.0,0.0,0.0,0.0,0.0,0.0,0.0,5.7082,5.7324,5.8449,5.9302,5.9939,6.0561,6.1011,6.1298,6.1337,6.1451,6.1562,6.164,6.1719,6.1719,6.1719,6.1719,0.0,0.0,0.0,0.0,0.0,0.0,0.0,0.0,0.0,0.0,0.0,0.0,0.0,0.0,0.0,0.0,0.0,0.0,0.0,0.0,0.0,0.0,0.0,0.0,0.0,0.0,0.0,0.0,0.0,0.0,0.0,0.0,0.0,0.0,0.0,0.0,0.0,6.0338,5.9916,0.0,5.9625,5.9492,5.9389,5.9389,5.9389,5.9389,5.9389,5.9389,5.9458,5.9625,5.9946,6.0161,6.0338,6.0647,6.0781,6.0781,6.0781,6.0781,6.0781,6.0781,6.0781,6.0781,6.0781,6.0781,6.0781,6.0781,6.0819,6.0858,6.0858,6.0896,6.0973,6.0896,6.0858,6.0858,0.0,0.0,0.0,0.0,0.0,0.0,0.0,0.0,0.0,0.0,0.0,5.6601,5.6601,5.6601,5.6601,5.6601,5.6601,5.6601,5.6601,0.0,0.0,0.0,0.0,0.0,0.0,5.7383,5.7896,5.8094,5.9265,5.9973,6.0258,6.0858,6.1151,6.1151,6.1189,6.1307,6.1424,6.1592,6.164,6.1719,6.1719,6.1719,6.164,0.0,0.0,0.0,0.0,0.0,0.0,0.0,0.0,0.0,0.0,0.0,0.0,0.0,0.0,0.0,0.0,0.0,0.0,0.0,0.0,0.0,0.0,0.0,0.0,0.0,0.0,0.0,0.0,0.0,0.0,0.0,0.0,0.0,0.0,6.0161,5.9855,5.9855,5.9458,5.9139,5.9139,5.9028,5.8951,5.8951,5.8951,5.8951,5.8951,5.8951,5.9028,5.9139,5.9592,5.9946,6.0103,6.0572,6.0781,6.0781,6.0781,6.0781,6.0781,6.0781,6.0781,6.0781,6.0781,6.0781,6.0781,6.0781,6.0781,6.0781,6.0781,6.0781,6.0781,6.0781,6.0781,6.0781,0.0,0.0,0.0,0.0,0.0,0.0,0.0,0.0,0.0,0.0,5.6601,5.6601,5.6601,5.6601,5.6601,5.6601,5.6601,5.6601,5.6601,5.6601,0.0,0.0,0.0,0.0,5.7242,5.8088,5.8858,5.9496,5.9534,5.9958,6.0781,6.0781,6.0781,6.0819,6.0935,6.1112,6.1296,6.1446,6.1562,6.168,6.1719,6.1719,6.1719,0.0,0.0,0.0,0.0,0.0,0.0,0.0,0.0,0.0,0.0,0.0,0.0,0.0,0.0,0.0,0.0,0.0,0.0,0.0,0.0,0.0,0.0,0.0,0.0,0.0,0.0,0.0,0.0,0.0,0.0,0.0,0.0,0.0,6.0074,5.9658,5.9389,5.9389,5.899,5.8673,5.8673,5.8282,5.7997,5.7997,5.7997,5.7997,5.7997,5.7997,5.8194,5.8673,5.9102,5.9592,6.0074,6.0533,6.0781,6.0781,6.0781,6.0781,6.0781,6.0781,6.0781,6.0781,6.0781,6.0781,6.0781,6.0781,6.0781,6.0781,6.0781,6.0781,6.0781,6.0781,6.0781,6.0781,0.0,0.0,0.0,0.0,0.0,0.0,0.0,0.0,0.0,0.0,5.6601,5.6601,5.6601,5.6601,5.6601,5.6601,5.6601,5.6601,5.6601,0.0,0.0,0.0,0.0,0.0,5.812,5.8858,5.9319,5.9488,6.0127,6.055,6.0781,6.0781,6.0781,6.0781,6.0819,6.0935,6.1103,6.129,6.1445,6.1562,6.164,6.1719,6.1719,0.0,0.0,0.0,0.0,0.0,0.0,0.0,0.0,0.0,0.0,0.0,0.0,0.0,0.0,0.0,0.0,0.0,0.0,0.0,0.0,0.0,0.0,0.0,0.0,0.0,0.0,0.0,0.0,0.0,0.0,0.0,5.9526,5.9176,5.9526,5.9176,5.8913,5.8913,5.8503,5.8194,5.8194,5.8051,5.7997,5.7997,5.7997,5.7997,5.7997,5.7997,5.8088,5.8186,5.8673,5.8951,5.9065,5.9885,6.0311,6.0311,6.0647,6.0781,6.0781,6.0781,6.0781,6.0781,6.0781,6.0781,6.0781,6.0781,6.0781,6.0781,6.0781,6.0781,6.0781,6.0781,6.0781,6.0781,0.0,0.0,0.0,0.0,0.0,0.0,0.0,0.0,0.0,0.0,5.6601,5.6601,5.6601,5.6601,5.6601,5.6601,5.6601,5.6601,5.6601,0.0,0.0,0.0,0.0,5.8473,5.8912,5.9665,6.005,6.0027,6.055,6.0781,6.0781,6.0781,6.0781,6.0781,6.0781,6.0858,6.102,6.12,6.1381,6.1523,6.164,6.1719,6.1719,6.1719,6.1719,6.1719,6.1719,6.1719,6.1719,6.1719,0.0,0.0,0.0,0.0,0.0,0.0,0.0,0.0,0.0,0.0,0.0,0.0,0.0,0.0,0.0,0.0,0.0,0.0,0.0,0.0,0.0,0.0,0.0,0.0,5.9065,5.8753,5.8796,5.8591,5.8418,5.8418,5.8186,5.7997,5.7997,5.7997,5.7997,5.7997,5.7997,5.7997,5.7997,5.7997,5.7997,5.7997,5.8461,5.8713,5.8713,5.9424,5.9823,5.9823,6.0283,6.0508,6.0508,6.0734,6.0781,6.0781,6.0781,6.0781,6.0781,6.0781,6.0781,6.0781,0.0,0.0,0.0,0.0,6.132,6.1396,0.0,0.0,0.0,0.0,0.0,0.0,0.0,0.0,0.0,0.0,0.0,5.6601,5.6601,5.6601,5.6601,5.6601,5.668,5.6796,0.0,0.0,0.0,5.7681,5.895,5.9642,5.965,6.0396,6.0781,6.0781,6.0781,6.0781,6.0781,6.0781,6.0781,6.0781,6.0781,6.0858,6.0973,6.1189,6.1366,6.1484,6.1601,6.168,6.1719,6.1719,6.1719,6.1719,6.1719,6.1719,6.1719,6.1719,0.0,0.0,0.0,0.0,0.0,0.0,0.0,0.0,0.0,0.0,0.0,0.0,0.0,0.0,0.0,0.0,0.0,0.0,0.0,0.0,0.0,0.0,0.0,0.0,5.8673,5.8503,5.8088,5.7997,5.7997,5.7997,5.7997,5.7997,5.7997,5.7997,5.7997,5.7997,5.7997,5.7997,5.7997,5.8107,0.0,0.0,0.0,5.8892,5.8892,5.9366,5.9583,5.9621,6.0121,6.037,6.0399,6.0866,6.1089,6.1089,6.1089,6.1089,6.1089,6.1089,6.1089,6.105,6.0973,6.0935,6.105,6.1897,6.2243,6.232,0.0,0.0,0.0,0.0,0.0,0.0,0.0,0.0,0.0,5.6601,5.6601,5.6601,5.6601,5.6601,5.6601,5.6601,5.7226,5.788,0.0,0.0,5.7976,5.9204,5.9435,5.9881,6.0512,6.0704,6.0781,6.0781,6.0781,6.0781,6.0781,6.0781,6.0781,6.0781,6.0781,6.0819,6.0858,6.0973,6.1172,6.1367,6.1484,6.1601,6.1719,6.1719,6.1719,6.1719,6.1719,6.1719,6.1719,6.1719,6.1719,6.1719,6.1719,0.0,0.0,0.0,0.0,0.0,0.0,0.0,0.0,0.0,0.0,0.0,0.0,0.0,0.0,0.0,0.0,0.0,0.0,0.0,0.0,5.8796,5.8375,5.8097,5.7997,5.7997,5.7997,5.7997,5.7997,5.7997,5.7997,5.7997,5.7997,5.7997,5.7997,5.7997,5.7997,5.8621,5.8988,5.8988,5.9669,6.0093,6.0093,6.0561,6.0774,6.0774,6.1705,0.0,6.2124,6.2593,6.282,6.282,6.282,6.282,6.282,6.282,6.282,6.2743,6.2089,6.1858,6.1935,6.2781,6.3089,6.3089,0.0,0.0,0.0,0.0,0.0,0.0,0.0,0.0,0.0,0.0,5.6601,5.6601,5.6601,5.6601,5.6797,5.7226,5.8047,0.0,0.0,5.8832,5.9032,5.9796,6.005,6.0342,6.0781,6.0781,6.0781,6.0781,6.0781,6.0781,6.0781,6.0781,6.0781,6.0781,6.0781,6.0781,6.0819,6.0935,6.1118,6.1312,6.1467,6.1562,6.1719,6.1719,6.1719,6.1719,6.1719,6.1719,6.1719,6.1719,6.1719,6.1719,6.1719,6.1719,6.1719,0.0,0.0,0.0,0.0,0.0,0.0,0.0,0.0,0.0,0.0,0.0,0.0,0.0,0.0,6.0751,5.9885,0.0,5.9139,5.8461,5.8142,5.8143,5.8547,5.8621,5.8621,5.8621,5.8621,5.8767,5.9171,5.9208,5.9208,5.9208,5.9208,5.9208,5.9208,5.9575,5.9795,5.9795,6.0199,6.0419,6.0419,6.0628,6.087,6.1172,6.1879,6.2363,6.262,6.3092,6.332,6.332,6.332,6.332,6.332,6.332,6.332,6.332,6.332,6.3089,6.2781,6.3628,6.3935,6.4012,0.0,0.0,0.0,0.0,0.0,0.0,0.0,0.0,0.0,0.0,5.6601,5.6601,5.6601,5.6601,5.7031,0.0,0.0,0.0,0.0,5.9877,6.0074,6.0204,6.0589,6.0781,6.0781,6.0781,6.0781,6.0781,6.0781,6.0781,6.0781,6.0781,6.0781,6.0781,6.0781,6.0781,6.0819,6.0896,6.1112,6.1318,6.1413,6.1562,6.1719,6.1719,6.1719,6.1719,6.1719,6.1719,6.1719,6.1719,6.1719,6.1719,6.1719,6.1719,6.1719,6.1719,6.1719,0.0,0.0,0.0,0.0,0.0,0.0,0.0,0.0,0.0,6.1343,6.1012,6.0935,6.0623,5.9597,5.9389,5.914,5.8363,5.8217,5.851,5.9318,5.9428,5.9501,5.9648,5.9538,5.9685,6.0346,6.0419,6.0419,6.0419,6.0419,6.0419,6.0419,6.0566,6.0639,6.0639,6.0786,6.086,6.086,6.086,6.1061,6.1528,6.2028,6.2478,6.2985,6.3444,6.3707,6.382,6.382,6.382,6.382,6.382,6.382,6.3858,6.4589,6.4436,6.3897,6.4589,6.4859,6.4936,0.0,0.0,0.0,0.0,0.0,0.0,0.0,0.0,0.0,0.0,0.0,0.0,0.0,0.0,0.0,0.0,0.0,0.0,6.1133,6.0463,6.0252,6.0866,6.0819,6.0781,6.0781,6.0781,6.0781,6.0781,6.0781,6.0781,6.0781,6.0781,6.0781,6.0781,6.0781,6.0781,6.0781,6.0819,6.1012,6.128,6.1335,6.1484,6.1719,6.1719,6.1719,6.1719,6.1719,6.1719,6.1719,6.1719,6.1719,6.1719,6.1719,6.1719,6.1719,6.1719,0.0,6.1718,6.1711,6.1603,6.1443,6.1345,6.1303,6.1221,0.0,0.0,6.1012,6.0858,6.0819,6.0546,5.9559,5.9389,5.9328,5.9099,5.9098,5.9355,6.0162,6.0272,6.0529,6.1263,6.0713,6.0309,6.0382,6.0419,6.0419,6.0419,6.0419,6.0419,6.0419,6.108,6.1484,6.1484,6.2181,6.2548,6.2548,6.2548,6.2598,6.261,6.3148,6.3675,6.4217,6.4666,6.5178,6.559,6.559,6.559,6.559,6.559,6.559,6.5628,6.5705,6.5705,6.5628,6.5705,6.5743,6.5782,0.0,0.0,0.0,0.0,0.0,0.0,0.0,0.0,0.0,0.0,0.0,0.0,0.0,0.0,0.0,0.0,0.0,0.0,6.1445,6.0937,6.0698,6.1004,6.0858,6.0781,6.0781,6.0781,6.0781,6.0781,6.0781,6.0781,6.0781,6.0781,6.0781,6.0781,6.0781,6.0781,6.0781,6.0781,6.0973,6.128,6.1296,6.1445,6.1719,6.1719,6.1719,6.1719,6.1719,6.1719,0.0,0.0,6.1719,6.1719,6.1719,6.1719,6.1719,6.1719,6.1719,0.0,6.1509,6.1445,6.1346,6.1142,6.1134,6.108,6.0965,6.0935,6.0935,6.0819,6.0781,6.0508,5.9559,5.9804,5.9928,5.932,5.9612,6.0199,6.1006,6.108,6.141,6.2218,6.1998,6.1814,6.1814,6.1814,6.1814,6.1814,6.1814,6.1814,6.1814,6.2144,6.2291,6.2291,6.2622,6.2805,6.2805,6.2805,6.2965,6.3262,6.3498,6.3892,6.4445,6.4904,6.5388,6.5897,6.5897,6.5897,6.5897,6.5897,6.5897,6.5897,6.5897,6.5897,6.5897,6.5897,6.5897,6.5897,0.0,0.0,0.0,0.0,0.0,0.0,0.0,0.0,0.0,0.0,0.0,0.0,0.0,0.0,0.0,0.0,0.0,0.0,0.0,6.1257,6.1067,6.0981,6.0858,6.0781,6.0781,6.0781,6.0781,6.0781,6.0781,6.0781,6.0781,6.0781,6.0781,6.0781,6.0781,6.0781,6.0781,6.0819,6.1012,6.128,6.1335,6.1484,6.1719,6.1719,6.1719,6.1719,6.1719,6.1719,0.0,0.0,6.1719,6.1719,6.1719,6.1719,6.1719,6.1719,6.1719,6.1633,6.1421,6.1337,6.1259,6.1048,6.0973,6.0935,6.0935,6.0935,6.0896,6.0819,6.0781,6.0585,5.9862,6.0184,6.0415,5.9946,6.0346,6.1006,6.1814,6.1924,6.2144,6.2732,6.2805,6.2805,6.2805,6.2805,6.2805,6.2805,6.2805,6.2805,6.2805,6.2805,6.2805,6.2805,6.2805,6.2805,6.2805,6.2805,6.3014,6.3363,6.3363,6.3637,6.4178,6.4696,6.5199,6.569,6.569,6.5781,6.5897,6.5897,6.5897,6.5897,6.5897,6.5897,6.5897,6.5897,6.5897,6.5897,0.0,0.0,0.0,0.0,0.0,0.0,0.0,0.0,0.0,0.0,0.0,0.0,0.0,0.0,0.0,0.0,0.0,0.0,0.0,6.135,6.1174,6.1012,6.0858,6.0781,6.0781,6.0781,6.0781,6.0781,6.0781,6.0781,6.0781,6.0781,6.0781,6.0781,6.0781,6.0781,6.0819,6.0935,6.1112,6.1318,6.1452,6.1562,6.1719,6.1719,6.1719,6.1719,6.1719,0.0,0.0,0.0,6.1719,6.1719,6.1719,6.1719,0.0,6.1719,6.1719,0.0,0.0,0.0,6.1251,6.1074,6.0896,6.0819,6.0819,6.0819,6.0781,6.0781,6.0781,6.0776,6.0585,6.0599,6.0791,6.1419,6.1557,6.1851,6.2658,6.2768,6.2768,6.2805,6.2805,6.2805,6.2805,6.2805,6.2805,6.2805,6.2805,6.2805,6.2805,6.2805,6.2805,6.2805,6.2805,6.2805,6.2805,6.2805,6.2805,6.2805,6.2805,6.311,6.3637,6.4178,6.4661,6.513,6.513,6.5417,6.5897,6.5897,6.5897,6.5897,6.5897,6.5897,6.5897,6.5897,6.5897,6.5897,0.0,0.0,0.0,0.0,0.0,0.0,0.0,0.0,0.0,0.0,0.0,0.0,0.0,0.0,0.0,0.0,0.0,0.0,0.0,6.1268,6.105,6.0973,6.0858,6.0781,6.0781,6.0781,6.0781,6.0781,6.0781,6.0781,6.0781,6.0781,6.0781,6.0781,6.0781,6.0781,6.0819,6.0935,6.1131,6.1315,6.1438,6.1562,6.1719,6.1719,6.1719,6.1719,0.0,0.0,0.0,0.0,0.0,0.0,6.1719,0.0,0.0,6.1719,0.0,0.0,0.0,0.0,6.105,6.0896,6.0819,6.0781,6.0781,6.0781,6.0781,6.0781,6.1243,6.1543,6.1195,6.175,6.2259,6.2116,6.2288,6.2511,6.2768,6.2805,6.2805,6.2805,6.2805,6.2805,6.2805,6.2805,6.2805,6.2805,6.2805,6.2805,6.2805,6.2805,6.2805,6.2805,6.2805,6.2805,6.2805,6.2805,6.2805,6.2805,6.2805,6.311,6.3631,6.3808,6.4138,6.4661,6.4932,6.5192,6.5417,6.5781,6.5897,6.5897,6.5897,6.5897,6.5897,6.5897,6.5897,6.5897,0.0,0.0,0.0,0.0,0.0,0.0,0.0,0.0,0.0,0.0,0.0,0.0,0.0,0.0,0.0,0.0,0.0,0.0,0.0,0.0,6.1113,6.0997,6.0896,6.0858,6.0781,6.0781,6.0781,6.0781,6.0781,6.0781,6.0781,6.0781,6.0781,6.0781,6.0781,6.0819,6.0858,6.1012,6.1211,6.1367,6.1523,6.1601,6.1719,6.1719,6.1719,0.0,0.0,0.0,0.0,0.0,0.0,0.0,0.0,0.0,0.0,0.0,0.0,0.0,0.0,6.1099,6.0973,6.0819,6.0781,6.0781,6.0781,6.0781,6.0896,6.1204,6.1704,6.2106,6.2251,6.2724,6.3049,6.286,6.2835,6.2805,6.2805,6.2805,6.2805,6.2805,6.2805,6.2805,6.2805,6.2805,6.2805,6.2805,6.2805,6.2805,6.2805,6.2805,6.2805,6.2805,6.2805,6.2805,6.2805,6.2805,6.2805,6.2805,6.2805,6.2965,6.3317,6.3498,6.3892,6.4445,6.4904,6.523,6.5417,6.5781,6.5897,6.5897,6.5897,6.5897,6.5897,6.5897,6.5897,6.5897,0.0,0.0,0.0,0.0,0.0,0.0,0.0,0.0,0.0,0.0,0.0,0.0,0.0,0.0,0.0,0.0,0.0,0.0,0.0,0.0,0.0,6.1053,6.102,6.0935,6.0781,6.0781,6.0781,6.0781,6.0781,6.0781,6.0781,6.0781,6.0781,6.0781,6.0819,6.0858,6.1035,6.1219,6.1369,6.1523,6.164,6.1719,6.1719,6.1719,0.0,0.0,0.0,0.0,0.0,0.0,0.0,0.0,0.0,0.0,0.0,0.0,0.0,6.142,6.1112,6.0973,6.0935,6.0819,6.0781,6.0781,6.0781,6.0781,6.105,6.1897,6.2127,6.249,0.0,0.0,6.3275,6.3611,6.3168,6.2805,6.2805,6.2805,6.2805,0.0,0.0,0.0,0.0,6.2805,6.2805,6.2805,6.2805,6.2805,6.2805,6.2805,6.2805,6.2805,6.2805,6.2805,6.2805,6.2805,6.2805,6.2805,6.2805,6.2805,6.2805,6.3354,6.385,6.4332,6.4799,6.5321,6.5808,6.5872,6.5897,6.5897,6.5897,6.5897,6.5897,6.5897,6.5897,6.5897,0.0,0.0,0.0,0.0,0.0,0.0,0.0,0.0,0.0,0.0,0.0,0.0,0.0,0.0,0.0,0.0,0.0,0.0,0.0,0.0,0.0,0.0,0.0,0.0,0.0,0.0,0.0,0.0,6.0781,6.0781,6.0781,6.0781,6.0781,6.0781,6.0896,6.0973,6.1004,6.1323,6.1463,6.1523,0.0,6.1719,6.1719,0.0,0.0,0.0,0.0,0.0,0.0,0.0,0.0,0.0,0.0,6.1719,6.1665,0.0,0.0,6.1304,6.105,6.0935,6.0819,6.0819,6.0781,6.0781,6.0781,6.0781,6.105,6.1897,6.2589,6.3295,0.0,6.4247,6.4106,6.4179,6.3408,6.2805,6.2805,6.2805,0.0,6.2805,0.0,6.2805,6.2805,6.2805,6.2805,6.2805,6.2805,6.2805,6.2805,6.2805,6.2805,6.2805,6.2805,6.2805,6.2805,6.2805,6.2805,6.2805,6.2805,6.2805,6.2805,6.2917,6.311,6.3262,6.3766,6.4294,6.4803,6.5168,6.5542,6.5897,6.5897,6.5897,6.5897,6.5897,6.5897,6.5974,0.0,0.0,0.0,0.0,0.0,0.0,0.0,0.0,0.0,0.0,0.0,0.0,0.0,0.0,0.0,0.0,0.0,0.0,0.0,0.0,0.0,0.0,0.0,0.0,0.0,0.0,0.0,0.0,0.0,0.0,6.0781,6.0858,6.0896,6.0896,6.105,6.1138,6.1214,6.142,0.0,0.0,0.0,0.0,0.0,0.0,0.0,0.0,0.0,0.0,0.0,0.0,0.0,6.1719,6.1719,6.1719,6.167,6.1468,0.0,6.1228,6.0973,6.0858,6.0781,6.0781,6.0781,6.0781,6.0781,6.0781,6.1127,6.2358,6.2974,6.3666,6.4936,6.4731,6.437,0.0,0.0,0.0,6.2805,6.2805,6.2805,0.0,6.3135,0.0,6.3392,6.3686,6.3906,6.3906,6.3246,6.2805,6.2805,6.2805,6.2805,6.2805,6.2805,6.2805,6.2805,6.2805,6.2805,6.2805,6.2805,6.2805,6.2805,6.3062,6.3121,6.3168,6.3723,6.4099,6.4407,6.49,6.5291,6.5608,6.6192,6.6436,6.6474,6.6859,6.7013,6.7051,0.0,0.0,0.0,0.0,0.0,0.0,0.0,0.0,0.0,0.0,0.0,0.0,0.0,0.0,0.0,0.0,0.0,0.0,0.0,0.0,0.0,0.0,0.0,0.0,0.0,0.0,0.0,0.0,0.0,0.0,0.0,0.0,0.0,0.0,0.0,0.0,0.0,0.0,0.0,0.0,0.0,0.0,0.0,0.0,0.0,0.0,0.0,0.0,0.0,0.0,6.1719,6.1719,6.1719,6.1676,6.1612,6.1393,6.1286,6.1189,6.0858,6.0781,6.0781,6.0781,6.0781,6.0781,6.0781,6.0781,6.1281,6.2974,6.332,6.382,6.559,6.5073,6.437,6.437,0.0,6.2805,6.2805,6.2805,6.2842,6.2989,6.3649,6.4127,6.4237,6.4897,6.5301,6.5301,6.398,6.3135,6.3135,6.3135,6.3099,6.2989,6.2989,6.2915,6.2805,6.2805,6.2805,6.2805,6.2805,6.2805,6.2805,6.3308,6.3498,6.3543,6.4016,6.4292,6.4445,6.4882,6.5161,6.5449,6.6681,6.7165,6.7268,6.8102,6.8398,6.8436,0.0,0.0,0.0,0.0,0.0,0.0,0.0,0.0,0.0,0.0,6.0078,6.0664,0.0,0.0,0.0,0.0,0.0,0.0,0.0,0.0,0.0,0.0,0.0,0.0,0.0,0.0,0.0,0.0,0.0,0.0,0.0,0.0,0.0,0.0,0.0,0.0,0.0,0.0,0.0,0.0,0.0,0.0,0.0,0.0,0.0,0.0,0.0,0.0,0.0,0.0,6.1719,6.1719,6.1719,6.1625,6.1503,6.1344,6.1169,6.1012,6.0858,6.0781,6.0781,6.0781,6.0781,6.0781,6.0781,6.0781,0.0,0.0,6.332,6.382,6.559,6.5073,6.437,6.437,6.3498,6.2805,6.2805,6.2805,6.3062,0.0,6.4016,6.4347,6.5044,6.5228,6.5301,6.5301,6.5044,6.4897,6.4897,6.4897,6.4567,6.3906,6.387,6.3539,6.2805,6.2805,6.2805,6.2805,6.2805,6.2805,6.2805,6.2904,6.2917,6.2917,6.3062,6.3725,6.4731,6.4823,6.5527,6.6598,6.7283,6.7522,6.7591,6.8175,6.8398,6.8513,0.0,0.0,0.0,0.0,0.0,0.0,0.0,5.9968,6.0565,6.0643,6.0798,6.1032,6.1444,6.1445,6.1388,0.0,0.0,0.0,0.0,0.0,0.0,0.0,0.0,0.0,0.0,0.0,6.0781,6.0781,0.0,6.0935,6.0997,6.1182,6.1315,6.1406,6.1523,6.1601,0.0,0.0,0.0,0.0,0.0,0.0,0.0,0.0,0.0,0.0,0.0,0.0,0.0,0.0,6.1719,6.1719,6.1719,6.1596,6.1466,6.135,6.1155,6.0973,6.0819,6.0781,6.0781,6.0781,6.0781,6.0781,6.0781,0.0,0.0,0.0,6.3012,6.3705,6.4974,6.4769,0.0,6.437,6.3498,6.2805,6.2805,6.3209,6.3613,6.4053,6.4824,6.5485,6.5888,6.6292,6.6549,6.6549,6.6549,6.6182,6.5338,6.5301,6.5118,6.4751,6.4714,6.453,6.4127,6.3686,6.3466,6.3466,6.3025,6.2805,6.2842,6.3282,6.3466,6.3503,6.3943,6.4462,6.5101,6.5357,6.5776,6.6491,6.7468,6.7806,6.7954,6.889,6.9276,6.9383,0.0,0.0,0.0,0.0,0.0,0.0,0.0,6.055,6.1012,6.1189,6.1189,6.1195,6.1179,6.1208,6.1237,0.0,0.0,0.0,0.0,0.0,0.0,0.0,0.0,0.0,0.0,0.0,0.0,6.0781,6.0935,0.0,0.0,0.0,0.0,0.0,6.164,6.1719,6.1719,6.1719,0.0,0.0,0.0,6.1719,0.0,0.0,0.0,0.0,0.0,0.0,0.0,0.0,6.1719,6.1718,6.1694,6.1576,6.1422,6.1289,6.1112,6.0935,6.0819,6.0781,6.0781,6.0781,6.0935,6.1012,6.0819,6.0935,0.0,6.1935,6.2743,6.3589,6.4436,0.0,6.4518,0.0,6.3593,6.2917,6.2805,6.3539,6.4163,0.0,6.5632,0.0,6.6733,6.732,6.7687,6.7687,6.7687,6.7136,6.5888,6.5815,6.5742,6.5558,6.5558,6.5485,6.5301,6.4677,6.4347,6.4347,6.3649,6.3356,6.3356,6.4053,6.4347,6.4383,6.5044,6.5411,6.561,6.5964,6.6192,6.6509,6.7653,6.809,6.8248,6.9619,7.0095,7.0162,0.0,0.0,0.0,0.0,0.0,0.0,0.0,6.0781,6.0819,6.0819,6.0858,6.0866,6.086,6.0959,6.1032,0.0,0.0,0.0,0.0,0.0,0.0,0.0,0.0,0.0,0.0,0.0,0.0,6.0781,6.0935,0.0,0.0,0.0,0.0,0.0,0.0,6.1719,6.1719,6.1719,0.0,0.0,0.0,0.0,0.0,0.0,0.0,0.0,0.0,0.0,0.0,0.0,0.0,6.1709,6.1707,6.1518,6.1289,6.1053,0.0,0.0,6.0781,6.0781,6.0781,6.0781,6.1396,6.1781,6.0973,0.0,6.1973,6.2089,6.2743,6.3589,6.4436,6.4843,6.4904,6.4444,0.0,6.3363,6.2855,6.3539,6.4347,6.5118,0.0,0.0,6.7504,6.765,6.7687,6.7687,6.7687,6.7614,6.7467,6.7467,6.7136,6.6402,6.6402,6.6035,6.5301,6.5228,6.5191,6.5191,6.5118,6.5081,6.5081,6.5154,6.5191,6.5191,6.5264,6.5705,6.6402,6.6418,6.6875,6.7589,6.8257,6.8455,6.8593,6.97,7.0095,7.0162,0.0,0.0,0.0,0.0,0.0,0.0,6.0742,6.0781,6.0781,6.0781,6.0781,6.0781,6.0781,6.0858,6.0858,6.0858,0.0,0.0,0.0,0.0,0.0,0.0,0.0,0.0,0.0,0.0,6.0781,6.0781,6.0935,0.0,0.0,0.0,0.0,0.0,0.0,6.1719,6.1719,6.1719,0.0,0.0,0.0,0.0,0.0,0.0,0.0,0.0,0.0,0.0,0.0,0.0,0.0,0.0,6.1627,6.1525,0.0,0.0,6.0973,6.0781,6.0781,6.0781,6.0781,6.0781,6.105,6.1243,6.0858,0.0,6.132,6.132,6.2358,6.3435,6.3743,6.4283,6.4626,6.4407,0.0,0.0,6.3553,6.431,6.5118,6.5925,6.6733,6.7357,6.765,6.7687,6.7687,6.7687,6.7687,6.7687,6.7687,6.7687,6.754,6.721,6.721,6.7063,6.6733,6.6256,6.6035,6.6035,6.5521,6.5301,6.5338,6.5815,6.6035,6.6035,6.6512,6.6916,6.721,6.721,6.7393,6.7741,6.793,6.8033,6.8097,6.8847,6.9148,6.9231,0.0,0.0,0.0,0.0,0.0,6.0781,6.0781,6.0781,6.0781,6.0781,6.0781,6.0781,6.0781,6.0781,6.0781,6.0781,6.0781,0.0,0.0,0.0,0.0,0.0,0.0,0.0,0.0,0.0,6.0781,6.0781,6.0935,6.1095,0.0,0.0,6.1562,6.1719,0.0,0.0,0.0,0.0,0.0,0.0,0.0,0.0,0.0,0.0,0.0,0.0,0.0,0.0,0.0,0.0,0.0,0.0,0.0,0.0,0.0,0.0,6.1012,6.0858,6.0819,6.0781,6.0858,6.1127,6.1166,6.1166,0.0,0.0,6.1089,6.0858,6.2127,6.332,6.332,6.4024,6.4554,6.4407,0.0,6.326,6.403,6.4787,6.5595,6.6402,0.0,6.7687,6.7687,6.7687,6.7687,6.7687,6.7687,6.7687,6.7687,6.7687,6.7687,6.7687,6.7687,6.7687,6.7687,6.7136,6.6843,6.6843,6.6292,6.5999,6.6035,6.6586,6.6843,6.688,6.743,6.7687,6.7687,6.7687,6.7687,6.7687,6.7687,6.7687,6.7757,6.8308,6.8511,6.8567,0.0,0.0,0.0,0.0,0.0,0.0,6.0781,6.0781,6.0781,6.0781,6.0781,6.0781,6.0781,6.0781,6.0781,6.0781,6.0781,0.0,0.0,0.0,0.0,0.0,0.0,0.0,0.0,0.0,6.0781,6.0781,6.0935,6.1112,6.1312,6.1432,6.1562,6.1719,0.0,0.0,0.0,0.0,0.0,0.0,0.0,0.0,0.0,0.0,0.0,0.0,0.0,0.0,0.0,0.0,0.0,0.0,0.0,0.0,0.0,0.0,6.0973,6.0973,6.0819,6.0781,6.1012,6.1858,6.2089,6.2089,0.0,0.0,6.182,6.0973,6.2127,6.332,6.332,6.4298,6.4932,6.4481,6.3975,0.0,6.4044,6.4787,6.5595,0.0,6.721,6.7687,6.7687,6.7687,6.7687,6.7687,6.7687,6.7687,6.7687,6.7687,6.7687,6.7687,6.7687,6.7687,6.7687,6.7687,6.7687,6.7687,6.765,6.765,6.765,6.765,6.7687,6.7687,6.7687,6.7687,6.7687,6.7687,6.7687,6.7687,6.7687,6.7687,6.7757,6.8308,6.8511,6.8567,0.0,0.0,0.0,0.0,0.0,0.0,0.0,6.0781,6.0781,6.0781,6.0781,6.0781,6.0781,6.0781,6.0781,6.0781,6.0781,0.0,0.0,0.0,0.0,0.0,0.0,0.0,0.0,0.0,6.0781,6.0781,6.0819,6.0935,6.1097,6.1276,6.1445,6.1562,6.164,6.1719,0.0,0.0,0.0,0.0,0.0,0.0,0.0,0.0,0.0,0.0,0.0,0.0,0.0,0.0,0.0,0.0,0.0,0.0,0.0,0.0,0.0,0.0,6.0819,6.0781,6.0858,6.1127,6.1204,6.1204,6.1204,0.0,6.2012,6.1743,6.3012,6.4091,6.3733,6.4177,6.4444,6.3934,6.3408,0.0,0.0,0.0,0.0,6.7136,6.754,6.7687,6.7687,6.7687,6.7687,6.7687,6.7687,6.7687,6.7687,6.7687,6.7687,6.7687,6.7687,6.7687,6.7687,6.7687,6.7687,6.7687,6.7687,6.7687,6.7687,6.7687,6.7687,6.7687,6.7687,6.7687,6.7687,6.7687,6.7687,6.7687,6.7687,6.7687,6.7741,6.7878,6.793,6.7982,0.0,0.0,0.0,0.0,0.0,0.0,0.0,6.0781,6.0781,6.0781,6.0781,6.0781,6.0781,6.0781,6.0781,6.0781,6.0781,0.0,0.0,0.0,0.0,0.0,0.0,0.0,6.0781,6.0781,6.0781,6.0781,6.0781,6.0858,6.0997,6.1136,6.1314,6.1484,6.1601,6.164,0.0,0.0,0.0,0.0,0.0,0.0,6.1719,0.0,0.0,0.0,0.0,0.0,0.0,0.0,0.0,0.0,0.0,0.0,0.0,0.0,6.1099,0.0,0.0,6.0781,6.0935,6.1589,6.1512,0.0,0.0,0.0,0.0,6.2551,6.3628,6.4449,6.3902,6.4127,6.4217,6.368,6.3464,6.3759,0.0,0.0,0.0,6.754,6.7687,6.7687,6.7687,6.7687,6.7687,6.7687,6.7687,6.7687,6.7687,6.7687,6.7687,6.7687,6.7687,6.7687,6.7687,6.7687,6.7687,6.7687,6.7687,6.7687,6.7687,6.7687,6.7687,6.7687,6.7687,6.7687,0.0,6.7687,6.7687,6.7687,6.7687,6.7687,6.7724,6.8017,6.8128,6.8201,0.0,0.0,0.0,0.0,0.0,0.0,0.0,6.0781,6.0781,6.0781,6.0781,6.0781,6.0781,6.0781,6.0781,6.0781,0.0,0.0,0.0,0.0,0.0,0.0,0.0,0.0,6.0781,6.0781,6.0781,6.0781,6.0781,6.0858,6.0973,6.0973,6.119,6.1479,6.1484,6.1562,0.0,0.0,0.0,0.0,0.0,0.0,0.0,0.0,0.0,0.0,0.0,0.0,0.0,0.0,0.0,0.0,0.0,0.0,0.0,0.0,0.0,0.0,0.0,0.0,0.0,6.282,6.2704,0.0,0.0,0.0,0.0,0.0,0.0,0.0,6.3947,6.413,6.4176,6.3749,6.3896,0.0,0.0,6.6072,0.0,0.0,6.7687,6.7687,6.7687,6.7687,6.7687,6.7687,6.7687,6.7687,6.7687,6.7687,6.7687,6.7687,6.7687,6.7687,6.7687,6.7687,6.7687,6.7687,6.7687,6.7687,6.7687,6.7687,6.7687,6.7687,6.7687,6.7687,6.7687,6.7687,6.7687,6.7687,6.776,6.7797,6.7871,6.8678,6.9009,6.9082,0.0,0.0,0.0,0.0,0.0,0.0,0.0,0.0,0.0,0.0,6.0781,6.0781,6.0781,6.0781,6.0781,0.0,0.0,0.0,0.0,0.0,0.0,0.0,0.0,0.0,6.0781,6.0781,6.0781,6.0781,6.0781,6.0819,6.0858,6.0935,6.1053,6.1131,6.1398,6.1562,0.0,0.0,0.0,0.0,0.0,0.0,0.0,0.0,0.0,0.0,6.1719,6.1719,0.0,0.0,0.0,0.0,0.0,0.0,0.0,0.0,6.0935,0.0,6.0819,0.0,6.1897,6.2281,6.2704,6.3128,0.0,0.0,0.0,0.0,0.0,0.0,0.0,0.0,0.0,6.3959,0.0,6.4604,6.6035,0.0,0.0,6.765,6.7687,6.7687,6.7687,6.7687,6.7687,6.7687,6.7687,6.7687,6.7687,6.7687,6.7687,6.7687,6.7687,6.7687,6.7687,6.7687,6.7687,6.7687,6.7687,6.7687,6.7687,6.7687,6.7687,6.7687,6.7687,6.7687,6.7687,6.7687,6.7687,6.776,6.8385,6.8605,6.8715,6.9522,6.9816,6.9853,0.0,0.0,0.0,0.0,0.0,0.0,0.0,0.0,0.0,0.0,0.0,6.0781,6.0781,6.0781,0.0,0.0,0.0,0.0,0.0,0.0,0.0,0.0,0.0,6.0781,6.0781,6.0781,6.0781,6.0781,6.0781,6.0781,6.0781,6.0858,6.0935,6.1004,6.1361,6.1523,0.0,0.0,0.0,0.0,6.1719,0.0,0.0,0.0,0.0,0.0,6.1719,6.1642,0.0,6.1606,6.1497,6.1407,0.0,0.0,0.0,0.0,6.0858,6.0781,6.0781,6.1435,6.2166,6.2551,6.3281,6.4012,0.0,0.0,0.0,0.0,0.0,0.0,0.0,0.0,0.0,0.0,6.4714,0.0,0.0,0.0,6.7687,6.7687,6.7687,6.7687,6.7687,6.7687,6.7687,6.7687,6.7687,6.7687,6.7687,6.7687,6.7687,6.7687,6.7687,6.7687,6.7687,6.7687,6.7687,6.7687,6.7687,6.7687,6.7687,6.7687,6.7687,6.7687,6.7687,6.7687,6.7724,6.8091,6.8238,6.8311,6.9155,6.9449,6.9559,7.0367,7.066,7.0697,0.0,0.0,0.0,0.0,0.0,0.0,0.0,0.0,0.0,0.0,0.0,0.0,0.0,0.0,0.0,0.0,0.0,0.0,0.0,0.0,0.0,0.0,0.0,6.0781,6.0781,6.0781,6.0781,6.0781,6.0781,6.0781,6.0781,6.0781,6.0858,6.102,6.1295,6.1436,0.0,0.0,6.168,6.1719,6.1719,0.0,0.0,0.0,0.0,0.0,0.0,0.0,0.0,6.1497,6.137,6.1235,6.1053,0.0,0.0,0.0,0.0,0.0,6.1012,6.168,6.254,6.3142,6.4051,6.4974,0.0,0.0,0.0,0.0,0.0,0.0,0.0,0.0,0.0,0.0,0.0,0.0,6.7577,6.7687,6.7687,6.7687,6.7687,6.7687,6.7687,6.7687,6.7687,6.7687,6.7687,6.7687,6.7687,6.7687,6.7687,6.7687,6.7687,6.7687,6.7687,6.7687,6.7687,6.7687,6.7687,6.7687,6.7687,6.7687,6.7687,6.7687,6.7687,6.776,6.7944,6.8605,6.8972,6.9155,6.9963,7.0293,7.0367,7.1211,7.1505,7.1578,0.0,0.0,0.0,0.0,0.0,0.0,0.0,0.0,0.0,0.0,0.0,0.0,0.0,0.0,0.0,0.0,0.0,0.0,0.0,0.0,0.0,6.0781,6.0781,6.0781,6.0781,6.0781,6.0781,6.0781,6.0781,6.0781,6.0781,6.0781,6.0858,6.0997,6.1057,6.1226,6.1484,6.1523,6.1601,6.1719,6.1719,0.0,0.0,0.0,0.0,0.0,0.0,0.0,0.0,6.1381,6.1196,6.1032,6.102,0.0,0.0,0.0,0.0,0.0,6.1897,6.2694,6.3494,6.3361,6.4512,6.5743,0.0,0.0,0.0,0.0,0.0,0.0,0.0,0.0,6.4595,0.0,0.0,6.754,6.765,6.7687,6.7687,6.7687,6.7687,6.7687,6.7687,6.7687,6.7687,6.7687,6.7687,6.7687,6.7687,6.7687,6.7687,6.7687,6.7687,6.7687,6.7687,6.7687,6.7687,6.7687,6.7687,6.7687,6.7687,6.7687,6.7687,6.7687,6.7687,6.8091,6.8752,6.8862,6.9302,7.0,7.0807,7.1138,7.1211,7.2018,7.2312,7.2349,0.0,0.0,0.0,0.0,0.0,0.0,0.0,0.0,0.0,0.0,0.0,0.0,0.0,0.0,0.0,0.0,0.0,0.0,0.0,0.0,0.0,6.0781,6.0781,6.0781,6.0781,6.0781,6.0781,6.0781,6.0781,6.0781,6.0781,6.0781,6.0819,6.0896,6.0973,6.108,6.1226,6.1331,6.1413,6.1491,0.0,0.0,0.0,0.0,0.0,0.0,0.0,0.0,0.0,0.0,6.1012,6.0896,6.0896,0.0,0.0,0.0,0.0,0.0,6.2627,6.3463,6.4134,6.3685,6.4344,0.0,0.0,0.0,0.0,0.0,0.0,0.0,0.0,0.0,6.5778,6.6953,0.0,6.7687,6.7687,6.7687,6.7687,6.7687,6.7687,6.7687,6.7687,6.7687,6.7687,6.7687,6.7687,6.7687,6.7687,6.7687,6.7687,6.7687,6.7687,6.7687,6.7687,6.7687,6.7687,6.7687,6.7687,6.7687,6.7687,6.7687,6.7687,6.7724,6.8164,6.8568,6.8972,6.9853,7.0403,7.0844,7.1651,7.1945,7.1982,7.2349,7.2496,7.2496,0.0,0.0,0.0,0.0,0.0,0.0,0.0,0.0,0.0,0.0,0.0,0.0,0.0,0.0,0.0,0.0,0.0,0.0,0.0,0.0,6.0474,6.0482,6.0597,6.0712,6.0781,6.0781,6.0781,6.0781,6.0781,6.0781,6.0781,6.0781,6.0781,6.0781,6.0896,6.0973,6.102,6.1148,6.125,6.1289,0.0,0.0,0.0,0.0,0.0,0.0,0.0,0.0,0.0,0.0,0.0,0.0,0.0,0.0,0.0,6.1897,6.2358,6.282,6.3435,6.4155,6.4573,6.4045,0.0,0.0,0.0,0.0,0.0,0.0,0.0,0.0,0.0,6.6256,0.0,6.7577,6.7687,6.7687,6.7687,6.7687,6.7687,6.7687,6.7687,6.7687,6.7687,6.7687,6.7687,6.7687,6.7687,6.7687,6.7687,6.7687,6.7687,6.7687,6.7687,6.7687,6.7687,6.7687,6.7687,6.7687,6.7687,6.7687,6.7687,6.7687,6.7797,6.8017,6.8641,6.9119,6.9559,7.0807,7.1431,7.1651,7.2275,7.2496,7.2496,7.2496,7.2496,7.2496,0.0,0.0,0.0,0.0,0.0,0.0,0.0,0.0,0.0,0.0,0.0,0.0,0.0,0.0,0.0,0.0,0.0,0.0,0.0,0.0,5.9492,5.9496,5.9942,6.0335,6.0781,6.0781,6.0781,6.0781,6.0781,6.0781,6.0781,6.0781,6.0781,6.0781,6.0819,6.0858,6.0997,6.102,6.1119,6.1296,6.1296,0.0,0.0,0.0,0.0,0.0,0.0,0.0,0.0,0.0,0.0,0.0,0.0,0.0,6.2012,6.2089,6.3205,6.4436,6.4474,6.4775,6.4921,6.4478,0.0,0.0,0.0,0.0,0.0,6.4823,0.0,0.0,0.0,6.7063,6.7614,6.7687,6.7687,6.7687,6.7687,6.7687,6.7687,6.7687,6.7687,6.7687,6.7687,6.7687,6.7687,6.7687,6.7687,6.7687,6.7687,6.7687,6.7687,6.7687,6.7687,6.7687,6.7687,6.7687,6.7687,6.7687,6.7687,6.7687,6.7687,6.7687,6.8091,6.8825,6.8862,6.9743,7.1138,7.1248,7.1762,7.2422,7.2496,7.2496,7.2496,7.2496,7.2496,7.2496,0.0,0.0,0.0,0.0,0.0,0.0,0.0,0.0,0.0,0.0,0.0,0.0,0.0,0.0,0.0,0.0,0.0,0.0,0.0,5.9499,5.9397,5.9392,5.9847,6.017,6.0373,6.0666,6.0781,6.0781,6.0781,6.0781,6.0781,6.0781,6.0781,6.0781,6.0781,6.0819,6.0858,6.0858,6.0896,6.0973,6.0973,6.0973,0.0,0.0,0.0,0.0,0.0,0.0,0.0,0.0,6.0781,6.0896,6.1435,6.182,6.2281,6.3358,6.4089,6.4654,6.4862,6.4993,6.5052,6.4738,0.0,0.0,0.0,0.0,6.5251,6.573,6.5934,0.0,0.0,0.0,6.7687,6.7687,6.7687,6.7871,6.8385,6.8458,6.8641,6.9119,6.9192,6.9192,6.9192,6.9192,6.8972,6.8495,6.8458,6.8238,6.7724,6.7687,6.7687,6.7687,6.7687,6.7687,6.7687,6.7687,6.7687,6.7687,6.7687,6.7687,6.7724,6.8201,6.8605,6.8972,6.9963,7.077,7.1358,7.1835,7.2239,7.2496,7.2496,7.2496,7.2496,7.2496,7.2496,7.2496,0.0,0.0,0.0,0.0,0.0,0.0,0.0,0.0,0.0,0.0,0.0,0.0,0.0,0.0,0.0,0.0,0.0,0.0,5.9164,5.9054,5.9022,5.9139,5.9639,5.9938,6.0112,6.058,6.0781,6.0781,6.0781,6.0781,6.0781,6.0781,6.0781,6.0781,6.0781,6.0781,6.0781,6.0781,6.0781,6.0781,6.0781,6.0781,0.0,0.0,0.0,0.0,0.0,0.0,0.0,0.0,6.0973,6.132,6.1897,6.2435,6.3089,6.4243,6.4667,6.4803,6.5039,6.5194,6.5192,0.0,0.0,0.0,0.0,0.0,6.5852,6.6402,6.6916,6.7357,6.765,0.0,6.8091,6.8091,6.8091,6.8348,6.9155,6.9302,6.9486,7.0036,7.011,7.011,7.011,7.011,6.9853,6.9339,6.9045,6.8678,6.8091,6.7834,6.7687,6.7687,6.7687,6.7687,6.7687,6.7687,6.7834,6.8091,6.8091,6.8091,6.8091,6.8641,6.9192,6.9743,7.0844,7.1468,7.1725,7.2275,7.2496,7.2496,7.2496,7.2496,7.2496,7.2496,7.2496,7.2496,0.0,0.0,0.0,0.0,0.0,0.0,0.0,0.0,0.0,0.0,0.0,0.0,0.0,0.0,0.0,0.0,0.0,0.0,5.8713,5.8263,5.8194,5.8673,5.9136,5.9621,6.0103,6.0533,6.0781,6.0781,6.0781,6.0781,6.0781,6.0781,6.0781,6.0781,6.0781,6.0781,6.0781,6.0781,6.0781,6.0781,6.0781,6.0781,6.0781,0.0,0.0,0.0,0.0,0.0,0.0,0.0,0.0,0.0,0.0,0.0,6.4589,6.4628,6.4824,6.5099,6.5099,6.5338,0.0,0.0,0.0,0.0,0.0,0.0,6.6512,6.6512,6.7797,6.8641,6.7834,6.8348,6.8898,6.8898,6.8898,6.9192,7.0,7.011,7.011,7.011,7.011,7.011,7.011,7.011,7.011,7.011,6.9376,6.8935,6.8898,6.8128,6.7687,6.7687,6.7687,6.7687,6.7687,6.7687,6.8128,6.8898,6.8898,6.8898,6.8898,6.8935,6.9816,7.1321,7.1321,7.1762,7.2496,7.2496,7.2496,7.2496,7.2496,7.2496,7.2496,7.2496,7.2496,7.2496,0.0,0.0,0.0,0.0,0.0,0.0,0.0,0.0,0.0,0.0,0.0,0.0,0.0,0.0,0.0,0.0,0.0,0.0,5.8226,5.807,5.8051,5.8194,5.8635,5.9135,5.9581,6.0367,6.0781,6.0781,6.0781,6.0781,6.0781,6.0781,6.0781,6.0781,6.0781,6.0781,6.0781,6.0781,6.0781,6.0781,6.0781,6.0781,6.0781,0.0,0.0,0.0,0.0,0.0,0.0,0.0,0.0,0.0,0.0,0.0,6.4705,6.532,6.5312,6.515,6.5381,0.0,0.0,0.0,0.0,0.0,0.0,0.0,0.0,0.0,6.7724,6.8164,6.8495,6.8752,6.9082,6.9633,6.9743,7.0036,7.0844,7.0954,7.1174,7.1725,7.1798,7.1798,7.1798,7.1798,7.1541,7.0991,7.0734,7.0367,6.9779,6.8972,6.8531,6.8531,6.7981,6.7944,6.8531,6.8531,6.8935,6.9743,6.9743,6.9743,6.9743,7.033,7.0881,7.1358,7.1908,7.2275,7.2496,7.2496,7.2496,7.2496,7.2496,7.2496,7.2496,7.2496,7.2496,7.2496,0.0,0.0,0.0,0.0,0.0,0.0,0.0,0.0,0.0,0.0,0.0,0.0,0.0,0.0,0.0,0.0,0.0,0.0,0.0,5.7997,5.807,5.8263,5.8549,5.8915,5.9398,6.0141,6.0508,6.0508,6.0734,6.0781,6.0781,6.0781,6.0781,6.0781,6.0781,6.0781,6.0781,6.0781,6.0781,6.0781,6.0781,6.0781,6.0781,0.0,0.0,0.0,0.0,0.0,0.0,0.0,0.0,0.0,0.0,0.0,0.0,6.5509,6.523,6.4886,6.5193,0.0,0.0,0.0,0.0,0.0,0.0,0.0,0.0,0.0,6.8201,6.8678,6.8862,6.9412,7.0036,7.0513,7.0587,7.0881,7.1688,7.1798,7.1982,7.2459,7.2496,7.2496,7.2496,7.2496,7.2312,7.1835,7.1505,7.1101,7.0587,6.9816,6.9376,6.9376,6.8898,6.8898,6.9376,6.9376,6.9779,7.0587,7.0587,7.0734,7.1064,7.1248,7.1468,7.1798,7.2312,7.2496,7.2496,7.2496,7.2496,7.2496,7.2496,7.2496,7.2496,7.2496,7.2496,7.2496,0.0,0.0,0.0,0.0,0.0,0.0,0.0,0.0,0.0,0.0,0.0,0.0,0.0,0.0,0.0,0.0,0.0,0.0,0.0,0.0,5.8226,5.864,5.8646,5.8913,5.9319,5.9855,6.0103,6.0103,6.0597,6.0781,6.0781,6.0781,6.0781,6.0781,6.0781,6.0781,6.0781,6.0781,6.0781,6.0781,6.0781,6.0781,6.0781,6.0781,0.0,0.0,0.0,0.0,0.0,0.0,0.0,0.0,0.0,0.0,6.5808,6.5261,6.4765,6.4444,0.0,0.0,0.0,0.0,0.0,0.0,0.0,6.7687,6.7724,6.7797,0.0,6.9816,6.9229,7.033,7.1321,7.1431,7.1431,7.1688,7.2422,7.2496,7.2496,7.2496,7.2496,7.2496,7.2496,7.2496,7.2496,7.2496,7.1835,7.1431,7.1431,7.066,7.022,7.022,7.0146,7.0146,7.022,7.022,7.0624,7.1431,7.1431,7.1798,7.2496,7.1762,7.1835,7.2496,7.2496,7.2496,7.2496,7.2496,7.2496,7.2496,7.2496,7.2496,7.2496,7.2496,7.2496,7.2496,0.0,0.0,0.0,0.0,0.0,0.0,0.0,0.0,0.0,0.0,0.0,0.0,0.0,0.0,0.0,0.0,0.0,0.0,0.0,0.0,5.8033,5.8143,5.8498,5.8716,5.8835,5.9658,6.0103,6.0103,6.0597,6.0781,6.0781,6.0781,6.0781,6.0781,6.0781,6.0781,6.0781,6.0781,6.0781,6.0781,6.0781,6.0781,6.0781,6.0781,6.0781,0.0,0.0,0.0,0.0,0.0,0.0,0.0,6.4437,6.5205,6.5808,6.5261,6.4765,6.4594,0.0,0.0,0.0,0.0,0.0,0.0,0.0,6.7687,6.7871,6.8495,6.8935,6.9486,7.0587,7.1101,7.1541,7.2165,7.2239,7.2312,7.2496,7.2496,7.2496,7.2496,7.2496,7.2496,7.2496,7.2496,7.2496,7.2496,7.2349,7.2239,7.2239,7.1505,7.1064,7.1064,7.044,7.0403,7.1064,7.1064,7.1468,7.2239,7.2239,7.2349,7.2496,7.2312,7.2349,7.2496,7.2496,7.2496,7.2496,7.2496,7.2496,7.2496,7.2496,7.2496,7.2496,7.2496,7.2496,7.2496,0.0,0.0,0.0,0.0,0.0,0.0,0.0,0.0,0.0,0.0,0.0,0.0,0.0,0.0,0.0,0.0,0.0,0.0,0.0,0.0,5.7997,5.7997,5.8238,5.8332,5.8332,5.9284,5.9754,5.9754,6.0456,6.0781,6.0781,6.0781,6.0781,6.0781,6.0781,6.0781,6.0781,6.0781,6.0781,6.0781,6.0781,6.0647,6.0482,6.0482,6.0338,6.017,6.0561,0.0,0.0,0.0,0.0,0.0,0.0,0.0,6.5073,6.4554,6.448,6.4753,0.0,0.0,0.0,0.0,0.0,0.0,0.0,6.7981,6.8495,6.9302,6.9486,6.9853,7.1101,7.1615,7.2018,7.2422,7.2496,7.2496,7.2496,7.2496,7.2496,7.2496,7.2496,7.2496,7.2496,7.2496,7.2496,7.2496,7.2496,7.2496,7.2496,7.2092,7.1872,7.1872,7.1468,7.1468,7.1872,7.1872,7.2092,7.2496,7.2496,7.2496,7.2496,7.2496,7.2496,7.2496,7.2496,7.2496,7.2496,7.2496,7.2496,7.2496,7.2496,7.2496,7.2496,7.2496,7.2496,7.2496,0.0,0.0,0.0,0.0,0.0,0.0,0.0,0.0,0.0,0.0,0.0,0.0,0.0,0.0,0.0,0.0,0.0,0.0,0.0,0.0,0.0,5.7997,5.7997,5.7997,5.7997,5.8913,5.9389,5.9389,6.0491,6.1012,0.0,6.0858,6.0781,6.0781,6.0781,6.0781,6.0781,6.0734,6.0671,6.0647,6.0597,6.0387,6.0175,6.0175,6.0031,5.9917,6.0561,6.1111,6.1723,6.2745,0.0,0.0,0.0,0.0,6.4294,6.3766,6.4189,6.4874,0.0,0.0,0.0,0.0,0.0,0.0,0.0,6.8311,6.9119,6.9926,7.022,7.055,7.1358,7.2055,7.2496,7.2496,7.2496,7.2496,7.2496,7.2496,7.2496,7.2496,7.2496,7.2496,7.2496,7.2496,7.2496,7.2496,7.2496,7.2496,7.2496,7.2496,7.2496,7.2496,7.2496,7.2496,7.2496,7.2496,7.2496,7.2496,7.2343,7.2343,7.2496,7.2167,7.2226,7.2496,7.2496,7.2496,7.2496,7.2496,7.2496,7.2496,7.2496,7.2496,7.2496,7.2496,7.2496,7.2496,0.0,0.0,0.0,0.0,0.0,0.0,0.0,0.0,0.0,0.0,0.0,0.0,0.0,0.0,0.0,0.0,0.0,0.0,0.0,0.0,0.0,5.7997,5.7997,5.7997,5.7997,5.8913,5.9389,5.9389,6.1103,0.0,0.0,0.0,0.0,6.0781,6.0781,6.0781,6.0757,6.0365,6.0189,6.0161,5.976,5.998,6.0554,6.0554,6.0898,6.1504,6.158,6.1844,6.2279,6.2899,6.3347,0.0,0.0,0.0,6.4294,6.3766,6.4189,0.0,0.0,0.0,0.0,0.0,0.0,0.0,0.0,0.0,6.9119,0.0,7.066,7.1394,7.2202,7.2422,7.2496,7.2496,7.2496,7.2496,7.2496,7.2496,7.2496,7.2496,7.2496,7.2496,7.2496,7.2496,7.2496,7.2496,7.2496,7.2496,7.2496,7.2496,7.2496,7.2496,7.2496,7.2496,7.2496,7.2496,7.2496,7.2496,7.1671,7.1732,7.2438,7.0836,7.0966,7.2496,7.2496,7.2496,7.2496,7.2496,7.2496,7.2496,7.2496,7.2496,7.2496,7.2496,7.2496,7.2496,0.0,0.0,0.0,0.0,0.0,0.0,0.0,0.0,0.0,0.0,0.0,0.0,0.0,0.0,0.0,0.0,0.0,0.0,0.0,0.0,0.0,5.7997,5.7997,5.7997,5.7997,5.8673,5.9028,5.9028,0.0,0.0,0.0,6.1476,6.1544,0.0,0.0,6.1631,6.1355,6.1126,6.106,6.1027,6.0821,6.0792,6.09,6.09,6.0923,6.1081,6.1528,6.198,6.2439,6.2836,6.3208,6.3587,6.3505,0.0,0.0,0.0,6.4044,0.0,0.0,0.0,0.0,0.0,0.0,0.0,0.0,0.0,6.9669,7.0036,7.1101,7.2092,7.2422,7.2496,7.2496,7.2496,7.2496,7.2496,7.2496,7.2496,7.2496,7.2496,7.2496,7.2496,7.2496,7.2496,7.2496,7.2496,7.2496,7.2496,7.2496,7.2496,7.2496,7.2496,7.2496,7.2496,7.2496,7.2496,7.2226,7.1732,7.1286,7.1031,7.0901,7.0601,7.093,7.1732,7.1732,7.1732,7.1794,7.2285,7.2496,7.2496,7.2496,7.2496,7.2496,7.2496,7.2496,7.2496,0.0,0.0,0.0,0.0,0.0,0.0,0.0,0.0,0.0,0.0,0.0,0.0,0.0,0.0,0.0,0.0,0.0,0.0,0.0,0.0,0.0,5.7997,5.7997,5.7997,5.7997,5.8461,5.8788,0.0,0.0,0.0,6.1856,6.2249,6.2593,0.0,6.252,6.2159,6.1769,6.1657,6.1619,6.1619,6.1503,6.1371,6.1211,6.1211,6.1126,6.108,6.1704,6.2187,6.2546,6.2733,6.3062,6.3354,6.2953,6.2805,0.0,0.0,0.0,0.0,0.0,0.0,0.0,0.0,0.0,0.0,0.0,0.0,7.0146,0.0,7.1505,7.2496,7.2496,7.2496,7.2496,7.2496,7.2496,7.2496,7.2496,7.2496,7.2496,7.2496,7.2496,7.2496,7.2496,7.2496,7.2496,7.2496,7.2496,7.2496,7.2496,7.2496,7.2496,7.2496,7.2496,7.2496,7.2496,7.2496,7.2011,7.1095,7.0865,7.04,6.9708,6.9883,7.016,7.0364,7.0865,7.1095,7.1159,7.1854,7.2285,7.2496,7.2496,7.2496,7.2496,7.2496,7.2496,7.2496,0.0,0.0,0.0,0.0,0.0,0.0,0.0,0.0,0.0,0.0,0.0,0.0,5.7997,5.7997,5.7997,5.7997,5.7997,5.7997,5.7997,5.7997,5.7997,5.7997,5.7997,0.0,5.7997,5.8461,5.9086,0.0,0.0,0.0,6.3011,6.3842,6.4026,6.3494,6.2334,6.1843,6.1769,6.1304,6.1135,6.1092,6.0674,6.0956,6.1569,6.1569,6.2047,6.2695,6.2732,6.2732,6.2781,6.2805,6.2805,6.2855,6.2805,6.2805,6.2805,0.0,0.0,0.0,0.0,0.0,0.0,0.0,0.0,0.0,0.0,0.0,7.033,7.1101,7.1908,7.2496,7.2496,7.2496,7.2496,7.2496,7.2496,7.2496,7.2496,7.2496,7.2496,7.2496,7.2496,7.2496,7.2496,7.2496,7.2496,7.2496,7.2496,7.2496,7.2496,7.2496,7.2496,7.2496,7.2496,7.2496,7.2496,7.2496,7.2011,7.1095,7.0196,6.9778,6.9637,6.7822,6.7501,6.8496,7.0297,7.1095,7.1095,7.1159,7.1732,7.2496,7.2496,7.2496,7.2496,7.2496,7.2496,7.2496,0.0,0.0,0.0,0.0,0.0,0.0,0.0,0.0,0.0,0.0,0.0,0.0,0.0,5.7997,5.7997,5.7997,5.7997,5.7997,5.7997,5.7997,5.7997,5.7997,5.7997,5.7997,5.7997,5.8186,0.0,0.0,0.0,6.1539,6.2657,6.3133,6.3453,6.3593,6.3131,6.2742,6.2427,6.2234,6.2177,6.2177,6.2022,6.2108,6.2365,6.2365,6.2548,6.2805,6.2805,6.2805,6.2805,6.2805,6.2805,6.2805,6.2805,6.2805,6.3025,6.409,6.4824,0.0,0.0,0.0,0.0,0.0,0.0,0.0,0.0,6.9155,7.0183,7.0477,7.1578,7.2496,7.2496,7.2496,7.2496,7.2496,7.2496,7.2496,7.2496,7.2496,7.2496,7.2496,7.2496,7.2496,7.2496,7.2496,7.2496,7.2496,7.2496,7.2496,7.2496,7.2496,7.2496,7.2496,7.2496,7.2496,7.2496,7.1915,7.1159,7.0196,6.9241,6.8454,6.7822,6.7708,6.7582,6.7373,6.8648,6.9206,6.9351,7.0566,7.1286,7.1635,7.2285,7.2496,7.2496,7.2496,7.2496,7.2496,0.0,0.0,0.0,0.0,0.0,0.0,0.0,0.0,0.0,5.7997,0.0,0.0,0.0,0.0,5.7997,5.7997,5.7997,5.7997,5.7997,5.7997,5.7997,5.7997,5.7997,5.7997,5.7997,5.8253,5.8804,0.0,0.0,0.0,0.0,6.2708,6.2965,6.3317,6.3317,6.3121,0.0,0.0,6.2805,6.2805,6.2805,6.2805,6.2805,6.2805,6.2618,6.2376,6.2376,6.2219,6.2023,6.2324,6.2376,6.2427,6.2705,6.2805,6.3135,6.4824,6.5301,0.0,0.0,0.0,0.0,0.0,0.0,0.0,0.0,0.0,7.0183,7.044,7.1578,7.2496,7.2496,7.2496,7.2496,7.2496,7.2496,7.2496,7.2496,7.2496,7.2496,7.2496,7.2496,7.2496,7.2496,7.2496,7.2496,7.2496,7.2496,7.2496,7.2496,7.2496,7.2496,7.2496,7.2496,7.2343,7.2011,7.1448,7.0432,6.9168,6.8496,6.7708,6.6812,6.7454,6.7373,6.6812,6.742,6.7911,6.8343,6.9953,7.08,7.1223,7.213,7.2496,7.2496,7.2496,7.2496,7.2496,0.0,0.0,0.0,0.0,0.0,0.0,0.0,0.0,5.7997,5.7997,0.0,0.0,0.0,0.0,0.0,5.795,5.7997,5.7997,5.7997,5.7997,5.7997,5.7997,5.7997,5.7997,5.7997,5.8804,5.9612,0.0,0.0,0.0,0.0,0.0,6.2805,6.2805,6.2805,6.2805,6.2805,0.0,6.2805,6.2805,6.2755,6.2755,6.2755,6.2755,6.2271,6.1548,6.1548,6.1055,6.0519,6.1343,6.1604,6.1715,6.2515,6.2792,6.3172,6.4824,6.5338,0.0,0.0,0.0,0.0,0.0,0.0,0.0,6.8715,0.0,7.033,7.1138,7.1945,7.2496,7.2496,7.2496,7.2496,7.2496,7.2496,7.2496,7.2496,7.2496,7.2496,7.2496,7.2496,7.2496,7.2496,7.2496,7.2496,7.2496,7.2496,7.2496,7.2496,7.2496,7.2496,7.2496,7.2496,7.2071,7.1095,7.1095,7.0092,6.8189,6.8189,6.7708,6.6812,6.6812,6.6812,6.6812,6.6812,6.7291,6.8189,6.9241,7.0196,7.1195,7.2071,7.2532,7.2532,7.2496,7.2496,7.2496,0.0,0.0,0.0,0.0,0.0,0.0,5.7997,5.7997,5.7997,0.0,0.0,0.0,5.7166,5.6685,5.658,5.7166,5.7166,5.7449,5.795,5.7997,5.7997,5.7997,5.7997,5.7997,5.7997,5.8804,5.9612,0.0,0.0,6.1998,6.2805,6.2805,6.2805,0.0,6.2805,6.2805,6.2805,6.2805,0.0,6.2755,6.2166,6.1969,6.186,6.1322,6.0938,6.07,6.07,6.058,6.0519,6.1343,6.1229,6.0879,6.1659,6.2761,6.3943,6.5007,6.5705,0.0,6.7393,0.0,0.0,0.0,0.0,0.0,6.8715,0.0,7.033,7.1138,7.1945,7.2496,7.2496,7.2496,7.2496,7.2496,7.2496,7.2496,7.2496,7.2496,7.2496,7.2496,7.2496,7.2496,7.2496,7.2496,7.2496,7.2496,7.2496,7.2496,7.2496,7.2496,7.2496,7.2496,7.2496,7.2071,7.1095,7.0468,6.9458,6.8189,6.7501,6.6995,6.6812,6.6812,6.6812,6.6812,6.6812,6.6946,6.7209,6.8223,6.9558,7.0945,7.1376,7.2279,7.3303,7.2716,7.2496,7.2496,0.0,0.0,0.0,0.0,0.0,0.0,5.7997,5.7997,5.7904,0.0,0.0,0.0,5.6421,5.5948,5.5893,5.6367,5.6367,5.658,5.7029,5.7315,5.7546,5.7546,5.7821,5.7997,5.7997,5.9134,5.9942,6.0419,6.1557,6.2365,6.2805,6.2805,6.2805,6.2805,0.0,0.0,0.0,0.0,0.0,6.2755,6.1915,6.1604,6.1548,6.07,6.0149,5.9832,5.9832,5.9639,5.9478,6.03,6.0974,6.1497,6.196,6.3221,6.4751,6.5558,6.6145,0.0,0.0,0.0,0.0,6.7687,0.0,0.0,6.8274,6.9265,7.022,7.0697,7.1725,7.2496,7.2496,7.2496,7.2496,7.2496,7.2496,7.2496,7.2496,7.2496,7.2496,7.2496,7.2496,7.2496,7.2496,7.2496,7.2496,7.2496,7.2496,7.2496,7.2496,7.2496,7.2496,7.2496,7.213,7.1448,7.0535,6.953,6.8607,6.7582,6.7078,6.6812,6.6812,6.6812,6.6812,6.6812,6.6812,6.6812,6.6812,6.7373,6.8698,7.0487,7.1273,7.2216,7.312,7.2679,7.2496,7.2496,0.0,0.0,0.0,0.0,0.0,0.0,5.7904,5.7821,5.7498,0.0,5.6668,5.6313,5.5552,5.5437,5.5495,5.561,5.561,5.561,5.5688,5.6421,5.6912,5.6912,5.7631,5.7997,5.7997,5.9575,6.0419,6.0419,6.2034,6.2805,6.2805,6.2805,6.2805,6.2805,0.0,0.0,0.0,0.0,0.0,6.2567,6.177,6.1492,6.1343,6.0458,5.9639,5.9011,5.9011,5.8494,5.8027,5.8841,6.0713,6.2681,6.2637,6.3892,6.5453,6.615,6.6496,0.0,0.0,6.7687,6.7687,6.7687,6.7687,0.0,6.7797,6.9009,7.011,7.022,7.1431,7.2496,7.2496,7.2496,7.2496,7.2496,7.2496,7.2496,7.2496,7.2496,7.2496,7.2496,7.2496,7.2496,7.2496,7.2496,7.2496,7.2496,7.2496,7.2496,7.2496,7.2496,7.2496,7.2496,7.1573,7.0668,6.9708,6.8723,6.7708,6.6812,6.6812,6.6812,6.6812,6.6812,6.6812,6.6812,6.6812,6.6812,6.6812,6.6914,6.8083,6.9956,7.1426,7.22,7.2606,7.2532,7.2496,7.2496,5.7997,0.0,0.0,0.0,0.0,0.0,5.7116,5.658,5.6114,5.5948,5.5379,5.4791,5.4011,5.3946,5.4171,5.4757,5.4818,5.5084,5.5667,5.6421,5.6912,5.6912,5.7631,5.7997,5.7997,5.9575,6.0419,6.0419,6.2034,6.2805,6.2805,6.2805,6.2805,6.2805,0.0,0.0,0.0,0.0,0.0,6.177,6.0938,6.064,6.0458,5.8943,5.828,5.8137,5.8137,5.7993,5.7983,5.8778,6.0218,6.1698,6.166,6.3271,6.5192,6.5337,6.6408,6.7504,6.765,6.7687,6.7687,6.7687,6.7687,0.0,6.8531,6.9412,7.0293,7.0954,7.1835,7.2496,7.2496,7.2496,7.2496,7.2496,7.2496,7.2496,7.2496,7.2496,7.2496,7.2496,7.2496,7.2496,7.2496,7.2496,7.2496,7.2496,7.2496,7.2496,7.2496,7.2496,7.2496,7.2496,7.1573,7.0668,6.9708,6.8723,6.7708,6.6812,6.6812,6.6812,6.6812,6.6812,6.6812,6.6812,6.6812,6.6812,6.688,6.7455,6.8842,7.0629,7.031,7.1536,7.3377,7.2753,7.2496,7.2496,5.7997,0.0,0.0,0.0,0.0,0.0,5.6313,5.5948,5.5552,5.5203,5.4482,5.3881,5.3551,5.3518,5.3685,5.3977,5.4042,5.4235,5.4544,5.5297,5.5928,5.6313,5.7065,5.7631,5.7997,5.9575,6.0419,6.0419,6.2034,6.2805,6.2805,6.2805,6.2567,6.2219,6.2618,0.0,0.0,0.0,6.2324,6.1548,6.07,6.0149,5.9639,5.8388,5.7881,5.7881,5.7881,5.8118,5.8558,5.9302,6.0662,6.2083,6.2023,6.3401,6.5135,6.5599,6.6374,6.7174,6.7542,6.7687,6.7687,6.7687,6.7687,0.0,0.0,6.8935,6.9743,7.055,7.1358,7.2018,7.2422,7.2496,7.2496,7.2496,7.2496,7.2496,7.2496,7.2496,7.2496,7.2496,7.2496,7.2496,7.2496,7.2496,7.2496,7.2496,7.2496,7.2496,7.2496,7.2496,7.2496,7.2496,7.1159,7.0196,6.9708,6.8223,6.7291,6.6812,6.6812,6.6812,6.6812,6.6812,6.6812,6.6812,6.6812,6.6812,6.6846,6.7218,6.8532,7.0274,7.0274,7.1411,7.3046,7.2642,7.2496,7.2496,5.7546,0.0,0.0,0.0,0.0,0.0,0.0,5.5379,5.5059,5.4482,5.3881,5.3518,5.3518,5.3518,5.3518,5.3518,5.3518,5.3518,5.3518,5.42,5.4878,5.5495,5.6259,5.7015,5.7774,5.9347,6.0237,6.0419,6.2034,6.2805,6.2805,6.2805,6.2464,6.1824,6.2324,0.0,0.0,0.0,0.0,6.1055,6.0397,5.9704,5.8976,5.8209,5.7881,5.7915,5.8051,5.8592,5.9336,6.008,6.1183,6.2396,6.2568,6.359,6.4933,6.5842,6.6247,6.6582,6.7488,6.7687,6.7687,6.7687,6.7687,6.7687,0.0,0.0,0.0,6.9743,7.0624,7.1505,7.2165,7.2422,7.2459,7.2312,7.2422,7.2459,7.2312,7.2422,7.2496,7.2496,7.2496,7.2496,7.2496,7.2496,7.2496,7.2496,7.2496,7.2496,7.2496,7.2343,7.2226,7.2226,7.04,6.9386,6.9386,6.7662,6.6812,6.6812,6.6812,6.6812,6.6812,6.6812,6.6812,6.6812,6.6812,6.6812,6.6812,6.6812,6.798,6.9743,7.038,7.1375,7.2496,7.2496,7.2496,7.2496,5.5948,5.5893,0.0,0.0,0.0,0.0,0.0,5.4171,0.0,0.0,0.0,5.3518,5.3518,5.3518,5.3518,5.3518,5.3518,5.3518,5.3518,5.42,5.4668,5.4695,5.5437,5.6204,5.7015,5.8621,5.9765,6.0419,6.2034,6.2805,6.2805,6.2805,6.2755,6.2618,6.2023,0.0,0.0,0.0,6.0211,0.0,5.9311,5.9178,5.8976,5.8209,5.7881,5.7983,5.866,5.937,6.0114,6.0892,6.1308,6.152,6.2198,6.3056,6.4042,6.4866,6.5779,6.6582,6.7488,6.7687,6.7687,6.7687,6.7687,6.7687,6.7687,0.0,6.8935,6.9009,0.0,7.1358,7.1431,0.0,0.0,7.1578,7.2055,7.2275,7.1541,7.2055,7.2496,7.2496,7.2496,7.2496,7.2496,7.2496,7.2496,7.2496,7.2496,7.2496,7.2496,7.1732,7.1286,7.1286,6.9351,6.8343,6.8343,6.7291,6.6812,6.6812,6.6812,6.6812,6.6812,6.6812,6.6812,6.6812,6.6812,6.6812,6.6812,6.6812,6.798,6.9708,6.9778,7.0907,7.2496,7.2496,7.2496,7.2496,5.561,5.5379,0.0,0.0,0.0,0.0,0.0,5.3717,0.0,0.0,0.0,5.3518,5.3518,5.3518,5.3518,5.3518,5.3518,5.3518,5.3518,5.3783,5.4171,5.4606,5.532,5.6273,5.7562,5.9132,6.0322,6.108,6.2254,6.2805,6.2805,6.2805,6.2567,6.2076,6.177,0.0,6.0879,0.0,6.0177,0.0,5.9284,5.9082,5.9003,5.8162,5.8152,5.8693,5.9911,6.052,6.0926,6.167,6.1941,6.1975,6.2279,6.2659,6.324,6.4597,6.5261,6.5904,6.7341,6.7341,6.7061,6.7542,6.7286,6.7117,6.7542,6.7944,6.8348,6.8788,0.0,0.0,0.0,0.0,0.0,0.0,7.1982,7.2386,7.2055,7.2312,7.2496,7.2496,7.2496,7.2496,7.2496,7.2496,7.2496,7.2496,7.2496,7.2285,7.1732,7.1286,7.0865,7.0332,6.8947,6.8189,6.8189,6.7291,6.6812,6.6812,6.6812,6.6812,6.6812,6.6812,6.6812,6.6812,6.6812,6.6812,6.6812,6.6812,6.798,6.9708,6.9708,7.0836,7.2496,7.2496,7.2496,7.2496,5.4999,0.0,0.0,0.0,0.0,0.0,0.0,5.3518,5.3518,5.3518,5.3518,5.3518,5.3518,5.3518,5.3518,5.3518,5.3518,5.3518,5.3518,5.3518,5.3819,5.4574,5.5131,5.6106,5.7723,5.9256,6.0486,6.1259,6.2302,6.2805,6.2805,6.2805,6.2515,6.1915,0.0,6.0938,6.0335,0.0,5.9659,5.9633,5.8978,5.8832,5.8964,5.8423,5.8795,5.9776,6.0892,6.1434,6.167,6.2212,6.2381,6.2381,6.2381,6.2381,6.2736,6.4218,6.4665,6.4999,6.6816,6.6852,6.6582,6.7488,6.723,6.691,6.7542,6.7687,6.7871,6.8458,6.8752,0.0,0.0,0.0,7.0917,7.0697,0.0,7.1762,7.1541,7.1908,7.2275,7.2459,7.2496,7.2496,7.2496,7.2496,7.2496,7.2496,7.2496,7.2071,7.1159,7.0865,7.0297,6.9314,6.8301,6.7787,6.7787,6.7161,6.6812,6.6812,6.6812,6.6812,6.6812,6.6812,6.6812,6.6812,6.6812,6.6812,6.6812,6.6812,6.798,6.9708,6.9708,7.0836,7.2496,7.2496,7.2496,7.2496,5.3551,5.3551,0.0,0.0,0.0,0.0,5.3518,5.3518,5.3518,5.3518,5.3518,5.3518,5.3518,5.3518,5.3518,5.3518,5.3518,5.3518,5.3518,5.3518,5.3822,5.4601,5.4601,5.5314,5.6789,5.8501,5.9701,6.0449,6.2011,0.0,0.0,6.2805,6.2805,6.2705,6.1113,6.0397,6.0273,5.8633,5.7954,5.7988,5.7954,5.8321,5.9032,5.8998,5.9911,6.1231,6.1298,6.1772,6.2347,6.2381,6.2381,6.2381,6.2381,6.2381,6.2581,6.3462,6.3719,6.4113,6.594,6.6404,6.6582,6.7488,6.7687,6.7687,6.7687,6.7687,6.7687,6.7724,6.8348,6.8898,6.8935,6.9596,6.9889,6.9119,6.9633,0.0,0.0,7.0367,7.1651,7.2422,7.2496,7.2496,7.2496,7.2496,7.2496,7.2496,7.2496,7.2071,7.1159,7.0264,6.9314,6.8266,6.7373,6.6812,6.6812,6.6812,6.6812,6.6812,6.6812,6.6812,6.6812,6.6812,6.6812,6.6812,6.6812,6.6812,6.6812,6.6812,6.798,6.9708,6.9708,7.0836,7.2496,7.2496,7.2496,7.2496,0.0,0.0,0.0,0.0,0.0,5.3518,5.3518,5.3518,5.3518,5.3518,5.3518,5.3518,5.3518,5.3518,5.3518,5.3518,5.3518,5.3721,5.4194,5.3788,5.4059,5.5277,5.5313,5.605,5.7586,5.8659,5.9893,6.1207,6.1716,0.0,0.0,0.0,6.2515,6.1969,6.0879,6.0086,0.0,0.0,0.0,5.8693,5.9167,5.981,6.052,6.052,6.0858,6.1366,6.1839,6.2178,6.2381,6.2381,6.2381,6.2381,6.2381,6.2381,6.2581,6.3462,6.3719,6.3971,6.5166,6.5035,6.4835,6.5681,6.593,6.6089,6.67,6.7286,6.7687,6.7687,6.7907,6.8091,6.8091,6.8752,6.9229,6.8935,6.9596,7.0,0.0,7.0146,7.0807,7.1615,7.2202,7.2496,7.2496,7.2496,7.2496,7.2496,7.2496,7.2071,7.1159,7.0196,6.9241,6.8189,6.7291,6.6812,6.6812,6.6812,6.6812,6.6812,6.6812,6.6812,6.6812,6.6812,6.6812,6.6812,6.6812,6.6812,6.6896,6.742,6.8531,6.9778,7.04,7.1386,7.2496,7.2496,7.2496,7.2496,5.3518,0.0,0.0,0.0,5.3518,5.3518,5.3518,5.3518,5.3518,5.3518,5.3518,5.3518,5.3518,5.3518,5.3619,5.3856,5.389,5.4194,5.4938,5.4566,5.4837,5.6055,5.6099,5.6642,5.7947,5.8776,5.9682,6.0725,6.1055,6.1436,0.0,0.0,0.0,6.1113,0.0,5.9639,5.9044,5.8246,5.8321,5.9099,6.0114,6.0858,6.1332,6.1603,6.167,6.1738,6.2212,6.2381,6.2381,6.2381,6.2381,6.2381,6.2381,6.2381,6.2537,6.3049,6.3274,6.3462,6.4288,6.4113,6.39,6.4799,6.4999,6.5131,6.5779,6.6368,6.6758,6.6758,6.6758,6.6758,6.6758,6.7461,6.7996,6.7996,6.8696,6.9339,0.0,6.9669,6.9963,7.0807,7.1578,7.2202,7.2459,7.2226,7.213,7.2496,7.2226,7.1573,7.0668,7.0058,6.913,6.7708,6.7078,6.6812,6.6812,6.6812,6.6812,6.6812,6.6812,6.6812,6.6812,6.6812,6.6812,6.6812,6.6812,6.7029,6.7373,6.7911,6.9021,7.0264,7.0865,7.1635,7.2496,7.2496,7.2496,7.2496,0.0,5.3551,5.3551,5.3551,5.3518,5.3518,5.3551,5.3551,5.3585,5.3619,5.3619,5.3619,5.3619,5.3619,5.389,5.4566,5.4634,5.4972,5.5716,5.575,5.6055,5.6833,5.6833,5.7137,5.7881,5.8633,5.9044,5.9111,5.996,6.0335,0.0,0.0,0.0,0.0,5.9443,0.0,5.8976,5.8174,5.8355,5.9201,6.0689,6.1332,6.1434,6.211,6.2381,6.2381,6.2381,6.2381,6.2381,6.2381,6.2381,6.2381,6.2381,6.2381,6.2381,6.2381,6.2381,6.2581,6.3388,6.3647,6.3829,6.4665,6.4933,6.4933,6.4933,6.4999,6.4999,6.4999,6.4999,6.4999,6.5065,6.5779,6.6404,6.6464,6.7174,6.7944,6.8752,6.8862,6.9155,6.9963,7.0677,7.1521,7.2386,7.1635,7.1448,7.2343,7.1573,7.0668,6.9778,6.9637,6.8758,6.6946,6.6812,6.6812,6.6812,6.6812,6.6812,6.6812,6.6812,6.6812,6.6812,6.6812,6.6812,6.6812,6.6812,6.7291,6.8189,6.8266,6.9423,7.1095,7.1159,7.1732,7.2496,7.2496,7.2496,7.2496,5.3518,5.3923,5.4329,5.4329,5.3856,5.3687,5.4228,5.4329,5.4499,5.5074,5.5141,5.5141,5.5141,5.5141,5.5209,5.5412,5.5446,5.575,5.6461,5.6021,5.6292,5.7543,5.7103,5.7137,5.7881,5.8065,5.8494,5.9111,5.9311,5.9768,6.0397,0.0,0.0,0.0,0.0,0.0,5.8209,5.8027,5.8626,5.9911,6.0892,6.1637,6.2144,6.2313,6.2381,6.2381,6.2381,6.2381,6.2381,6.2381,6.2381,6.2381,6.2381,6.2381,6.2381,6.2381,6.2381,6.2459,6.2659,6.2702,6.2779,6.2973,6.3574,6.4042,6.4042,6.4529,6.4999,6.4999,6.4999,6.5196,6.5904,6.6247,6.6582,6.723,6.7542,6.776,6.7981,6.8017,6.8311,6.9119,6.9304,6.9986,7.1484,7.1308,7.1223,7.1448,7.0601,6.9989,6.9708,6.9021,6.8378,6.7866,6.7161,6.6812,6.6812,6.6812,6.6812,6.6812,6.6812,6.6812,6.6812,6.6812,6.6812,6.6812,6.6812,6.7291,6.8266,6.9021,7.0022,7.1159,7.1854,7.2285,7.2496,7.2496,7.2496,7.2496,5.3991,5.4566,5.5074,5.5074,5.4354,5.387,5.4272,5.476,5.5069,5.4979,5.54,5.5716,5.5716,5.5716,5.5852,5.6156,5.619,5.6494,5.7239,5.69,5.7036,5.7848,5.7476,5.7476,5.7881,5.7881,5.8137,5.8564,5.8564,5.8841,5.9279,0.0,0.0,0.0,0.0,5.8487,5.8423,5.9099,5.9877,6.0689,6.1467,6.2009,0.0,6.2381,6.2381,6.2381,6.2381,6.2381,6.2381,6.2381,6.2381,6.2381,6.2381,6.2381,6.2381,6.2381,6.2381,6.2381,6.2381,6.2381,6.2381,6.2381,6.2779,6.3124,6.3124,6.3501,6.39,6.39,6.39,6.4042,6.453,6.5232,6.6247,6.7488,6.7687,6.7687,6.7687,6.7687,6.7871,6.8311,6.8617,6.9304,7.0641,7.0217,7.04,7.1635,7.0468,6.9708,6.9708,6.9168,6.8454,6.7662,6.7112,6.6812,6.6812,6.6812,6.6812,6.6812,6.6812,6.6812,6.6812,6.6812,6.6812,6.6812,6.6812,6.7582,6.8873,6.9493,7.0468,7.1794,7.2285,7.2496,7.2496,7.2496,7.2496,7.2496,5.4735,5.5344,5.5852,5.5852,5.5029,5.4251,5.4251,5.4922,5.5174,5.4585,5.5241,5.5845,5.5987,5.6021,5.6258,5.69,5.6934,5.7205,5.7848,5.7881,5.7881,5.7881,5.7881,5.7881,5.7881,5.7881,5.7881,5.7881,5.7881,5.7881,0.0,0.0,0.0,0.0,0.0,0.0,0.0,6.0689,6.1298,6.1366,6.211,6.2381,6.2381,6.2381,6.2381,6.2381,6.2381,6.2381,6.2381,6.2381,6.2381,6.2381,6.2381,6.2381,6.2381,6.2381,6.2381,6.2381,6.2381,6.2381,6.2381,6.2381,6.2381,6.2381,6.2381,6.2381,6.2381,6.2381,6.2381,6.2459,6.2503,6.39,6.5518,6.7081,6.7341,6.7341,6.7341,6.7341,6.7396,6.7488,6.8128,0.0,6.9853,6.9023,6.9566,7.213,7.0668,6.9637,6.9458,6.9458,6.8682,6.6896,6.6812,6.6812,6.6812,6.6812,6.6812,6.6812,6.6812,6.688,6.6948,6.6948,6.7015,6.7117,6.7117,6.8131,6.9776,6.967,7.0709,7.2285,7.2285,7.238,7.2496,7.2496,7.2496,7.2496,5.5513,5.6122,5.6596,5.6596,5.6196,5.5809,5.5809,5.4691,5.4718,5.6902,5.6563,5.6487,5.7403,5.7509,5.7577,5.7679,5.7712,5.7746,5.7881,5.7881,5.7881,5.7881,5.7881,5.7881,5.7881,5.7881,5.7881,5.7881,5.7881,5.7881,0.0,0.0,0.0,0.0,0.0,0.0,5.9979,6.0892,6.1298,6.1366,6.211,6.2381,6.2381,6.2381,6.2381,6.2381,6.2381,6.2381,6.2381,6.2381,6.2381,6.2381,6.2381,6.2381,6.2381,6.2381,6.2381,6.2381,6.2381,6.2381,6.2381,6.2381,6.2381,6.2381,6.2381,6.2381,6.2381,6.2381,6.2381,6.2581,6.3314,6.4288,6.5131,6.539,6.5454,6.5454,6.5454,6.5454,6.5743,6.6523,6.6585,6.7249,6.8972,6.9405,7.0116,7.125,7.0332,6.9314,6.8496,6.8496,6.7945,6.6812,6.6812,6.6812,6.6812,6.6812,6.6812,6.6812,6.6812,6.7117,6.7692,6.7692,6.8064,6.8707,6.8707,6.937,7.0297,6.9706,7.0202,7.135,7.135,7.1794,7.2496,7.2496,7.2496,7.2496,5.6765,5.7137,5.7195,5.6612,5.5895,5.5377,5.5377,5.3629,5.3449,5.6591,5.6547,5.6624,5.7808,5.7372,5.7297,5.7881,5.7881,5.7881,5.7881,5.7881,5.7881,5.7881,5.7881,5.7881,5.7881,5.7881,5.7881,5.7881,5.7881,5.7881,5.7915,5.8287,0.0,0.0,0.0,6.0385,0.0,6.1535,6.1873,6.1907,6.2245,6.2381,6.2381,6.2381,6.2381,6.2381,6.2381,6.2381,6.2381,6.2381,6.2381,6.2381,6.2381,6.2381,6.2381,6.2381,6.2381,6.2381,6.2381,6.2381,6.2381,6.2381,6.2381,6.2381,6.2381,6.2381,6.2381,6.2381,6.2381,6.2659,6.3501,6.4042,6.4495,6.4933,6.4999,6.4999,6.4999,6.4999,6.5131,6.5617,6.5617,6.6268,6.8037,6.8887,6.9652,7.041,7.0015,6.9241,6.8266,6.8189,6.7787,6.6812,6.6812,6.6812,6.6812,6.6812,6.6812,6.6812,6.7184,6.7557,6.7895,6.8335,6.8741,6.9113,6.9113,6.9612,7.051,7.0678,7.1011,7.1475,7.1083,7.1477,7.2314,7.1939,7.2071,7.2496,5.7453,5.7554,5.7222,5.6047,5.497,5.4337,5.4589,5.29,5.2634,5.5458,5.5889,5.6282,5.7372,5.6963,5.6963,5.7808,5.7881,5.7881,5.7881,5.7881,5.7881,5.7881,5.7881,5.7881,5.7881,5.7881,5.7983,5.8118,5.8118,5.8186,5.8355,5.8964,5.9336,5.9539,6.0757,6.14,6.1569,6.2144,6.2381,6.2381,6.2381,6.2381,6.2381,6.2381,6.2381,6.2381,6.2381,6.2381,6.2381,6.2381,6.2381,6.2381,6.2381,6.2381,6.2381,6.2381,6.2381,6.2381,6.2381,6.2381,6.2381,6.2381,6.2381,6.2381,6.2381,6.2381,6.2381,6.2381,6.2381,6.2581,6.3314,6.3462,6.3647,6.4357,6.4495,6.4495,6.4495,6.4495,6.4529,6.4665,6.4732,6.5384,6.7141,6.8218,6.9012,6.9577,6.98,6.953,6.8572,6.8343,6.7787,6.6812,6.6812,6.6812,6.6812,6.6812,6.6812,6.6812,6.7557,6.7996,6.8166,6.8977,6.9417,6.9586,6.9586,6.9902,7.0498,7.1229,7.1552,7.1568,7.0969,7.1304,7.2099,7.1752,7.2081,7.2738,5.6514,5.636,5.6047,5.492,5.3828,5.3396,5.4421,5.3569,5.3253,5.4589,5.4755,5.5166,5.6204,5.7222,5.7808,5.7881,5.7881,5.7881,5.7881,5.7881,5.7881,5.7881,5.7881,5.7881,5.7881,5.7881,5.822,5.8896,5.8896,5.9235,5.9911,5.9945,6.0385,6.1095,6.1231,6.167,6.2279,6.2347,6.2381,6.2381,6.2381,6.2381,6.2381,6.2381,6.2381,6.2381,6.2381,6.2381,6.2381,6.2381,6.2381,6.2381,6.2381,6.2381,6.2381,6.2381,6.2381,6.2381,6.2381,6.2381,6.2381,6.2381,6.2381,6.2381,6.2381,6.2381,6.2381,6.2381,6.2381,6.2381,6.2537,6.2537,6.2503,6.2659,6.2659,6.2659,6.2659,6.2659,6.2931,6.3719,6.3829,6.4463,6.6097,6.7805,6.8722,6.8676,7.0069,7.0535,6.9637,6.8723,6.7787,6.6812,6.6812,6.6812,6.6812,6.6812,6.6812,6.6812,6.7557,6.8267,6.9011,6.9755,7.0466,7.1109,7.1109,7.0792,7.0236,7.0289,7.0496,7.059,7.0521,7.1077,7.2048,7.2889,7.3224,7.3458,5.5329,5.5215,5.4888,5.3742,5.3253,5.2812,5.2575,5.2154,5.2458,5.4047,5.4422,5.5247,5.7039,5.7039,5.7147,5.7808,5.7881,5.8084,5.8524,5.8558,5.8761,5.9201,5.9201,5.9201,5.9201,5.9201,5.937,5.9674,5.9674,5.981,6.0114,6.0588,6.1231,6.1941,6.1941,6.211,6.2381,6.2381,6.2381,6.2381,6.2381,6.2381,6.2381,6.2381,6.2381,6.2381,6.2381,6.2381,6.2381,6.2381,6.2381,6.2381,6.2381,6.2381,6.2381,6.2381,6.2381,6.2381,6.2381,6.2381,6.2381,6.2381,6.2381,6.2381,6.2381,6.2381,6.2381,6.2381,6.2381,6.2381,6.2381,6.2381,6.2381,6.2381,6.2381,6.2381,6.2381,6.2381,6.2537,6.2855,6.3341,6.4064,6.5194,6.6813,6.8185,6.9251,7.0433,7.0432,6.8873,6.842,6.7787,6.6812,6.6812,6.6812,6.6812,6.6812,6.7015,6.7489,6.8267,6.9011,6.9789,7.0534,7.1041,7.1312,7.1312,7.1142,7.0872,7.0872,7.09,7.096,7.0516,7.0946,7.1691,7.1663,7.2009,7.2584,5.4168,5.4084,5.3805,5.2821,5.2702,5.2521,5.1832,5.1798,5.2389,5.4049,5.448,5.5532,5.7783,5.7597,5.7673,5.845,5.8524,5.8761,5.9302,5.9336,5.9573,6.008,6.0114,6.0114,6.0114,6.0114,6.0216,6.0452,6.0452,6.0554,6.0791,6.1366,6.1907,6.2381,6.2381,6.2381,6.2381,6.2381,6.2381,6.2381,6.2381,6.2381,6.2381,6.2381,6.2381,6.2381,6.2381,6.2381,6.2381,6.2381,6.2381,6.2381,6.2381,6.2381,6.2381,6.2381,6.2381,6.2381,6.2381,6.2381,6.2381,6.2381,6.2381,6.2381,6.2381,6.2381,6.2381,6.2381,6.2381,6.2381,6.2381,6.2381,6.2381,6.2381,6.2381,6.2482,6.2685,6.2719,6.2787,6.3024,6.3497,6.4189,6.4992,6.6339,6.7749,6.9305,7.0212,7.0092,6.8723,6.8068,6.7501,6.6812,6.6812,6.6812,6.6812,6.6812,6.7184,6.7895,6.8707,6.9485,7.0229,7.0973,7.1312,7.1312,7.1312,7.1312,7.1312,7.1312,7.1312,7.1278,7.0737,7.0905,7.1503,7.1248,7.1568,7.2232,5.3165,5.29,5.279,5.2322,5.2187,5.2396,5.3054,5.3144,5.3627,5.47,5.4885,5.5821,5.8216,5.9399,6.008,6.008,6.008,6.008,6.008,6.008,6.008,6.0114,6.0114,6.0114,6.0114,6.0114,6.0486,6.1298,6.1298,6.167,6.2347,6.2381,6.2381,6.2381,6.2381,6.2381,6.2381,6.2381,6.2381,6.2381,6.2381,6.2381,6.2381,6.2381,6.2381,6.2381,6.2381,6.2381,6.2381,6.2381,6.2381,6.2381,6.2381,6.2381,6.2381,6.2381,6.2381,6.2381,6.2381,6.2381,6.2381,6.2381,6.2381,6.2381,6.2381,6.2381,6.2381,6.2381,6.2381,6.2381,6.2381,6.2381,6.2381,6.2381,6.2381,6.2651,6.3396,6.3497,6.3768,6.4478,6.458,6.4884,6.5595,6.6495,6.7392,6.8119,6.9168,6.9708,6.9708,6.7822,6.6812,6.6812,6.6812,6.6812,6.6812,6.6812,6.7184,6.7895,6.8707,6.9485,7.0229,7.0973,7.1312,7.1312,7.1312,7.1312,7.1312,7.1312,7.1312,7.1312,7.1312,7.1312,7.1457,7.2414,7.2762,7.2927,5.2395,5.2392,5.251,5.2852,5.2875,5.2935,5.3144,5.3174,5.4036,5.6541,5.6873,5.7946,6.0826,5.9764,5.9243,6.0005,6.0114,6.0317,6.0892,6.0926,6.1129,6.1637,6.167,6.167,6.167,6.167,6.1772,6.2042,6.2042,6.2144,6.2381,6.2381,6.2381,6.2381,6.2381,6.2381,6.2381,6.2381,6.2381,6.2381,6.2381,6.2381,6.2381,6.2381,6.2381,6.2381,6.2381,6.2381,6.2381,6.2381,6.2381,6.2381,6.2381,6.2381,6.2381,6.2381,6.2381,6.2381,6.2381,6.2381,6.2381,6.2381,6.2381,6.2516,6.3057,6.3531,6.3903,6.3903,6.3903,6.3903,6.3903,6.3903,6.3903,6.3903,6.3903,6.3971,6.4241,6.4241,6.4343,6.458,6.5019,6.5425,6.5662,6.6432,6.7261,6.8111,6.7866,6.8024,6.8648,6.8068,6.742,6.6812,6.6812,6.6812,6.6812,6.732,6.7929,6.8741,6.9485,7.0229,7.0973,7.121,7.1312,7.1312,7.1312,7.1312,7.1312,7.1312,7.1312,7.1312,7.1312,7.1312,7.1312,7.1688,7.1742,7.183,5.2426,5.2576,5.2785,5.3443,5.3563,5.3653,5.3892,5.3922,5.4601,5.656,5.6777,5.7761,6.0096,5.8885,5.8671,6.0772,6.096,6.1163,6.167,6.1704,6.1907,6.2381,6.2381,6.2381,6.2381,6.2381,6.2381,6.2381,6.2381,6.2381,6.2381,6.2381,6.2381,6.2381,6.2381,6.2381,6.2381,6.2381,6.2381,6.2381,6.2381,6.2381,6.2381,6.2381,6.2381,6.2381,6.2381,6.2381,6.2415,6.2719,6.2821,6.2854,6.3125,6.3226,6.3125,6.255,6.2381,6.2448,6.2753,6.2821,6.2888,6.3159,6.3226,6.3328,6.3802,6.4275,6.4613,6.4613,6.4613,6.4613,6.4613,6.4613,6.4613,6.4613,6.4613,6.4681,6.4952,6.5019,6.5121,6.5392,6.5831,6.6102,6.6102,6.6542,6.7029,6.7662,6.7161,6.7112,6.7628,6.7628,6.7454,6.6812,6.6812,6.6812,6.6812,6.7523,6.8301,6.9113,7.0128,7.0872,7.1312,7.1312,7.1312,7.1312,7.1312,7.1312,7.1312,7.1312,7.1312,7.1312,7.1312,7.1312,7.1312,7.1312,7.1312,7.1312,5.3114,5.3264,5.3473,5.4162,5.4281,5.4491,5.5089,5.5179,5.5179,5.528,5.528,5.5819,5.6991,5.715,5.851,6.1837,6.211,6.211,6.211,6.211,6.211,6.211,6.211,6.2189,6.2302,6.2302,6.2302,6.2381,6.2381,6.2381,6.2381,6.2381,6.2381,6.2381,6.2381,6.2381,6.2381,6.2381,6.2381,6.2381,6.2448,6.2482,6.2482,6.2516,6.255,6.255,6.255,6.255,6.2651,6.3362,6.3599,6.37,6.4377,6.4613,6.4343,6.2956,6.255,6.2685,6.3396,6.3599,6.3768,6.4444,6.4647,6.4681,6.4681,6.4715,6.4749,6.4749,6.4749,6.4749,6.4749,6.4749,6.4749,6.4749,6.4749,6.4986,6.5662,6.5764,6.6034,6.6745,6.6812,6.6812,6.6812,6.6812,6.6812,6.6812,6.6812,6.6812,6.6812,6.6812,6.6812,6.6812,6.6812,6.6846,6.688,6.7624,6.8402,6.9282,7.0635,7.1312,7.1312,7.1312,7.1312,7.1312,7.1312,7.1312,7.1312,7.1312,7.1312,7.1312,7.1312,7.1312,7.1312,7.1312,7.1312,7.1312,5.3832,5.3952,5.4162,5.485,5.497,5.4999,5.5179,5.5179,5.5551,5.6445,5.6541,5.6991,5.8268,5.836,5.8722,5.961,5.961,5.961,5.961,5.961,5.961,5.961,5.961,6.0075,6.1036,6.1036,6.148,6.2381,6.2381,6.2381,6.2381,6.2381,6.2381,6.2381,6.2381,6.2381,6.2381,6.2381,6.2381,6.2448,6.3024,6.326,6.3294,6.3869,6.4072,6.4072,6.4072,6.4072,6.4106,6.4275,6.4343,6.4377,6.4546,6.4613,6.4546,6.4174,6.4072,6.4106,6.4309,6.4343,6.4377,6.4546,6.5019,6.5425,6.5425,6.5865,6.6305,6.6305,6.6305,6.6305,6.6305,6.6305,6.6305,6.6305,6.6305,6.6339,6.6542,6.6542,6.6609,6.6779,6.6812,6.6812,6.6812,6.6812,6.6812,6.6812,6.6812,6.6812,6.6812,6.6812,6.6812,6.6812,6.6812,6.7083,6.7624,6.8436,6.9485,7.0804,7.1142,7.1312,7.1312,7.1312,7.1312,7.1312,7.1312,7.1312,7.1312,7.1312,7.1312,7.1312,7.1312,7.1312,7.1312,7.1312,7.1312,7.1312,5.4521,5.467,5.476,5.5119,5.5179,5.5179,5.5179,5.5179,5.5481,5.6085,5.6183,5.6445,5.7086,5.7181,5.7181,5.7181,5.8177,5.8812,5.8812,5.8812,5.8812,5.8812,5.8812,5.9081,5.9784,5.9784,6.0075,6.0787,6.1317,6.1595,6.1595,6.211,6.2381,6.2381,6.2381,6.2584,6.2888,6.2888,6.3091,6.3429,6.3835,6.4005,6.4072,6.4444,6.4613,6.4613,6.4613,6.4613,6.4647,6.4986,6.5087,6.5155,6.5493,6.5628,6.5628,6.5628,6.5121,6.4681,6.5019,6.5087,6.5189,6.5527,6.5899,6.6203,6.6203,6.6508,6.6812,6.6812,6.6812,6.6812,6.6812,6.6812,6.6812,6.6812,6.6812,6.6812,6.6812,6.6812,6.6812,6.6812,6.6812,6.6812,6.6812,6.6812,6.6812,6.6812,6.6812,6.6812,6.6812,6.6812,6.6812,6.6812,6.6812,6.7151,6.7895,6.9011,7.0161,7.1312,7.1312,7.1312,7.1312,7.1312,7.1312,7.1312,7.1312,7.1312,7.1312,7.1312,7.1312,7.1312,7.1312,7.1312,7.1312,7.1312,7.1312,7.1312,5.5089,5.5179,5.5179,5.5179,5.5179,5.5179,5.5179,5.5179,5.5179,5.5179,5.5179,5.5179,5.5179,5.5179,5.5179,5.5179,5.7086,5.8268,5.8268,5.8268,5.8268,5.8268,5.8268,5.836,5.8542,5.8902,5.9081,5.9081,6.0247,6.087,6.087,6.1951,6.2448,6.255,6.255,6.299,6.3666,6.3666,6.4038,6.4613,6.4715,6.4783,6.4783,6.4884,6.4952,6.4952,6.4952,6.4952,6.5019,6.5628,6.5865,6.5967,6.6609,6.6812,6.6812,6.6812,6.5933,6.5087,6.5696,6.5865,6.6,6.6643,6.6812,6.6812,6.6812,6.6812,6.6812,6.6812,6.6812,6.6812,6.6812,6.6812,6.6812,6.6812,6.6812,6.6812,6.6812,6.6812,6.6812,6.6812,6.6812,6.6812,6.6812,6.6812,6.6812,6.6812,6.6812,6.6812,6.6812,6.6812,6.688,6.6981,6.6981,6.7387,6.8233,6.9654,7.0669,7.1312,7.1312,7.1312,7.1312,7.1312,7.1312,7.1312,7.1312,7.1312,7.1312,7.1312,7.1312,7.1312,7.1312,7.1312,7.1312,7.1312,7.1312,7.1312,5.5179,5.5179,5.5179,5.5179,5.5179,5.5179,5.5179,5.5179,5.5179,5.5179,5.5179,5.5179,5.5179,5.5179,5.5179,5.5179,5.5551,5.575,5.575,5.575,5.575,5.575,5.575,5.628,5.7245,5.9258,6.0332,6.0332,6.148,6.211,6.211,6.2302,6.2719,6.3328,6.3328,6.3734,6.4444,6.4444,6.4512,6.4647,6.5256,6.5527,6.5595,6.6237,6.6474,6.6474,6.6474,6.6474,6.6508,6.6609,6.6643,6.6643,6.6779,6.6812,6.6812,6.6812,6.6643,6.6508,6.6609,6.6643,6.6677,6.6779,6.6812,6.6812,6.6812,6.6812,6.6812,6.6812,6.6812,6.6812,6.6812,6.6812,6.6812,6.6812,6.6812,6.6812,6.6812,6.6812,6.6812,6.6812,6.6812,6.6812,6.6812,6.6812,6.6812,6.6812,6.6812,6.6812,6.6812,6.6812,6.7117,6.7726,6.7726,6.8402,6.9823,7.0703,7.121,7.1312,7.1312,7.1312,7.1312,7.1312,7.1312,7.1312,7.1312,7.1312,7.1312,7.1312,7.1312,7.1312,7.1312,7.1312,7.1312,7.1312,7.1312,7.1312,5.5179,5.5179,5.5179,5.5179,5.5179,5.5179,5.5179,5.5179,5.5179,5.5179,5.5179,5.5179,5.5179,5.5179,5.5179,5.5179,5.5179,5.5179,5.5179,5.5179,5.5179,5.5179,5.5179,5.5451,5.5986,5.7086,5.7714,5.7714,5.9287,6.0016,6.0016,6.1023,6.2022,6.3099,6.3099,6.3869,6.5189,6.5189,6.5425,6.5831,6.617,6.6305,6.6339,6.6677,6.6812,6.6812,6.6812,6.6812,6.6812,6.6812,6.6812,6.6812,6.6812,6.6812,6.6812,6.6812,6.6812,6.6812,6.6812,6.6812,6.6812,6.6812,6.6812,6.6812,6.6812,6.6812,6.6812,6.6812,6.6812,6.6812,6.6812,6.6812,6.6812,6.6812,6.6812,6.6812,6.6812,6.6812,6.6812,6.6812,6.6812,6.6812,6.6812,6.6812,6.6812,6.6812,6.6812,6.6812,6.6812,6.7184,6.7557,6.7895,6.8707,6.9485,7.0195,7.0939,7.1312,7.1312,7.1312,7.1312,7.1312,7.1312,7.1312,7.1312,7.1312,7.1312,7.1312,7.1312,7.1312,7.1312,7.1312,7.1312,7.1312,7.1312,7.1312,7.1312,5.5179,5.5179,5.5179,5.5179,5.5179,5.5179,5.5179,5.5179,5.5179,5.5179,5.5179,5.5179,5.5179,5.5179,5.5179,5.5179,5.5179,5.5179,5.5179,5.5179,5.5179,5.5179,5.5179,5.5269,5.5418,5.5691,5.5953,5.6104,5.7819,5.8618,5.865,6.0044,6.1326,6.246,6.2549,6.3507,6.5106,6.5395,6.5816,6.6406,6.6728,6.6812,6.6812,6.6812,6.6812,6.6812,6.6812,6.6812,6.6812,6.6812,6.6812,6.6812,6.6812,6.6812,6.6812,6.6812,6.6812,6.6812,6.6812,6.6812,6.6812,6.6812,6.6812,6.6812,6.6812,6.6812,6.6812,6.6812,6.6812,6.6812,6.6812,6.6812,6.6812,6.6812,6.6812,6.6812,6.6812,6.6812,6.6812,6.6812,6.6812,6.6812,6.6812,6.6812,6.6812,6.6812,6.6812,6.688,6.7049,6.759,6.8064,6.8402,6.9586,7.0263,7.0432,7.1041,7.1312,7.1312,7.1312,7.1312,7.1312,7.1312,7.1312,7.1312,7.1312,7.1312,7.1312,7.1312,7.1312,7.1312,7.1312,7.1312,7.1312,7.1312,7.1312,7.1312,5.5179,5.5179,5.5179,5.5179,5.5179,5.5179,5.5179,5.5179,5.5179,5.5179,5.5179,5.5179,5.5179,5.5179,5.5179,5.5179,5.5179,5.5179,5.5179,5.5179,5.5179,5.5179,5.5179,5.5478,5.6077,5.7228,5.8066,5.8653,5.9917,6.0485,6.0485,6.0642,6.1119,6.1979,6.1947,6.2426,6.329,6.444,6.5015,6.5171,6.632,6.6812,6.6812,6.6812,6.6812,6.6812,6.6812,6.6812,6.6812,6.6812,6.6812,6.6812,6.6812,6.6812,6.6812,6.6812,6.6812,6.6812,6.6812,6.6812,6.6812,6.6812,6.6812,6.6812,6.6812,6.6812,6.6812,6.6812,6.6812,6.6812,6.6812,6.6812,6.6812,6.6812,6.6812,6.6812,6.6812,6.6812,6.6812,6.6812,6.6812,6.6812,6.6812,6.6812,6.6812,6.6812,6.6812,6.7117,6.7793,6.7861,6.8538,6.9992,7.0128,7.0534,7.121,7.1278,7.1312,7.1312,7.1312,7.1312,7.1312,7.1312,7.1312,7.1312,7.1312,7.1312,7.1312,7.1312,7.1312,7.1312,7.1312,7.1312,7.1312,7.1312,7.1312,7.1312,5.5179,5.5179,5.5179,5.5179,5.5179,5.5179,5.5179,5.5179,5.5179,5.5179,5.5179,5.5179,5.5179,5.5179,5.5179,5.5179,5.5568,5.5807,5.5807,5.6166,5.6196,5.5807,5.6166,5.6496,5.6735,5.7221,5.7516,5.7758,5.8665,5.9052,5.9083,5.9481,6.0299,6.132,6.1289,6.194,6.31,6.4322,6.4869,6.4992,6.632,6.6812,6.6812,6.6812,6.6812,6.6812,6.6812,6.6812,6.6812,6.6812,6.6812,6.6812,6.6812,6.6812,6.6812,6.6812,6.6812,6.6812,6.6812,6.6812,6.6812,6.6812,6.6812,6.6812,6.6812,6.6812,6.6812,6.6812,6.6812,6.6812,6.6812,6.6812,6.6812,6.6812,6.6812,6.6812,6.6812,6.6812,6.6812,6.6812,6.6812,6.6812,6.6812,6.6812,6.7015,6.7455,6.7489,6.7827,6.8605,6.9079,6.9789,7.0838,7.0872,7.1041,7.1312,7.1312,7.1312,7.1312,7.1312,7.1312,7.1312,7.1312,7.1312,7.1312,7.1312,7.1312,7.1312,7.1312,7.1312,7.1312,7.1312,7.1312,7.1312,7.1312,7.1312,7.1312,5.5179,5.5179,5.5179,5.5179,5.5179,5.5179,5.5179,5.5179,5.5179,5.5179,5.5179,5.5269,5.5478,5.5508,5.5568,5.5777,5.6196,5.6466,5.6466,5.7064,5.7124,5.6496,5.6855,5.7184,5.7423,5.7423,5.7513,5.7723,5.8201,5.8441,5.8441,5.889,5.9576,6.0432,6.0432,6.0918,6.1927,6.3544,6.4322,6.4414,6.6148,6.6812,6.6812,6.6812,6.6812,6.6812,6.6812,6.6812,6.6812,6.6812,6.6812,6.6812,6.6812,6.6812,6.6812,6.6812,6.6812,6.6812,6.6812,6.6812,6.6812,6.6812,6.6812,6.6812,6.6812,6.6812,6.6812,6.6812,6.6812,6.6812,6.6812,6.6812,6.6812,6.6812,6.6812,6.6812,6.6812,6.6812,6.6812,6.6812,6.6812,6.6812,6.6812,6.7015,6.7354,6.7861,6.8132,6.8605,6.9383,7.0128,7.077,7.1312,7.1312,7.1312,7.1312,7.1312,7.1312,7.1312,7.1312,7.1312,7.1312,7.1312,7.1312,7.1312,7.1312,7.1312,7.1312,7.1312,7.1312,7.1312,7.1312,7.1312,7.1312,7.1312,7.1312,7.1312,5.5179,5.5179,5.5179,5.5179,5.5179,5.5179,5.5179,5.5179,5.5209,5.5209,5.5209,5.5448,5.6107,5.6196,5.6436,5.7034,5.7094,5.7094,5.7124,5.7752,5.7812,5.7124,5.7124,5.7423,5.8112,5.8141,5.8441,5.9099,5.9099,5.9099,5.9099,5.9099,5.9099,5.9099,5.9099,5.9099,5.9315,6.1927,6.3004,6.3196,6.5767,6.6812,6.6812,6.6812,6.6812,6.6812,6.6812,6.6812,6.6812,6.6812,6.6812,6.6812,6.6812,6.6812,6.6812,6.6812,6.6812,6.6812,6.6812,6.6812,6.6812,6.6812,6.6812,6.6812,6.6812,6.6812,6.6812,6.6812,6.6812,6.6812,6.6812,6.6812,6.6812,6.6812,6.6812,6.6812,6.6812,6.6812,6.6812,6.6812,6.6812,6.6812,6.6812,6.7489,6.7895,6.7929,6.8673,6.9451,7.0161,7.0906,7.1312,7.1312,7.1312,7.1312,7.1312,7.1312,7.1312,7.1312,7.1312,7.1312,7.1312,7.1312,7.1312,7.1312,7.1312,7.1312,7.1312,7.1312,7.1312,7.1312,7.1312,7.1312,7.1312,7.1312,7.1312,7.1312,5.5179,5.5179,5.5179,5.5179,5.5179,5.5179,5.5179,5.5598,5.5867,5.5867,5.6256,5.6585,5.6795,5.6825,5.6885,5.7064,5.7543,5.8022,5.8471,5.871,5.871,5.8501,5.8501,5.859,5.88,5.88,5.8919,5.9099,5.9099,5.9099,5.9099,5.9099,5.9099,5.9099,5.9099,5.9099,5.9207,6.0918,6.1596,6.1796,6.4381,6.547,6.5559,6.644,6.6812,6.6812,6.6812,6.6812,6.6812,6.6812,6.6812,6.6812,6.6812,6.6812,6.6812,6.6812,6.6812,6.6812,6.6812,6.6812,6.6812,6.6812,6.6812,6.6812,6.6812,6.6812,6.6812,6.6812,6.6812,6.6812,6.6812,6.6812,6.6812,6.6812,6.6812,6.6812,6.6812,6.6812,6.6812,6.6812,6.7252,6.7557,6.7557,6.8267,6.8944,6.9451,7.0229,7.0737,7.0973,7.1176,7.1312,7.1312,7.1312,7.1312,7.1312,7.1312,7.1312,7.1312,7.1312,7.1312,7.1312,7.1312,7.1312,7.1312,7.1312,7.1312,7.1312,7.1312,7.1312,7.1312,7.1312,7.1312,7.1312,7.1312,7.1312,7.1312,5.5179,5.5179,5.5179,5.5179,5.5418,5.5598,5.5598,5.6137,5.6526,5.6526,5.6855,5.7184,5.7483,5.7513,5.7603,5.7872,5.8261,5.868,5.9069,5.9099,5.9099,5.9099,5.9099,5.9099,5.9099,5.9099,5.9099,5.9099,5.9099,5.9099,5.9099,5.9099,5.9099,5.9099,5.9099,5.9099,5.9207,6.0432,6.0989,6.1193,6.3355,6.4137,6.4322,6.5559,6.6029,6.6115,6.661,6.6812,6.6812,6.6812,6.6812,6.6812,6.6812,6.6812,6.6812,6.6812,6.6812,6.6812,6.6812,6.6812,6.6812,6.6812,6.6812,6.6812,6.6812,6.6812,6.6812,6.6812,6.6812,6.6812,6.6812,6.6812,6.6812,6.6812,6.6812,6.6812,6.6812,6.7049,6.7252,6.7252,6.7929,6.8368,6.8368,6.9079,6.9823,7.0567,7.1075,7.1312,7.1312,7.1312,7.1312,7.1312,7.1312,7.1312,7.1312,7.1312,7.1312,7.1312,7.1312,7.1312,7.1312,7.1312,7.1312,7.1312,7.1312,7.1312,7.1312,7.1312,7.1312,7.1312,7.1312,7.1312,7.1312,7.1312,7.1312,7.1312,5.5179,5.5239,5.5269,5.5269,5.5837,5.6256,5.6256,5.6795,5.7184,5.7184,5.7244,5.7513,5.8141,5.8201,5.8471,5.9069,5.9099,5.9099,5.9099,5.9099,5.9099,5.9099,5.9099,5.9099,5.9099,5.9099,5.9099,5.9099,5.9099,5.9099,5.9099,5.9099,5.9099,5.9099,5.9099,5.9099,5.9207,6.0328,6.0815,6.0918,6.2291,6.2779,6.2972,6.4197,6.4688,6.4869,6.6148,6.661,6.6643,6.6728,6.6812,6.6812,6.6812,6.6812,6.6812,6.6812,6.6812,6.6812,6.6812,6.6812,6.6812,6.6812,6.6812,6.6812,6.6812,6.6812,6.6812,6.6812,6.6812,6.6812,6.6812,6.6812,6.6846,6.6914,6.6914,6.6948,6.7015,6.759,6.7996,6.7996,6.8707,6.9214,6.9214,6.9857,7.0567,7.1278,7.1312,7.1312,7.1312,7.1312,7.1312,7.1312,7.1312,7.1312,7.1312,7.1312,7.1312,7.1312,7.1312,7.1312,7.1312,7.1312,7.1312,7.1312,7.1312,7.1312,7.1312,7.1312,7.1312,7.1312,7.1312,7.1312,7.1312,7.1312,7.1312,7.1312,5.5179,5.5598,5.5957,5.5957,5.6466,5.6885,5.6885,5.7453,5.7902,5.7902,5.8351,5.871,5.889,5.889,5.8949,5.9099,5.9099,5.9099,5.9099,5.9099,5.9099,5.9099,5.9099,5.9099,5.9099,5.9099,5.9099,5.9099,5.9099,5.9099,5.9099,5.9099,5.9099,5.9099,5.9099,5.9099,5.9099,5.9392,5.9469,5.9576,6.0918,6.1395,6.1596,6.2876,6.3355,6.3576,6.4869,6.5349,6.547,6.644,6.6812,6.6812,6.6812,6.6812,6.6812,6.6812,6.6812,6.6812,6.6812,6.6812,6.6812,6.6812,6.6812,6.6812,6.6812,6.6812,6.6812,6.6812,6.6812,6.6812,6.6812,6.6812,6.7015,6.7557,6.7658,6.7895,6.8504,6.8741,6.8842,6.8842,6.9485,6.9958,6.9958,7.0635,7.1142,7.1312,7.1312,7.1312,7.1312,7.1312,7.1312,7.1312,7.1312,7.1312,7.1312,7.1312,7.1312,7.1312,7.1312,7.1312,7.1312,7.1312,7.1312,7.1312,7.1312,7.1312,7.1312,7.1312,7.1312,7.1312,7.1312,7.1312,7.1312,7.1312,7.1312,7.1312,5.5658,5.6166,5.6615,5.6615,5.7154,5.7573,5.7573,5.8171,5.859,5.859,5.889,5.9099,5.9099,5.9099,5.9099,5.9099,5.9099,5.9099,5.9099,5.9099,5.9099,5.9099,5.9099,5.9099,5.9099,5.9099,5.9099,5.9099,5.9099,5.9099,5.9099,5.9099,5.9099,5.9099,5.9099,5.9099,5.9099,5.9099,5.9099,5.9207,5.9864,6.0045,6.0255,6.1496,6.2094,6.2193,6.3544,6.4414,6.4992,6.5646,6.632,6.6812,6.6812,6.6812,6.6812,6.6812,6.6812,6.6812,6.6812,6.7083,6.732,6.732,6.7624,6.7726,6.6981,6.6812,6.6914,6.7252,6.732,6.7455,6.7827,6.7895,6.803,6.8402,6.847,6.8605,6.9045,6.9417,6.962,6.962,7.0263,7.0737,7.0737,7.1075,7.1312,7.1312,7.1312,7.1312,7.1312,7.1312,7.1312,7.1312,7.1312,7.1312,7.1312,7.1312,7.1312,7.1312,7.1312,7.1312,7.1312,7.1312,7.1312,7.1312,7.1312,7.1312,7.1312,7.1312,7.1312,7.1312,7.1312,7.1312,7.1312,7.1312,7.1312,7.1312,5.6316,5.6825,5.7274,5.7274,5.7842,5.8291,5.8291,5.874,5.9099,5.9099,5.9099,5.9099,5.9099,5.9099,5.9099,5.9099,5.9099,5.9099,5.9099,5.9099,5.9099,5.9099,5.9099,5.9099,5.9099,5.9099,5.9099,5.9099,5.9099,5.9099,5.9099,5.9099,5.9099,5.9099,5.9099,5.9099,5.9099,5.9099,5.9099,5.9099,5.9099,5.9099,5.9207,6.0224,6.0712,6.0815,6.2193,6.3449,6.4597,6.4778,6.5559,6.6558,6.6863,6.7015,6.7015,6.7151,6.7218,6.7218,6.7218,6.7658,6.8098,6.8098,6.8605,6.8774,6.7489,6.7218,6.7387,6.7996,6.8098,6.8301,6.8977,6.9113,6.9147,6.9282,6.9282,6.9316,6.9451,6.9992,7.0398,7.0398,7.0939,7.1312,7.1312,7.1312,7.1312,7.1312,7.1312,7.1312,7.1312,7.1312,7.1312,7.1312,7.1312,7.1312,7.1312,7.1312,7.1312,7.1312,7.1312,7.1312,7.1312,7.1312,7.1312,7.1312,7.1312,7.1312,7.1312,7.1312,7.1312,7.1312,7.1312,7.1312,7.1312,7.1312,7.1312,7.1312,5.6974,5.7513,5.7992,5.7992,5.853,5.8979,5.8979,5.9039,5.9099,5.9099,5.9099,5.9099,5.9099,5.9099,5.9099,5.9099,5.9099,5.9099,5.9099,5.9099,5.9099,5.9099,5.9099,5.9099,5.9099,5.9099,5.9099,5.9099,5.9099,5.9099,5.9099,5.9099,5.9099,5.9099,5.9099,5.9099,5.9099,5.9099,5.9099,5.9099,5.9099,5.9099,5.9099,5.9285,5.9392,5.9499,6.0815,6.2094,6.3482,6.4505,6.4992,6.5481,6.718,6.776,6.7895,6.8571,6.8808,6.8808,6.8808,6.8876,6.8944,6.8944,6.9011,6.9045,6.8842,6.8808,6.8808,6.891,6.8944,6.8977,6.9079,6.9113,6.9316,6.9925,7.0026,7.0263,7.0939,7.1109,7.1176,7.1176,7.1244,7.1312,7.1312,7.1312,7.1312,7.1312,7.1312,7.1312,7.1312,7.1312,7.1312,7.1312,7.1312,7.1312,7.1312,7.1312,7.1312,7.1312,7.1312,7.1312,7.1312,7.1312,7.1312,7.1312,7.1312,7.1312,7.1312,7.1312,7.1312,7.1312,7.1312,7.1312,7.1312,7.1312,7.1312,7.1312,5.7663,5.8201,5.868,5.868,5.8919,5.9099,5.9099,5.9099,5.9099,5.9099,5.9099,5.9099,5.9099,5.9099,5.9099,5.9099,5.9099,5.9099,5.9099,5.9099,5.9099,5.9099,5.9099,5.9099,5.9099,5.9099,5.9099,5.9099,5.9099,5.9099,5.9099,5.9099,5.9099,5.9099,5.9099,5.9099,5.9099,5.9099,5.9099,5.9099,5.9099,5.9099,5.9099,5.9099,5.9338,5.9807,6.0758,6.1884,6.306,6.3631,6.4319,6.5153,6.685,6.7345,6.7625,6.8803,6.9113,6.9113,6.9113,6.9383,6.9722,6.9722,7.0026,7.0331,7.0331,7.0331,7.0229,6.9789,6.9722,6.9823,7.0263,7.0331,7.0432,7.077,7.0804,7.0939,7.1278,7.1312,7.1312,7.1312,7.1312,7.1312,7.1312,7.1312,7.1312,7.1312,7.1312,7.1312,7.1312,7.1312,7.1312,7.1312,7.1312,7.1312,7.1312,7.1312,7.1312,7.1312,7.1312,7.1312,7.1312,7.1312,7.1312,7.1312,7.1312,7.1312,7.1312,7.1312,7.1312,7.1312,7.1312,7.1312,7.1312,7.1312,7.1312,7.1312]},{"header":{"parameterUnit":"m.s-1","parameterCategory":1,"la1":30.6,"la2":28.766,"lo1":-90.7593,"lo2":-88.6598,"dy":0.0162,"dx":0.0183,"nx":116,"ny":114,"refTime":"2023-03-22T18:00:00:Z","depth":0,"parameterNumber":3,"parameterNumberName":"V-component_of_WINDS"},"data":[0.0,0.0,0.0,0.0,0.0,0.0,0.0,0.0,0.0,0.0,0.0,0.0,0.0,0.0,0.0,0.0,0.0,0.0,0.0,0.0,0.0,0.0,0.0,0.0,0.0,0.0,0.0,0.0,0.0,0.0,0.0,0.0,0.0,0.0,0.0,0.0,0.0,0.0,0.0,0.0,0.0,0.0,0.0,0.0,0.0,0.0,0.0,0.0,0.0,0.0,0.0,0.0,0.0,0.0,0.0,0.0,0.0,0.0,0.0,0.0,0.0,0.0,0.0,0.0,0.0,0.0,0.0,0.0,0.0,0.0,0.0,0.0,0.0,0.0,0.0,0.0,0.0,0.0,0.0,0.0,0.0,0.0,0.0,0.0,0.0,0.0,0.0,0.0,0.0,0.0,0.0,0.0,0.0,0.0,0.0,0.0,0.0,0.0,0.0,0.0,0.0,0.0,0.0,0.0,0.0,0.0,0.0,0.0,0.0,0.0,0.0,0.0,0.0,0.0,0.0,0.0,0.0,0.0,0.0,0.0,0.0,0.0,0.0,0.0,0.0,0.0,0.0,0.0,0.0,0.0,0.0,0.0,0.0,0.0,0.0,0.0,0.0,0.0,0.0,0.0,0.0,0.0,0.0,0.0,0.0,0.0,0.0,0.0,0.0,0.0,0.0,0.0,0.0,0.0,0.0,0.0,0.0,0.0,0.0,0.0,0.0,0.0,0.0,0.0,0.0,0.0,0.0,0.0,0.0,0.0,0.0,0.0,0.0,0.0,0.0,0.0,0.0,0.0,0.0,0.0,0.0,0.0,0.0,0.0,0.0,0.0,0.0,0.0,0.0,0.0,0.0,0.0,0.0,0.0,0.0,0.0,0.0,0.0,0.0,0.0,0.0,0.0,0.0,0.0,0.0,0.0,0.0,0.0,0.0,0.0,0.0,0.0,0.0,0.0,0.0,0.0,0.0,0.0,0.0,0.0,0.0,0.0,0.0,0.0,0.0,0.0,0.0,0.0,0.0,0.0,0.0,0.0,0.0,0.0,0.0,0.0,0.0,0.0,0.0,0.0,0.0,0.0,0.0,0.0,0.0,0.0,0.0,0.0,0.0,0.0,0.0,0.0,0.0,0.0,0.0,0.0,0.0,0.0,0.0,0.0,0.0,0.0,0.0,0.0,0.0,0.0,0.0,0.0,0.0,0.0,0.0,0.0,0.0,0.0,0.0,0.0,0.0,0.0,0.0,0.0,0.0,0.0,0.0,0.0,0.0,0.0,0.0,0.0,0.0,0.0,0.0,0.0,0.0,0.0,0.0,0.0,0.0,0.0,0.0,0.0,0.0,0.0,0.0,0.0,0.0,0.0,0.0,0.0,0.0,0.0,0.0,0.0,0.0,0.0,0.0,0.0,0.0,0.0,0.0,0.0,0.0,0.0,0.0,0.0,0.0,0.0,0.0,0.0,0.0,0.0,0.0,0.0,0.0,0.0,0.0,0.0,0.0,0.0,0.0,0.0,0.0,0.0,0.0,0.0,0.0,0.0,0.0,0.0,0.0,0.0,0.0,0.0,0.0,0.0,0.0,0.0,0.0,0.0,0.0,0.0,0.0,0.0,0.0,0.0,0.0,0.0,0.0,0.0,0.0,0.0,0.0,0.0,0.0,0.0,0.0,0.0,0.0,0.0,0.0,0.0,0.0,0.0,0.0,0.0,0.0,0.0,0.0,0.0,0.0,0.0,0.0,0.0,0.0,0.0,0.0,0.0,0.0,0.0,0.0,0.0,0.0,0.0,0.0,0.0,0.0,0.0,0.0,0.0,0.0,0.0,0.0,0.0,0.0,0.0,0.0,0.0,0.0,0.0,0.0,0.0,0.0,0.0,0.0,0.0,0.0,0.0,0.0,0.0,0.0,0.0,0.0,0.0,0.0,0.0,0.0,0.0,0.0,0.0,0.0,0.0,0.0,0.0,0.0,0.0,0.0,0.0,0.0,0.0,0.0,0.0,0.0,0.0,0.0,0.0,0.0,0.0,0.0,0.0,0.0,0.0,0.0,0.0,0.0,0.0,0.0,0.0,0.0,0.0,0.0,0.0,0.0,0.0,0.0,0.0,0.0,0.0,0.0,0.0,0.0,0.0,0.0,0.0,0.0,0.0,0.0,0.0,0.0,0.0,0.0,0.0,0.0,0.0,0.0,0.0,0.0,0.0,0.0,0.0,0.0,0.0,0.0,0.0,0.0,0.0,0.0,0.0,0.0,0.0,0.0,0.0,0.0,0.0,0.0,0.0,0.0,0.0,0.0,0.0,0.0,0.0,0.0,0.0,0.0,0.0,0.0,0.0,0.0,0.0,0.0,0.0,0.0,0.0,0.0,0.0,0.0,0.0,0.0,0.0,0.0,0.0,0.0,0.0,0.0,0.0,0.0,0.0,0.0,0.0,0.0,0.0,0.0,0.0,0.0,0.0,0.0,0.0,0.0,0.0,0.0,0.0,0.0,0.0,0.0,0.0,0.0,0.0,0.0,0.0,0.0,0.0,0.0,0.0,0.0,0.0,0.0,0.0,0.0,0.0,0.0,0.0,0.0,0.0,0.0,0.0,0.0,0.0,0.0,0.0,0.0,0.0,0.0,0.0,0.0,0.0,0.0,0.0,0.0,0.0,0.0,0.0,0.0,0.0,0.0,0.0,0.0,0.0,0.0,0.0,0.0,0.0,0.0,0.0,0.0,0.0,0.0,0.0,0.0,0.0,0.0,0.0,0.0,0.0,0.0,0.0,0.0,0.0,0.0,0.0,0.0,0.0,0.0,0.0,0.0,0.0,0.0,0.0,0.0,0.0,0.0,0.0,0.0,0.0,0.0,0.0,0.0,0.0,0.0,0.0,0.0,0.0,0.0,0.0,0.0,0.0,0.0,0.0,0.0,0.0,0.0,0.0,0.0,0.0,0.0,0.0,0.0,0.0,0.0,0.0,0.0,0.0,0.0,0.0,0.0,0.0,0.0,0.0,0.0,0.0,0.0,0.0,0.0,0.0,0.0,0.0,0.0,0.0,0.0,0.0,0.0,0.0,0.0,0.0,0.0,0.0,0.0,0.0,0.0,0.0,0.0,0.0,0.0,0.0,0.0,0.0,0.0,0.0,0.0,0.0,0.0,0.0,0.0,0.0,0.0,0.0,0.0,0.0,0.0,0.0,0.0,0.0,0.0,0.0,0.0,0.0,0.0,0.0,0.0,0.0,0.0,0.0,0.0,0.0,0.0,0.0,0.0,0.0,0.0,0.0,0.0,0.0,0.0,0.0,0.0,0.0,0.0,0.0,0.0,0.0,0.0,0.0,0.0,0.0,0.0,0.0,0.0,0.0,0.0,0.0,0.0,0.0,0.0,0.0,0.0,0.0,0.0,0.0,0.0,0.0,0.0,0.0,0.0,0.0,0.0,0.0,0.0,0.0,0.0,0.0,0.0,0.0,0.0,0.0,0.0,0.0,0.0,0.0,0.0,0.0,0.0,0.0,0.0,0.0,0.0,0.0,0.0,0.0,0.0,0.0,0.0,0.0,0.0,0.0,0.0,0.0,0.0,0.0,0.0,0.0,0.0,0.0,0.0,0.0,0.0,0.0,0.0,0.0,0.0,0.0,0.0,0.0,0.0,0.0,0.0,0.0,0.0,0.0,0.0,0.0,0.0,0.0,0.0,0.0,0.0,0.0,0.0,0.0,0.0,0.0,0.0,0.0,0.0,0.0,0.0,0.0,0.0,0.0,0.0,0.0,0.0,0.0,0.0,0.0,0.0,0.0,0.0,0.0,0.0,0.0,0.0,0.0,0.0,0.0,0.0,0.0,0.0,0.0,0.0,0.0,0.0,0.0,0.0,0.0,0.0,0.0,0.0,0.0,0.0,0.0,0.0,0.0,0.0,0.0,0.0,0.0,0.0,0.0,0.0,0.0,0.0,0.0,0.0,0.0,0.0,0.0,0.0,0.0,0.0,0.0,0.0,0.0,0.0,0.0,0.0,0.0,0.0,0.0,0.0,0.0,0.0,0.0,0.0,0.0,0.0,0.0,0.0,0.0,0.0,0.0,0.0,0.0,0.0,0.0,0.0,0.0,0.0,0.0,0.0,0.0,0.0,0.0,0.0,0.0,0.0,0.0,0.0,0.0,0.0,0.0,0.0,0.0,0.0,0.0,0.0,0.0,0.0,0.0,0.0,0.0,0.0,0.0,0.0,0.0,0.0,0.0,0.0,0.0,0.0,0.0,0.0,0.0,0.0,0.0,0.0,0.0,0.0,0.0,0.0,0.0,0.0,0.0,0.0,0.0,0.0,0.0,0.0,0.0,0.0,0.0,0.0,0.0,0.0,0.0,0.0,0.0,0.0,0.0,0.0,0.0,0.0,0.0,0.0,0.0,0.0,0.0,0.0,0.0,0.0,0.0,0.0,0.0,0.0,0.0,0.0,0.0,0.0,0.0,0.0,0.0,0.0,0.0,0.0,0.0,0.0,0.0,0.0,0.0,0.0,0.0,0.0,0.0,0.0,0.0,0.0,0.0,0.0,0.0,0.0,0.0,0.0,0.0,0.0,0.0,0.0,0.0,0.0,0.0,0.0,0.0,0.0,0.0,0.0,0.0,0.0,0.0,0.0,0.0,0.0,0.0,0.0,0.0,0.0,0.0,0.0,0.0,0.0,0.0,0.0,0.0,0.0,0.0,0.0,0.0,0.0,0.0,0.0,0.0,0.0,0.0,0.0,0.0,0.0,0.0,0.0,0.0,0.0,0.0,0.0,0.0,0.0,0.0,0.0,0.0,0.0,0.0,0.0,0.0,0.0,0.0,0.0,0.0,0.0,0.0,0.0,0.0,0.0,0.0,0.0,0.0,0.0,0.0,0.0,0.0,0.0,0.0,0.0,0.0,0.0,0.0,0.0,0.0,0.0,0.0,0.0,0.0,0.0,0.0,0.0,0.0,0.0,0.0,0.0,0.0,0.0,0.0,0.0,0.0,0.0,0.0,0.0,0.0,0.0,0.0,0.0,0.0,0.0,0.0,0.0,0.0,0.0,0.0,0.0,0.0,0.0,0.0,0.0,0.0,0.0,0.0,0.0,0.0,0.0,0.0,0.0,0.0,0.0,0.0,0.0,0.0,0.0,0.0,0.0,0.0,0.0,0.0,0.0,0.0,0.0,0.0,0.0,0.0,0.0,0.0,0.0,0.0,0.0,0.0,0.0,0.0,0.0,0.0,0.0,0.0,0.0,0.0,0.0,0.0,0.0,0.0,0.0,0.0,0.0,0.0,0.0,0.0,0.0,0.0,0.0,0.0,0.0,0.0,0.0,0.0,0.0,0.0,0.0,0.0,0.0,0.0,0.0,0.0,0.0,0.0,0.0,0.0,0.0,0.0,0.0,0.0,0.0,0.0,0.0,0.0,0.0,0.0,0.0,0.0,0.0,0.0,0.0,0.0,0.0,0.0,0.0,0.0,0.0,0.0,0.0,0.0,0.0,0.0,0.0,0.0,0.0,0.0,0.0,0.0,0.0,0.0,0.0,0.0,0.0,0.0,0.0,0.0,0.0,0.0,0.0,0.0,0.0,0.0,0.0,0.0,0.0,0.0,0.0,0.0,0.0,0.0,0.0,0.0,0.0,0.0,0.0,0.0,0.0,0.0,0.0,0.0,0.0,0.0,0.0,0.0,0.0,0.0,0.0,0.0,0.0,0.0,0.0,0.0,0.0,0.0,0.0,0.0,0.0,0.0,0.0,0.0,0.0,0.0,0.0,0.0,0.0,0.0,0.0,0.0,0.0,0.0,0.0,0.0,0.0,0.0,0.0,0.0,0.0,0.0,0.0,0.0,0.0,0.0,0.0,0.0,0.0,0.0,0.0,0.0,0.0,0.0,0.0,0.0,0.0,0.0,0.0,0.0,0.0,0.0,0.0,0.0,0.0,0.0,0.0,0.0,0.0,0.0,0.0,0.0,0.0,0.0,0.0,0.0,0.0,0.0,0.0,0.0,0.0,0.0,0.0,0.0,0.0,0.0,0.0,0.0,0.0,0.0,0.0,0.0,0.0,0.0,0.0,0.0,0.0,0.0,0.0,0.0,0.0,0.0,0.0,0.0,0.0,0.0,0.8811,0.5248,0.0,0.0,0.0,0.0,0.0,0.0,0.0,0.0,0.0,0.0,0.0,0.0,0.0,0.0,0.0,0.0,0.0,0.0,0.0,0.0,0.0,0.0,0.0,0.0,0.0,0.0,0.0,0.0,0.0,0.0,0.0,0.0,0.0,0.0,0.0,0.0,0.0,0.0,0.0,0.0,0.0,0.0,0.0,0.0,0.0,0.0,0.0,0.0,0.0,0.0,0.0,0.0,0.0,0.0,0.0,0.0,0.0,0.0,0.0,0.0,0.0,0.0,0.0,0.0,0.0,0.0,0.0,0.0,0.0,0.0,0.0,0.0,0.0,0.0,0.0,0.0,0.0,0.0,0.0,0.0,0.0,0.0,0.0,0.0,0.0,0.0,0.0,0.0,0.0,0.0,0.0,0.0,0.0,0.0,0.0,0.0,0.0,0.0,0.0,0.0,0.0,0.0,0.0,0.0,0.0,0.0,0.0,0.0,0.0,0.0,0.0,0.0,0.0,0.0,1.0699,0.8622,0.0,0.0,0.0,0.0,0.0,0.0,0.0,0.0,0.0,0.0,0.0,0.0,0.0,0.0,0.0,0.0,0.0,0.0,0.0,0.0,0.0,0.0,0.0,0.0,0.0,0.0,0.0,0.0,0.0,0.0,0.0,0.0,0.0,0.0,0.0,0.0,0.0,0.0,0.0,0.0,0.0,0.0,0.0,0.0,0.0,0.0,0.0,0.0,0.0,0.0,0.0,0.0,0.0,0.0,0.0,0.0,0.0,0.0,0.0,0.0,0.0,0.0,0.0,0.0,0.0,0.0,0.0,0.0,0.0,0.0,0.0,0.0,0.0,0.0,0.0,0.0,0.0,0.0,0.0,0.0,0.0,0.0,0.0,0.0,0.0,0.0,0.0,0.0,0.0,0.0,0.0,0.0,0.0,0.0,0.0,0.0,0.0,0.0,0.0,0.0,0.0,0.0,0.0,0.0,0.0,0.0,0.0,0.0,1.0658,1.0658,1.0658,1.0658,1.0638,1.0751,1.0645,1.0645,1.0212,0.4286,0.0,0.0,0.0,0.0,0.0,0.0,0.0,0.0,0.0,0.0,0.0,0.0,0.0,0.0,0.0,0.0,0.0,0.0,0.0,0.0,0.0,0.0,0.0,0.0,0.0,0.0,0.0,0.0,0.0,0.0,0.0,0.0,0.0,0.0,0.0,0.0,0.0,0.0,0.0,0.0,0.0,0.0,0.0,0.0,0.0,0.0,0.0,0.0,0.0,0.0,0.0,0.0,0.0,0.0,0.0,0.0,0.0,0.0,0.0,0.0,0.0,0.0,0.0,0.0,0.0,0.0,0.0,0.0,0.0,0.0,0.0,0.0,0.0,0.0,0.0,0.0,0.0,0.0,0.0,0.0,0.0,0.0,0.0,0.0,0.0,0.0,1.0538,1.0117,0.0,0.0,0.0,0.0,0.0,0.0,0.0,0.0,0.0,0.0,0.0,0.0,0.0,1.0731,1.0731,1.0731,1.0731,1.0731,1.0731,1.0731,1.0731,1.0731,1.0731,1.0724,1.0731,0.0,1.0618,0.9667,0.0,0.0,0.0,0.0,0.0,0.0,0.0,0.0,0.0,0.0,0.0,0.0,0.0,0.0,0.0,0.0,0.0,0.0,0.0,0.0,0.0,0.0,0.0,0.0,0.0,0.0,0.0,0.0,0.0,0.0,0.0,0.0,0.0,0.0,0.0,0.0,0.6874,0.3638,0.0,0.0,0.0,0.0,0.0,0.0,0.0,0.0,0.0,0.0,0.0,0.0,0.0,0.0,0.0,0.0,0.0,0.0,0.0,0.0,0.0,0.0,0.0,0.0,0.0,0.0,0.0,0.0,0.0,0.0,0.0,0.0,0.0,0.0,0.0,0.0,0.0,0.0,0.0,0.0,0.0,0.0,0.0,0.0,0.0,0.0,0.0,1.0652,1.0638,1.0758,1.0744,1.0738,0.0,0.0,0.0,0.0,0.0,0.0,0.0,0.0,0.0,1.0717,1.0717,1.0717,1.0717,1.0717,1.0717,1.0717,1.0717,1.0717,1.0717,1.0717,1.0717,1.0717,1.0717,1.0724,1.0738,1.0751,0.8856,0.5763,0.0,0.0,0.0,0.0,0.9035,1.0545,0.0,0.0,0.0,0.0,0.0,0.0,0.0,0.0,0.0,0.0,0.0,0.0,0.0,0.0,0.0,0.0,0.0,0.0,0.0,0.0,0.0,0.0,0.0,0.0,0.0,0.0,0.0,0.0,0.9349,0.6345,0.1275,0.0391,0.0,0.0,0.0,0.0,0.0,0.0,0.0,0.0,0.0,0.0,0.0,0.0,0.0,0.0,0.0,0.0,0.0,0.0,0.0,0.0,0.0,0.0,0.0,0.0,0.0,0.0,0.0,0.0,0.0,0.0,0.0,0.0,0.0,0.0,0.0,0.0,0.0,0.0,0.0,0.0,0.0,0.0,0.0,0.0,0.0,1.0751,1.0738,1.0724,1.1108,1.1372,0.0,0.0,0.0,0.0,0.0,0.0,1.2025,1.2025,1.1894,1.1372,1.1372,1.1108,1.0717,1.0717,1.0717,1.0717,1.0717,1.0717,1.0717,1.0717,1.0717,1.0717,1.0717,1.0717,1.0724,1.0738,1.0751,1.0485,0.7779,0.6711,0.6715,0.6706,0.8467,1.0658,0.0,0.0,0.0,0.0,0.0,0.0,0.0,0.0,0.0,0.0,0.0,0.0,0.0,0.0,0.0,0.0,0.0,0.0,0.0,0.0,0.0,0.0,0.0,0.0,0.0,0.0,0.0,1.008,0.804,0.6104,0.4568,0.1438,0.0,0.0,0.0,0.0,0.0,0.0,0.0,0.0,0.0,0.0,0.0,0.0,0.0,0.0,0.0,0.0,0.0,0.0,0.0,0.0,0.0,0.0,0.0,0.0,0.0,0.0,0.0,0.0,0.0,0.0,0.0,0.0,0.0,0.0,0.0,0.0,0.0,0.0,0.0,0.0,0.0,0.0,0.0,0.0,0.0,0.0,0.0,1.0717,1.2157,0.0,0.0,0.0,0.0,1.5654,1.5654,1.5654,1.5654,1.5654,1.4874,1.3193,1.3193,1.2413,1.0717,1.0717,1.0717,1.0717,1.0717,1.0717,1.0717,1.0717,1.0717,1.0717,1.0717,1.0717,1.0717,1.0724,1.0738,1.0618,1.0485,1.0372,1.0391,1.0498,1.0485,1.0751,0.0,0.0,0.0,0.0,0.0,0.0,0.0,0.0,0.0,0.0,0.0,0.0,0.0,0.0,0.0,0.0,0.0,0.0,0.0,0.0,0.0,0.0,0.0,0.0,0.0,0.0,0.8913,0.985,0.9519,0.9127,0.8557,0.7436,0.6951,0.6849,0.6853,0.4297,0.0,0.0,0.0,0.0,0.0,0.0,0.0,0.0,0.0,0.0,0.0,0.0,0.0,0.0,0.0,0.0,0.0,0.0,0.0,0.0,0.0,0.0,0.0,0.0,0.0,0.0,0.0,0.0,0.0,0.0,0.0,0.0,0.0,0.0,0.0,0.0,0.0,0.0,0.0,0.0,0.0,0.0,0.0,1.2413,1.397,0.0,1.5005,1.5524,1.5913,1.5913,1.5913,1.5913,1.5913,1.5913,1.5654,1.5005,1.384,1.3062,1.2413,1.124,1.0717,1.0717,1.0717,1.0717,1.0717,1.0717,1.0717,1.0717,1.0717,1.0717,1.0717,1.0717,1.0724,1.0731,1.0731,1.0738,1.0751,1.0738,1.0731,1.0731,0.0,0.0,0.0,0.0,0.0,0.0,0.0,0.0,0.0,0.0,0.0,0.0,0.0,0.0,0.0,0.0,0.0,0.0,0.0,0.0,0.0,0.0,0.0,0.0,0.0,0.7937,1.0209,0.9982,1.0317,1.0575,1.0761,1.0731,1.0645,1.0645,1.0652,0.8071,0.3488,0.1075,0.0,0.0,0.0,0.0,0.0,0.0,0.0,0.0,0.0,0.0,0.0,0.0,0.0,0.0,0.0,0.0,0.0,0.0,0.0,0.0,0.0,0.0,0.0,0.0,0.0,0.0,0.0,0.0,0.0,0.0,0.0,0.0,0.0,0.0,0.0,0.0,0.0,0.0,0.0,1.3062,1.4232,1.4232,1.5654,1.6818,1.6818,1.7345,1.7602,1.7602,1.7602,1.7602,1.7602,1.7602,1.7345,1.6818,1.5135,1.384,1.3325,1.1637,1.0717,1.0717,1.0717,1.0717,1.0717,1.0717,1.0717,1.0717,1.0717,1.0717,1.0717,1.0717,1.0717,1.0717,1.0717,1.0717,1.0717,1.0717,1.0717,1.0717,0.0,0.0,0.0,0.0,0.0,0.0,0.0,0.0,0.0,0.0,0.0,0.0,0.0,0.0,0.0,0.0,0.0,0.0,0.0,0.0247,0.0,0.0,0.0,0.0,1.0093,1.0243,1.0378,1.0357,1.0364,1.0437,1.0717,1.0717,1.0717,1.0724,1.0744,1.0638,1.0257,0.3086,0.0,0.0,0.0,0.0,0.0,0.0,0.0,0.0,0.0,0.0,0.0,0.0,0.0,0.0,0.0,0.0,0.0,0.0,0.0,0.0,0.0,0.0,0.0,0.0,0.0,0.0,0.0,0.0,0.0,0.0,0.0,0.0,0.0,0.0,0.0,0.0,0.0,0.0,1.3456,1.4874,1.5913,1.5913,1.7474,1.864,1.864,2.0068,2.1109,2.1109,2.1109,2.1109,2.1109,2.1109,2.0322,1.864,1.6947,1.5135,1.3456,1.163,1.0717,1.0717,1.0717,1.0717,1.0717,1.0717,1.0717,1.0717,1.0717,1.0717,1.0717,1.0717,1.0717,1.0717,1.0717,1.0717,1.0717,1.0717,1.0717,1.0717,0.0,0.0,0.0,0.0,0.0,0.0,0.0,0.0,0.0,0.0,0.0,0.0,0.0,0.0,0.0,0.0,0.0,0.0,0.0,0.0,0.0,0.0,0.0,0.0,1.051,1.0378,1.046,1.0623,1.0602,1.0677,1.0717,1.0717,1.0717,1.0717,1.0724,1.0744,1.0225,0.3078,0.0,0.0,0.0,0.0,0.0,0.0,0.0,0.0,0.0,0.0,0.0,0.0,0.0,0.0,0.0,0.0,0.0,0.0,0.0,0.0,0.0,0.0,0.0,0.0,0.0,0.0,0.0,0.0,0.0,0.0,0.0,0.0,0.0,0.0,0.0,0.0,1.5394,1.6689,1.5394,1.6689,1.7731,1.7731,1.9291,2.0322,2.0322,2.0843,2.1109,2.1109,2.1109,2.1109,2.1109,2.1109,2.0856,2.0462,1.864,1.7602,1.7076,1.4101,1.2545,1.2545,1.124,1.0717,1.0717,1.0717,1.0717,1.0717,1.0717,1.0717,1.0717,1.0717,1.0717,1.0717,1.0717,1.0717,1.0717,1.0717,1.0717,1.0717,0.0,0.0,0.0,0.0,0.0,0.0,0.0,0.0,0.0,0.0,0.0,0.0,0.0,0.0,0.0,0.0,0.0,0.0,0.0,0.0,0.0,0.0,0.0,1.031,1.052,1.0521,1.0588,1.0719,1.0677,1.0717,1.0717,1.0717,1.0717,1.0717,1.0717,1.0731,1.0485,0.6297,0.2814,0.0,0.0,0.0,0.0,0.0,0.0,0.0,0.0,0.0,0.0,0.0,0.0,0.0,0.0,0.0,0.0,0.0,0.0,0.0,0.0,0.0,0.0,0.0,0.0,0.0,0.0,0.0,0.0,0.0,0.0,0.0,0.0,0.0,0.0,0.0,1.7216,1.8384,1.8116,1.8896,1.9546,1.9546,2.0462,2.1109,2.1109,2.1109,2.1109,2.1109,2.1109,2.1109,2.1109,2.1109,2.1109,2.1109,1.9419,1.8512,1.8512,1.5784,1.4362,1.4362,1.2676,1.1762,1.1762,1.0982,1.0717,1.0717,1.0717,1.0717,1.0717,1.0717,1.0717,1.0717,0.0,0.0,0.0,0.0,1.0812,1.0826,0.0,0.0,0.0,0.0,0.0,0.0,0.0,0.0,0.0,0.0,0.0,0.0,0.0,0.0,0.0,0.0,0.0,0.0372,0.0,0.0,0.0,1.0301,1.0527,1.0651,1.0384,1.0649,1.0717,1.0717,1.0717,1.0717,1.0717,1.0717,1.0717,1.0717,1.0717,1.0731,1.0751,1.0652,0.6585,0.0,0.0,0.0,0.0,0.0,0.0,0.0,0.0,0.0,0.0,0.0,0.0,0.0,0.0,0.0,0.0,0.0,0.0,0.0,0.0,0.0,0.0,0.0,0.0,0.0,0.0,0.0,0.0,0.0,0.0,0.0,0.0,0.0,0.0,0.0,1.864,1.9291,2.0856,2.1109,2.1109,2.1109,2.1109,2.1109,2.1109,2.1109,2.1109,2.1109,2.1109,2.1109,2.1109,2.1149,0.0,0.0,0.0,1.8852,1.8852,1.7163,1.6244,1.6254,1.4295,1.3384,1.3252,1.1556,1.0772,1.0772,1.0772,1.0772,1.0772,1.0772,1.0772,1.0765,1.0751,1.0744,1.0765,1.0914,1.0975,1.0989,0.0,0.0,0.0,0.0,0.0,0.0,0.0,0.0,0.0,0.0,0.0,0.0,0.0,0.0,0.0,0.0,0.0,0.2401,0.0,0.0,0.7633,1.0439,1.048,1.0424,1.067,1.0704,1.0717,1.0717,1.0717,1.0717,1.0717,1.0717,1.0717,1.0717,1.0717,1.0724,1.0731,1.0751,0.6564,0.0,0.0,0.0,0.0,0.0,0.0,0.0,0.0,0.0,0.0,0.0,0.0,0.0,0.0,0.0,0.0,0.0,0.0,0.0,0.0,0.0,0.0,0.0,0.0,0.0,0.0,0.0,0.0,0.0,0.0,0.0,0.0,0.0,0.0,1.8116,1.9674,2.0716,2.1109,2.1109,2.1109,2.1109,2.1109,2.1109,2.1109,2.1109,2.1109,2.1109,2.1109,2.1109,2.1109,2.1336,2.147,2.147,2.1423,2.128,2.128,1.9531,1.8726,1.8726,1.5385,0.0,1.3773,1.1884,1.1077,1.1077,1.1077,1.1077,1.1077,1.1077,1.1077,1.1063,1.0948,1.0907,1.0921,1.107,1.1124,1.1124,0.0,0.0,0.0,0.0,0.0,0.0,0.0,0.0,0.0,0.0,0.0,0.0,0.0,0.0,0.0,0.0,0.0,0.0,0.0,0.7093,0.8822,1.0678,1.0588,1.0504,1.0717,1.0717,1.0717,1.0717,1.0717,1.0717,1.0717,1.0717,1.0717,1.0717,1.0717,1.0717,1.0724,1.0744,0.859,0.5095,0.1475,0.0,0.0,0.0,0.0,0.0,0.0,0.0,0.0,0.0,0.0,0.0,0.0,0.0,0.0,0.0,0.0,0.0,0.0,0.0,0.0,0.0,0.0,0.0,0.0,0.0,0.0,0.0,0.0,1.1534,1.4101,0.0,1.6818,1.9419,2.0589,2.1162,2.1309,2.1336,2.1336,2.1336,2.1336,2.139,2.1537,2.155,2.155,2.155,2.155,2.155,2.155,2.1683,2.1764,2.1764,2.1911,2.1991,2.1991,2.1172,2.0219,1.9287,1.6581,1.4828,1.3883,1.1978,1.1165,1.1165,1.1165,1.1165,1.1165,1.1165,1.1165,1.1165,1.1165,1.1124,1.107,1.1219,1.1274,1.1287,0.0,0.0,0.0,0.0,0.0,0.0,0.0,0.0,0.0,0.0,0.0,0.0,0.0,0.0,0.0,0.0,0.0,0.0,0.0,0.537,0.9246,1.0616,1.0683,1.0717,1.0717,1.0717,1.0717,1.0717,1.0717,1.0717,1.0717,1.0717,1.0717,1.0717,1.0717,1.0717,1.0724,1.0738,1.0638,1.0124,0.295,0.0,0.0,0.0,0.0,0.0,0.0,0.0,0.0,0.0,0.0,0.0,0.0,0.0,0.0,0.0,0.0,0.0,0.0,0.0,0.0,0.0,0.0,0.0,0.0,0.0,1.0678,1.0758,1.0744,1.1784,1.5274,1.5913,1.7098,2.0667,2.1189,2.1296,2.159,2.163,2.1657,2.171,2.167,2.1724,2.1964,2.1991,2.1991,2.1991,2.1991,2.1991,2.1991,2.2044,2.2071,2.2071,2.2124,2.2151,2.2151,2.2151,2.1473,1.9843,1.808,1.6303,1.4397,1.262,1.1664,1.1253,1.1253,1.1253,1.1253,1.1253,1.1253,1.126,1.1389,1.1362,1.1267,1.1389,1.1436,1.145,0.0,0.0,0.0,0.0,0.0,0.0,0.0,0.0,0.0,0.0,0.0,0.0,0.0,0.0,0.0,0.0,0.0,0.0,0.0,0.0792,0.4081,1.0459,1.0724,1.0717,1.0717,1.0717,1.0717,1.0717,1.0717,1.0717,1.0717,1.0717,1.0717,1.0717,1.0717,1.0717,1.0717,1.0724,1.0758,1.0117,0.2946,0.0,0.0,0.0,0.0,0.0,0.0,0.0,0.0,0.0,0.0,0.0,0.0,0.0,0.0,0.0,0.0,0.0135,0.0943,0.5796,1.0558,0.9716,0.7799,0.684,0.0,0.0,1.0758,1.0731,1.0724,1.1769,1.5265,1.5913,1.7152,2.0928,2.151,2.1603,2.1897,2.1937,2.2031,2.2298,2.2098,2.1951,2.1977,2.1991,2.1991,2.1991,2.1991,2.1991,2.1991,2.2231,2.2378,2.2378,2.2632,2.2766,2.2766,2.2766,2.2629,2.2479,2.0671,1.871,1.6757,1.4929,1.3113,1.1565,1.1565,1.1565,1.1565,1.1565,1.1565,1.1572,1.1586,1.1586,1.1572,1.1586,1.1592,1.1599,0.0,0.0,0.0,0.0,0.0,0.0,0.0,0.0,0.0,0.0,0.0,0.0,0.0,0.0,0.0,0.0,0.0,0.0,0.0,0.0,0.3181,1.0345,1.0731,1.0717,1.0717,1.0717,1.0717,1.0717,1.0717,1.0717,1.0717,1.0717,1.0717,1.0717,1.0717,1.0717,1.0717,1.0717,1.0751,1.0117,0.2944,0.0,0.0,0.0,0.0,0.0,0.0,0.0,0.0,0.0,0.0,0.0,0.0,0.0,0.0,0.0,0.0,0.0,0.2551,0.5376,0.8076,1.0232,0.9546,0.8856,1.0339,1.0744,1.0744,1.0724,1.0717,1.1762,1.5265,1.6025,1.7326,2.1006,2.1697,2.1911,2.2205,2.2231,2.2352,2.2645,2.2565,2.2498,2.2498,2.2498,2.2498,2.2498,2.2498,2.2498,2.2498,2.2619,2.2672,2.2672,2.2792,2.2859,2.2859,2.2859,2.2297,2.1321,2.0479,1.9077,1.7117,1.5283,1.3452,1.1619,1.1619,1.1619,1.1619,1.1619,1.1619,1.1619,1.1619,1.1619,1.1619,1.1619,1.1619,1.1619,0.0,0.0,0.0,0.0,0.0,0.0,0.0,0.0,0.0,0.0,0.0,0.0,0.0,0.0,0.0,0.0,0.0,0.0,0.0,0.2942,0.5208,1.0478,1.0731,1.0717,1.0717,1.0717,1.0717,1.0717,1.0717,1.0717,1.0717,1.0717,1.0717,1.0717,1.0717,1.0717,1.0717,1.0724,1.0758,1.0117,0.2946,0.0,0.0,0.0,0.0,0.0,0.0,0.0,0.0,0.0,0.0,0.0,0.0,0.0,0.0,0.0,0.0,0.0941,0.5644,0.6853,0.7522,1.0079,1.0751,1.0744,1.0744,1.0744,1.0738,1.0724,1.0717,1.1776,1.5342,1.6267,1.761,2.1228,2.1964,2.2205,2.2498,2.2539,2.2619,2.2832,2.2859,2.2859,2.2859,2.2859,2.2859,2.2859,2.2859,2.2859,2.2859,2.2859,2.2859,2.2859,2.2859,2.2859,2.2859,2.2859,2.216,2.0894,2.0894,1.9912,1.7949,1.5981,1.4156,1.2323,1.2323,1.2043,1.1619,1.1619,1.1619,1.1619,1.1619,1.1619,1.1619,1.1619,1.1619,1.1619,0.0,0.0,0.0,0.0,0.0,0.0,0.0,0.0,0.0,0.0,0.0,0.0,0.0,0.0,0.0,0.0,0.0,0.0,0.0,1.0404,1.0512,1.0758,1.0731,1.0717,1.0717,1.0717,1.0717,1.0717,1.0717,1.0717,1.0717,1.0717,1.0717,1.0717,1.0717,1.0717,1.0724,1.0744,1.0638,1.0124,0.2952,0.0,0.0,0.0,0.0,0.0,0.0,0.0,0.0,0.0,0.0,0.0,0.0,0.0,0.0,0.0,0.0,0.0,0.0,0.0,1.0525,1.0632,1.0738,1.0724,1.0724,1.0724,1.0717,1.0717,1.0717,1.1814,1.5668,1.6379,1.7719,2.175,2.2405,2.2512,2.2806,2.2846,2.2846,2.2859,2.2859,2.2859,2.2859,2.2859,2.2859,2.2859,2.2859,2.2859,2.2859,2.2859,2.2859,2.2859,2.2859,2.2859,2.2859,2.2859,2.2859,2.2859,2.2859,2.1885,1.9912,1.7949,1.6122,1.429,1.429,1.3309,1.1619,1.1619,1.1619,1.1619,1.1619,1.1619,1.1619,1.1619,1.1619,1.1619,0.0,0.0,0.0,0.0,0.0,0.0,0.0,0.0,0.0,0.0,0.0,0.0,0.0,0.0,0.0,0.0,0.0,0.0,0.0,0.8066,1.0765,1.0751,1.0731,1.0717,1.0717,1.0717,1.0717,1.0717,1.0717,1.0717,1.0717,1.0717,1.0717,1.0717,1.0717,1.0717,1.0724,1.0744,0.7912,0.3348,0.0938,0.0,0.0,0.0,0.0,0.0,0.0,0.0,0.0,0.0,0.0,0.0,0.0,0.0,0.0,0.0,0.0,0.0,0.0,0.0,1.0765,1.0738,1.0724,1.0717,1.0717,1.0717,1.0717,1.0717,1.0799,1.1545,1.3987,1.5683,1.7559,2.0183,2.1752,2.2752,2.2846,2.2859,2.2859,2.2859,2.2859,2.2859,2.2859,2.2859,2.2859,2.2859,2.2859,2.2859,2.2859,2.2859,2.2859,2.2859,2.2859,2.2859,2.2859,2.2859,2.2859,2.2859,2.2859,2.1885,2.0063,1.9356,1.8089,1.6122,1.4991,1.4006,1.3309,1.2043,1.1619,1.1619,1.1619,1.1619,1.1619,1.1619,1.1619,1.1619,0.0,0.0,0.0,0.0,0.0,0.0,0.0,0.0,0.0,0.0,0.0,0.0,0.0,0.0,0.0,0.0,0.0,0.0,0.0,0.0,0.8046,1.0618,1.0738,1.0731,1.0717,1.0717,1.0717,1.0717,1.0717,1.0717,1.0717,1.0717,1.0717,1.0717,1.0717,1.0724,1.0731,1.0758,0.6569,0.0,0.0,0.0,0.0,0.0,0.0,0.0,0.0,0.0,0.0,0.0,0.0,0.0,0.0,0.0,0.0,0.0,0.0,0.0,0.0,0.8995,1.0751,1.0724,1.0717,1.0717,1.0717,1.0717,1.0738,1.0792,1.088,1.1511,1.3374,1.5494,1.7633,1.9518,2.1483,2.2859,2.2859,2.2859,2.2859,2.2859,2.2859,2.2859,2.2859,2.2859,2.2859,2.2859,2.2859,2.2859,2.2859,2.2859,2.2859,2.2859,2.2859,2.2859,2.2859,2.2859,2.2859,2.2859,2.2859,2.2297,2.1032,2.0479,1.9077,1.7117,1.5283,1.4014,1.3309,1.2043,1.1619,1.1619,1.1619,1.1619,1.1619,1.1619,1.1619,1.1619,0.0,0.0,0.0,0.0,0.0,0.0,0.0,0.0,0.0,0.0,0.0,0.0,0.0,0.0,0.0,0.0,0.0,0.0,0.0,0.0,0.0,0.9806,1.0485,1.0744,1.0717,1.0717,1.0717,1.0717,1.0717,1.0717,1.0717,1.0717,1.0717,1.0717,1.0724,1.0731,1.0625,1.0245,0.618,0.0,0.0,0.0,0.0,0.0,0.0,0.0,0.0,0.0,0.0,0.0,0.0,0.0,0.0,0.0,0.0,0.0,0.0,1.0692,1.0638,1.0751,1.0744,1.0724,1.0717,1.0717,1.0717,1.0717,1.0765,1.0914,1.0955,1.1582,0.0,0.0,1.7696,1.96,2.1596,2.2859,2.2859,2.2859,2.2859,0.0,0.0,0.0,0.0,2.2859,2.2859,2.2859,2.2859,2.2859,2.2859,2.2859,2.2859,2.2859,2.2859,2.2859,2.2859,2.2859,2.2859,2.2859,2.2859,2.2859,2.2859,2.1044,1.9217,1.7388,1.5557,1.3587,1.19,1.1763,1.1619,1.1619,1.1619,1.1619,1.1619,1.1619,1.1619,1.1619,0.0,0.0,0.0,0.0,0.0,0.0,0.0,0.0,0.0,0.0,0.0,0.0,0.0,0.0,0.0,0.0,0.0,0.0,0.0,0.0,0.0,0.0,0.0,0.0,0.0,0.0,0.0,0.0,1.0717,1.0717,1.0717,1.0717,1.0717,1.0717,1.0738,1.0751,1.0345,0.4961,0.1609,0.0,0.0,0.0,0.0,0.0,0.0,0.0,0.0,0.0,0.0,0.0,0.0,0.0,0.0,0.0,0.1346,0.0,0.0,1.0672,1.0765,1.0744,1.0724,1.0724,1.0717,1.0717,1.0717,1.0717,1.0765,1.0914,1.1036,1.1303,0.0,1.4833,1.7327,1.7798,2.0756,2.2859,2.2859,2.2859,0.0,2.2859,0.0,2.2859,2.2859,2.2859,2.2859,2.2859,2.2859,2.2859,2.2859,2.2859,2.2859,2.2859,2.2859,2.2859,2.2859,2.2859,2.2859,2.2859,2.2859,2.2859,2.2859,2.2435,2.1885,2.1321,1.9495,1.7529,1.5707,1.4298,1.2888,1.1619,1.1619,1.1619,1.1619,1.1619,1.1619,1.1633,0.0,0.0,0.0,0.0,0.0,0.0,0.0,0.0,0.0,0.0,0.0,0.0,0.0,0.0,0.0,0.0,0.0,0.0,0.0,0.0,0.0,0.0,0.0,0.0,0.0,0.0,0.0,0.0,0.0,0.0,1.0717,1.0731,1.0738,1.0738,1.0765,0.9001,0.5759,0.1742,0.0,0.0,0.0,0.0,0.0,0.0,0.0,0.0,0.0,0.0,0.0,0.0,0.0,0.0,0.0,0.0,0.1076,0.6732,0.0,1.0658,1.0751,1.0731,1.0717,1.0717,1.0717,1.0717,1.0717,1.0717,1.0778,1.0995,1.1104,1.1226,1.145,1.4647,1.7248,0.0,0.0,0.0,2.2859,2.2859,2.2859,0.0,2.2979,0.0,2.3073,2.318,2.326,2.326,2.302,2.2859,2.2859,2.2859,2.2859,2.2859,2.2859,2.2859,2.2859,2.2859,2.2859,2.2859,2.2859,2.2859,2.2859,2.2022,2.1734,2.1596,1.9634,1.8229,1.7107,1.5132,1.3729,1.2753,1.1969,1.1714,1.1721,1.1789,1.1816,1.1823,0.0,0.0,0.0,0.0,0.0,0.0,0.0,0.0,0.0,0.0,0.0,0.0,0.0,0.0,0.0,0.0,0.0,0.0,0.0,0.0,0.0,0.0,0.0,0.0,0.0,0.0,0.0,0.0,0.0,0.0,0.0,0.0,0.0,0.0,0.0,0.0,0.0,0.0,0.0,0.0,0.0,0.0,0.0,0.0,0.0,0.0,0.0,0.0,0.0,0.0,0.0,0.0,0.0,0.0673,0.1882,0.4562,0.7932,1.0652,1.0731,1.0717,1.0717,1.0717,1.0717,1.0717,1.0717,1.0717,1.0806,1.1104,1.1165,1.1253,1.1565,1.4725,1.7248,1.7248,0.0,2.2859,2.2859,2.2859,2.2873,2.2926,2.3166,2.334,2.338,2.3621,2.3768,2.3768,2.3287,2.2979,2.2979,2.2979,2.2966,2.2926,2.2926,2.2899,2.2859,2.2859,2.2859,2.2859,2.2859,2.2859,2.2859,2.1183,2.0479,2.034,1.8659,1.783,1.757,1.5877,1.5044,1.4659,1.2962,1.2297,1.2164,1.2162,1.206,1.2067,0.0,0.0,0.0,0.0,0.0,0.0,0.0,0.0,0.0,0.0,0.0,0.0,0.0,0.0,0.0,0.0,0.0,0.0,0.0,0.0,0.0,0.0,0.0,0.0,0.0,0.0,0.0,0.0,0.0,0.0,0.0,0.0,0.0,0.0,0.0,0.0,0.0,0.0,0.0,0.0,0.0,0.0,0.0,0.0,0.0,0.0,0.0,0.0,0.0,0.0,0.0,0.0,0.0,0.4039,0.837,0.6042,0.7917,1.0758,1.0731,1.0717,1.0717,1.0717,1.0717,1.0717,1.0717,1.0717,0.0,0.0,1.1165,1.1253,1.1565,1.4725,1.7248,1.7248,2.0479,2.2859,2.2859,2.2859,2.2953,0.0,2.33,2.342,2.3674,2.3741,2.3768,2.3768,2.3674,2.3621,2.3621,2.3621,2.35,2.326,2.3247,2.3126,2.2859,2.2859,2.2859,2.2859,2.2859,2.2859,2.2859,2.2585,2.2435,2.2435,2.2022,2.1167,1.9945,1.9509,1.8635,1.7223,1.5225,1.4506,1.4367,1.2635,1.206,1.2081,0.0,0.0,0.0,0.0,0.0,0.0,0.0,0.7762,0.5565,0.5572,0.5587,0.4134,0.0402,0.0,0.1473,0.0,0.0,0.0,0.0,0.0,0.0,0.0,0.0,0.0,0.0,0.0,1.0717,1.0717,0.0,1.0744,1.0618,0.6836,0.3348,0.0,0.0,0.0,0.0,0.0,0.0,0.0,0.0,0.0,0.0,0.0,0.0,0.0,0.0,0.0,0.0,0.0,0.0,0.0,0.0,0.4983,1.0424,0.8622,0.9413,1.0751,1.0724,1.0717,1.0717,1.0717,1.0717,1.0717,1.0717,0.0,0.0,0.0,1.1111,1.1233,1.1457,1.4656,0.0,1.7248,2.0479,2.2859,2.2859,2.3006,2.3153,2.3313,2.3594,2.3834,2.3981,2.4128,2.4222,2.4222,2.4222,2.4088,2.3781,2.3768,2.3701,2.3567,2.3554,2.3487,2.334,2.318,2.31,2.31,2.2939,2.2859,2.2873,2.3033,2.31,2.3113,2.3273,2.2986,2.2099,2.1078,2.0267,1.938,1.7448,1.6749,1.6471,1.4643,1.3937,1.3801,0.0,0.0,0.0,0.0,0.0,0.0,0.0,1.0677,1.0758,1.0652,1.0652,0.86,0.2939,0.2271,0.4551,0.0,0.0,0.0,0.0,0.0,0.0,0.0,0.0,0.0,0.0,0.0,0.0,1.0717,1.0744,0.0,0.0,0.0,0.0,0.0,0.0,0.0,0.0,0.0,0.0,0.0,0.0,0.0,0.0,0.0,0.0,0.0,0.0,0.0,0.0,0.0,0.0,0.0269,0.175,0.5658,0.9728,1.0531,1.0638,1.0744,1.0724,1.0717,1.0717,1.0717,1.0744,1.0758,1.0724,1.0744,0.0,1.0921,1.1063,1.1212,1.1362,0.0,1.6685,0.0,2.0051,2.2435,2.2859,2.3126,2.3354,0.0,2.3888,0.0,2.4289,2.4502,2.4636,2.4636,2.4636,2.4436,2.3981,2.3955,2.3928,2.3861,2.3861,2.3834,2.3768,2.3541,2.342,2.342,2.3166,2.306,2.306,2.3313,2.342,2.3434,2.3674,2.3808,2.3718,2.2231,2.1667,2.145,1.9719,1.9043,1.8767,1.6393,1.554,1.5234,0.0,0.0,0.0,0.0,0.0,0.0,0.0,1.0717,1.0724,1.0724,1.0731,1.0459,0.9775,0.9655,0.994,0.0,0.0,0.0,0.0,0.0,0.0,0.0,0.0,0.0,0.0,0.0,0.0,1.0717,1.0744,0.0,0.0,0.0,0.0,0.0,0.0,0.0,0.0,0.0,0.0,0.0,0.0,0.0,0.0,0.0,0.0,0.0,0.0,0.0,0.0,0.0,0.0,0.1077,0.7713,0.7962,0.6577,0.9806,0.0,0.0,1.0717,1.0717,1.0717,1.0717,1.0826,1.0894,1.0751,0.0,1.0928,1.0948,1.1063,1.1212,1.1362,1.3193,1.5283,1.6967,0.0,2.0894,2.2722,2.3126,2.342,2.3701,0.0,0.0,2.4569,2.4623,2.4636,2.4636,2.4636,2.4609,2.4556,2.4556,2.4436,2.4168,2.4168,2.4035,2.3768,2.3741,2.3728,2.3728,2.3701,2.3688,2.3688,2.3714,2.3728,2.3728,2.3754,2.3915,2.4168,2.401,2.4011,2.4101,2.2013,2.1256,2.0807,1.6894,1.554,1.5234,0.0,0.0,0.0,0.0,0.0,0.0,1.0711,1.0717,1.0717,1.0717,1.0717,1.0717,1.0717,1.0731,1.0731,1.0731,0.0,0.0,0.0,0.0,0.0,0.0,0.0,0.0,0.0,0.0,1.0717,1.0717,1.0744,0.0,0.0,0.0,0.0,0.0,0.0,0.0,0.0,0.0,0.0,0.0,0.0,0.0,0.0,0.0,0.0,0.0,0.0,0.0,0.0,0.0,0.0,0.0,0.3365,0.6195,0.0,0.0,1.0751,1.0717,1.0717,1.0717,1.0717,1.0717,1.0765,1.0799,1.0731,0.0,1.0812,1.0812,1.0995,1.1185,1.124,1.3957,1.6263,1.7107,0.0,0.0,2.2974,2.3407,2.3701,2.3995,2.4289,2.4516,2.4623,2.4636,2.4636,2.4636,2.4636,2.4636,2.4636,2.4636,2.4583,2.4462,2.4462,2.4409,2.4289,2.4115,2.4035,2.4035,2.3848,2.3768,2.3781,2.3955,2.4035,2.4035,2.4209,2.4356,2.4462,2.4462,2.4529,2.4488,2.3722,2.3426,2.3116,2.023,1.9176,1.8874,0.0,0.0,0.0,0.0,0.0,1.0717,1.0717,1.0717,1.0717,1.0717,1.0717,1.0717,1.0717,1.0717,1.0717,1.0717,1.0717,0.0,0.0,0.0,0.0,0.0,0.0,0.0,0.0,0.0,1.0717,1.0717,1.0744,0.8179,0.0,0.0,0.0,0.0,0.0,0.0,0.0,0.0,0.0,0.0,0.0,0.0,0.0,0.0,0.0,0.0,0.0,0.0,0.0,0.0,0.0,0.0,0.0,0.0,0.0,0.0,1.0758,1.0731,1.0724,1.0717,1.0731,1.0778,1.0785,1.0785,0.0,0.0,1.0772,1.0731,1.0955,1.1165,1.1165,1.4047,1.6545,1.7107,0.0,2.2402,2.3147,2.3581,2.3875,2.4168,0.0,2.4636,2.4636,2.4636,2.4636,2.4636,2.4636,2.4636,2.4636,2.4636,2.4636,2.4636,2.4636,2.4636,2.4636,2.4436,2.4329,2.4329,2.4128,2.4022,2.4035,2.4235,2.4329,2.4342,2.4543,2.4636,2.4636,2.4636,2.4636,2.4636,2.4636,2.4636,2.4327,2.236,2.1601,2.1291,0.0,0.0,0.0,0.0,0.0,0.0,1.0717,1.0717,1.0717,1.0717,1.0717,1.0717,1.0717,1.0717,1.0717,1.0717,1.0717,0.0,0.0,0.0,0.0,0.0,0.0,0.0,0.0,0.0,1.0717,1.0717,1.0744,1.0638,1.0398,0.3354,0.0,0.0,0.0,0.0,0.0,0.0,0.0,0.0,0.0,0.0,0.0,0.0,0.0,0.0,0.0,0.0,0.0,0.0,0.0,0.0,0.0,0.0,0.0,0.0,1.0751,1.0751,1.0724,1.0717,1.0758,1.0907,1.0948,1.0948,0.0,0.0,1.09,1.0751,1.0955,1.1165,1.1165,1.2935,1.4991,1.6826,1.8798,0.0,2.2994,2.3581,2.3875,0.0,2.4462,2.4636,2.4636,2.4636,2.4636,2.4636,2.4636,2.4636,2.4636,2.4636,2.4636,2.4636,2.4636,2.4636,2.4636,2.4636,2.4636,2.4636,2.4623,2.4623,2.4623,2.4623,2.4636,2.4636,2.4636,2.4636,2.4636,2.4636,2.4636,2.4636,2.4636,2.4636,2.4327,2.236,2.1601,2.1291,0.0,0.0,0.0,0.0,0.0,0.0,0.0,1.0717,1.0717,1.0717,1.0717,1.0717,1.0717,1.0717,1.0717,1.0717,1.0717,0.0,0.0,0.0,0.0,0.0,0.0,0.0,0.0,0.0,1.0717,1.0717,1.0724,1.0744,1.0498,0.3345,0.0,0.0,0.0,0.0,0.0,0.0,0.0,0.0,0.0,0.0,0.0,0.0,0.0,0.0,0.0,0.0,0.0,0.0,0.0,0.0,0.0,0.0,0.0,0.0,0.0,0.0,1.0724,1.0717,1.0731,1.0778,1.0792,1.0792,1.0792,0.0,1.0934,1.0887,1.1111,1.1734,1.2967,1.4964,1.6967,1.8938,2.0756,0.0,0.0,0.0,0.0,2.4436,2.4583,2.4636,2.4636,2.4636,2.4636,2.4636,2.4636,2.4636,2.4636,2.4636,2.4636,2.4636,2.4636,2.4636,2.4636,2.4636,2.4636,2.4636,2.4636,2.4636,2.4636,2.4636,2.4636,2.4636,2.4636,2.4636,2.4636,2.4636,2.4636,2.4636,2.4636,2.4636,2.4488,2.387,2.3722,2.3574,0.0,0.0,0.0,0.0,0.0,0.0,0.0,1.0717,1.0717,1.0717,1.0717,1.0717,1.0717,1.0717,1.0717,1.0717,1.0717,0.0,0.0,0.0,0.0,0.0,0.0,0.0,1.0717,1.0717,1.0717,1.0717,1.0717,1.0731,1.0618,0.6156,0.2543,0.0,0.0,0.0,0.0,0.0,0.0,0.0,0.0,0.0,0.0,0.0,0.0,0.0,0.0,0.0,0.0,0.0,0.0,0.0,0.0,0.0,0.0,0.0,0.8995,0.0,0.0,1.0717,1.0744,1.086,1.0846,0.0,0.0,0.0,0.0,1.1029,1.1219,1.1945,1.3874,1.584,1.7809,1.9773,2.1698,2.3207,0.0,0.0,0.0,2.4583,2.4636,2.4636,2.4636,2.4636,2.4636,2.4636,2.4636,2.4636,2.4636,2.4636,2.4636,2.4636,2.4636,2.4636,2.4636,2.4636,2.4636,2.4636,2.4636,2.4636,2.4636,2.4636,2.4636,2.4636,2.4636,2.4636,0.0,2.4636,2.4636,2.4636,2.4636,2.4636,2.4649,2.4756,2.4796,2.4823,0.0,0.0,0.0,0.0,0.0,0.0,0.0,1.0717,1.0717,1.0717,1.0717,1.0717,1.0717,1.0717,1.0717,1.0717,0.0,0.0,0.0,0.0,0.0,0.0,0.0,0.0,1.0717,1.0717,1.0717,1.0717,1.0717,1.0731,1.0751,1.0751,0.7107,0.0805,0.0268,0.0,0.0,0.0,0.0,0.0,0.0,0.0,0.0,0.0,0.0,0.0,0.0,0.0,0.0,0.0,0.0,0.0,0.0,0.0,0.0,0.0,0.0,0.0,0.0,0.0,0.0,1.1077,1.1056,0.0,0.0,0.0,0.0,0.0,0.0,0.0,1.4031,1.5989,1.81,1.9947,2.2001,0.0,0.0,2.4048,0.0,0.0,2.4636,2.4636,2.4636,2.4636,2.4636,2.4636,2.4636,2.4636,2.4636,2.4636,2.4636,2.4636,2.4636,2.4636,2.4636,2.4636,2.4636,2.4636,2.4636,2.4636,2.4636,2.4636,2.4636,2.4636,2.4636,2.4636,2.4636,2.4636,2.4636,2.4636,2.4663,2.4676,2.4703,2.4997,2.5117,2.5144,0.0,0.0,0.0,0.0,0.0,0.0,0.0,0.0,0.0,0.0,1.0717,1.0717,1.0717,1.0717,1.0717,0.0,0.0,0.0,0.0,0.0,0.0,0.0,0.0,0.0,1.0717,1.0717,1.0717,1.0717,1.0717,1.0724,1.0731,1.0744,0.9806,0.7912,0.2412,0.0,0.0,0.0,0.0,0.0,0.0,0.0,0.0,0.0,0.0,0.0,0.0,0.0,0.0,0.0,0.0,0.0,0.0,0.0,0.0,0.0,1.0744,0.0,1.0724,0.0,1.0914,1.0982,1.1056,1.1131,0.0,0.0,0.0,0.0,0.0,0.0,0.0,0.0,0.0,2.2179,0.0,2.3514,2.4035,0.0,0.0,2.4623,2.4636,2.4636,2.4636,2.4636,2.4636,2.4636,2.4636,2.4636,2.4636,2.4636,2.4636,2.4636,2.4636,2.4636,2.4636,2.4636,2.4636,2.4636,2.4636,2.4636,2.4636,2.4636,2.4636,2.4636,2.4636,2.4636,2.4636,2.4636,2.4636,2.4663,2.489,2.497,2.501,2.5304,2.5411,2.5424,0.0,0.0,0.0,0.0,0.0,0.0,0.0,0.0,0.0,0.0,0.0,1.0717,1.0717,1.0717,0.0,0.0,0.0,0.0,0.0,0.0,0.0,0.0,0.0,1.0717,1.0717,1.0717,1.0717,1.0717,1.0717,1.0717,1.0717,1.0731,1.0744,1.0345,0.3216,0.0,0.0,0.0,0.0,0.0,0.0,0.0,0.0,0.0,0.0,0.0,0.0,0.2153,0.0,0.4849,0.6464,0.8494,0.0,0.0,0.0,0.0,1.0731,1.0717,1.0717,1.0833,1.0962,1.1029,1.1158,1.1287,0.0,0.0,0.0,0.0,0.0,0.0,0.0,0.0,0.0,0.0,2.3554,0.0,0.0,0.0,2.4636,2.4636,2.4636,2.4636,2.4636,2.4636,2.4636,2.4636,2.4636,2.4636,2.4636,2.4636,2.4636,2.4636,2.4636,2.4636,2.4636,2.4636,2.4636,2.4636,2.4636,2.4636,2.4636,2.4636,2.4636,2.4636,2.4636,2.4636,2.4649,2.4783,2.4836,2.4863,2.517,2.5277,2.5317,2.5611,2.5718,2.5732,0.0,0.0,0.0,0.0,0.0,0.0,0.0,0.0,0.0,0.0,0.0,0.0,0.0,0.0,0.0,0.0,0.0,0.0,0.0,0.0,0.0,0.0,0.0,1.0717,1.0717,1.0717,1.0717,1.0717,1.0717,1.0717,1.0717,1.0717,1.0731,1.0485,0.4286,0.1072,0.0,0.0,0.0,0.0,0.0,0.0,0.0,0.0,0.0,0.0,0.0,0.0,0.0,1.0705,0.8762,0.6706,0.9806,0.0,0.0,0.0,0.0,0.0,1.0758,1.1015,1.1309,1.1276,1.1294,1.1457,0.0,0.0,0.0,0.0,0.0,0.0,0.0,0.0,0.0,0.0,0.0,0.0,2.4596,2.4636,2.4636,2.4636,2.4636,2.4636,2.4636,2.4636,2.4636,2.4636,2.4636,2.4636,2.4636,2.4636,2.4636,2.4636,2.4636,2.4636,2.4636,2.4636,2.4636,2.4636,2.4636,2.4636,2.4636,2.4636,2.4636,2.4636,2.4636,2.4663,2.473,2.497,2.5104,2.517,2.5464,2.5585,2.5611,2.5919,2.6026,2.6052,0.0,0.0,0.0,0.0,0.0,0.0,0.0,0.0,0.0,0.0,0.0,0.0,0.0,0.0,0.0,0.0,0.0,0.0,0.0,0.0,0.0,1.0717,1.0717,1.0717,1.0717,1.0717,1.0717,1.0717,1.0717,1.0717,1.0717,1.0717,1.0731,1.0618,0.9534,0.5626,0.0,0.0,0.0,0.0,0.0,0.0,0.0,0.0,0.0,0.0,0.0,0.0,0.0,1.0685,1.0378,0.994,1.0485,0.0,0.0,0.0,0.0,0.0,1.0914,1.2186,1.3351,1.16,1.1375,1.1592,0.0,0.0,0.0,0.0,0.0,0.0,0.0,0.0,2.3192,0.0,0.0,2.4583,2.4623,2.4636,2.4636,2.4636,2.4636,2.4636,2.4636,2.4636,2.4636,2.4636,2.4636,2.4636,2.4636,2.4636,2.4636,2.4636,2.4636,2.4636,2.4636,2.4636,2.4636,2.4636,2.4636,2.4636,2.4636,2.4636,2.4636,2.4636,2.4636,2.4783,2.5024,2.5064,2.5224,2.5478,2.5772,2.5892,2.5919,2.6213,2.6319,2.6333,0.0,0.0,0.0,0.0,0.0,0.0,0.0,0.0,0.0,0.0,0.0,0.0,0.0,0.0,0.0,0.0,0.0,0.0,0.0,0.0,0.0,1.0717,1.0717,1.0717,1.0717,1.0717,1.0717,1.0717,1.0717,1.0717,1.0717,1.0717,1.0724,1.0738,1.0751,0.8856,0.5626,0.3751,0.295,0.2954,0.0,0.0,0.0,0.0,0.0,0.0,0.0,0.0,0.0,0.0,1.0758,1.0738,1.0738,0.0,0.0,0.0,0.0,0.0,1.1043,1.1905,1.2757,1.2812,1.3677,0.0,0.0,0.0,0.0,0.0,0.0,0.0,0.0,0.0,2.3941,2.4369,0.0,2.4636,2.4636,2.4636,2.4636,2.4636,2.4636,2.4636,2.4636,2.4636,2.4636,2.4636,2.4636,2.4636,2.4636,2.4636,2.4636,2.4636,2.4636,2.4636,2.4636,2.4636,2.4636,2.4636,2.4636,2.4636,2.4636,2.4636,2.4636,2.4649,2.481,2.4957,2.5104,2.5424,2.5625,2.5785,2.6079,2.6186,2.6199,2.6333,2.6386,2.6386,0.0,0.0,0.0,0.0,0.0,0.0,0.0,0.0,0.0,0.0,0.0,0.0,0.0,0.0,0.0,0.0,0.0,0.0,0.0,0.0,1.2716,1.1894,1.1916,1.1527,1.0717,1.0717,1.0717,1.0717,1.0717,1.0717,1.0717,1.0717,1.0717,1.0717,1.0738,1.0751,1.0485,0.7779,0.6573,0.6577,0.0,0.0,0.0,0.0,0.0,0.0,0.0,0.0,0.0,0.0,0.0,0.0,0.0,0.0,0.0,1.0914,1.0995,1.1077,1.1185,1.1601,1.2552,1.4492,0.0,0.0,0.0,0.0,0.0,0.0,0.0,0.0,0.0,2.4115,0.0,2.4596,2.4636,2.4636,2.4636,2.4636,2.4636,2.4636,2.4636,2.4636,2.4636,2.4636,2.4636,2.4636,2.4636,2.4636,2.4636,2.4636,2.4636,2.4636,2.4636,2.4636,2.4636,2.4636,2.4636,2.4636,2.4636,2.4636,2.4636,2.4636,2.4676,2.4756,2.4983,2.5157,2.5317,2.5772,2.5999,2.6079,2.6306,2.6386,2.6386,2.6386,2.6386,2.6386,0.0,0.0,0.0,0.0,0.0,0.0,0.0,0.0,0.0,0.0,0.0,0.0,0.0,0.0,0.0,0.0,0.0,0.0,0.0,0.0,1.89,1.5664,1.5502,1.4068,1.0717,1.0717,1.0717,1.0717,1.0717,1.0717,1.0717,1.0717,1.0717,1.0717,1.0724,1.0731,1.0618,1.0485,1.0365,1.0257,1.0257,0.0,0.0,0.0,0.0,0.0,0.0,0.0,0.0,0.0,0.0,0.0,0.0,0.0,1.0934,1.0948,1.1145,1.1362,1.1369,1.2738,1.469,1.6525,0.0,0.0,0.0,0.0,0.0,2.0439,0.0,0.0,0.0,2.4409,2.4609,2.4636,2.4636,2.4636,2.4636,2.4636,2.4636,2.4636,2.4636,2.4636,2.4636,2.4636,2.4636,2.4636,2.4636,2.4636,2.4636,2.4636,2.4636,2.4636,2.4636,2.4636,2.4636,2.4636,2.4636,2.4636,2.4636,2.4636,2.4636,2.4636,2.4783,2.505,2.5064,2.5384,2.5892,2.5932,2.6119,2.636,2.6386,2.6386,2.6386,2.6386,2.6386,2.6386,0.0,0.0,0.0,0.0,0.0,0.0,0.0,0.0,0.0,0.0,0.0,0.0,0.0,0.0,0.0,0.0,0.0,0.0,0.0,1.9764,1.8018,1.6053,1.4922,1.3202,1.0781,1.0697,1.0717,1.0717,1.0717,1.0717,1.0717,1.0717,1.0717,1.0717,1.0717,1.0724,1.0731,1.0731,1.0738,1.0751,1.0751,1.0751,0.0,0.0,0.0,0.0,0.0,0.0,0.0,0.0,1.0717,1.0738,1.0833,1.09,1.0982,1.1172,1.1301,1.1691,1.2902,1.3815,1.5168,1.841,0.0,0.0,0.0,0.0,2.2627,2.2793,2.351,0.0,0.0,0.0,2.4636,2.4636,2.4636,2.4703,2.489,2.4917,2.4983,2.5157,2.5184,2.5184,2.5184,2.5184,2.5104,2.493,2.4917,2.4836,2.4649,2.4636,2.4636,2.4636,2.4636,2.4636,2.4636,2.4636,2.4636,2.4636,2.4636,2.4636,2.4649,2.4823,2.497,2.5104,2.5464,2.5758,2.5972,2.6146,2.6293,2.6386,2.6386,2.6386,2.6386,2.6386,2.6386,2.6386,0.0,0.0,0.0,0.0,0.0,0.0,0.0,0.0,0.0,0.0,0.0,0.0,0.0,0.0,0.0,0.0,0.0,0.0,2.1096,1.9616,1.8045,1.6818,1.5424,1.37,1.1548,1.0955,1.0717,1.0717,1.0717,1.0717,1.0717,1.0717,1.0717,1.0717,1.0717,1.0717,1.0717,1.0717,1.0717,1.0717,1.0717,1.0717,0.0,0.0,0.0,0.0,0.0,0.0,0.0,0.0,1.0751,1.0812,1.0914,1.1009,1.1124,1.1328,1.1839,1.2596,1.3973,1.4901,1.6254,0.0,0.0,0.0,0.0,0.0,2.3968,2.4168,2.4356,2.4516,2.4623,0.0,2.4783,2.4783,2.4783,2.4877,2.517,2.5224,2.5291,2.5491,2.5518,2.5518,2.5518,2.5518,2.5424,2.5237,2.513,2.4997,2.4783,2.469,2.4636,2.4636,2.4636,2.4636,2.4636,2.4636,2.469,2.4783,2.4783,2.4783,2.4783,2.4983,2.5184,2.5384,2.5785,2.6012,2.6106,2.6306,2.6386,2.6386,2.6386,2.6386,2.6386,2.6386,2.6386,2.6386,0.0,0.0,0.0,0.0,0.0,0.0,0.0,0.0,0.0,0.0,0.0,0.0,0.0,0.0,0.0,0.0,0.0,0.0,2.108,2.1062,2.0322,1.864,1.7939,1.6254,1.3325,1.163,1.0717,1.0717,1.0717,1.0717,1.0717,1.0717,1.0717,1.0717,1.0717,1.0717,1.0717,1.0717,1.0717,1.0717,1.0717,1.0717,1.0717,0.0,0.0,0.0,0.0,0.0,0.0,0.0,0.0,0.0,0.0,0.0,1.1389,1.1396,1.2894,1.4432,1.4432,1.5988,0.0,0.0,0.0,0.0,0.0,0.0,2.4209,2.4209,2.4676,2.4983,2.469,2.4877,2.5077,2.5077,2.5077,2.5184,2.5478,2.5518,2.5518,2.5518,2.5518,2.5518,2.5518,2.5518,2.5518,2.5518,2.5251,2.509,2.5077,2.4796,2.4636,2.4636,2.4636,2.4636,2.4636,2.4636,2.4796,2.5077,2.5077,2.5077,2.5077,2.509,2.5411,2.5959,2.5959,2.6119,2.6386,2.6386,2.6386,2.6386,2.6386,2.6386,2.6386,2.6386,2.6386,2.6386,0.0,0.0,0.0,0.0,0.0,0.0,0.0,0.0,0.0,0.0,0.0,0.0,0.0,0.0,0.0,0.0,0.0,0.0,2.1049,2.1136,2.0843,2.0322,1.8628,1.64,1.403,1.1871,1.0717,1.0717,1.0717,1.0717,1.0717,1.0717,1.0717,1.0717,1.0717,1.0717,1.0717,1.0717,1.0717,1.0717,1.0717,1.0717,1.0717,0.0,0.0,0.0,0.0,0.0,0.0,0.0,0.0,0.0,0.0,0.0,1.1409,1.1518,1.2843,1.4742,1.6301,0.0,0.0,0.0,0.0,0.0,0.0,0.0,0.0,0.0,2.4649,2.481,2.493,2.5024,2.5144,2.5344,2.5384,2.5491,2.5785,2.5825,2.5905,2.6106,2.6132,2.6132,2.6132,2.6132,2.6039,2.5838,2.5745,2.5611,2.5398,2.5104,2.4943,2.4943,2.4743,2.473,2.4943,2.4943,2.509,2.5384,2.5384,2.5384,2.5384,2.5598,2.5798,2.5972,2.6172,2.6306,2.6386,2.6386,2.6386,2.6386,2.6386,2.6386,2.6386,2.6386,2.6386,2.6386,0.0,0.0,0.0,0.0,0.0,0.0,0.0,0.0,0.0,0.0,0.0,0.0,0.0,0.0,0.0,0.0,0.0,0.0,0.0,2.1109,2.1136,2.1062,1.9024,1.7033,1.4947,1.2783,1.1762,1.1762,1.0982,1.0717,1.0717,1.0717,1.0717,1.0717,1.0717,1.0717,1.0717,1.0717,1.0717,1.0717,1.0717,1.0717,1.0717,0.0,0.0,0.0,0.0,0.0,0.0,0.0,0.0,0.0,0.0,0.0,0.0,1.2437,1.4014,1.6028,1.8233,0.0,0.0,0.0,0.0,0.0,0.0,0.0,0.0,0.0,2.4823,2.4997,2.5064,2.5264,2.5491,2.5665,2.5692,2.5798,2.6092,2.6132,2.6199,2.6373,2.6386,2.6386,2.6386,2.6386,2.6319,2.6146,2.6026,2.5879,2.5692,2.5411,2.5251,2.5251,2.5077,2.5077,2.5251,2.5251,2.5398,2.5692,2.5692,2.5745,2.5865,2.5932,2.6012,2.6132,2.6319,2.6386,2.6386,2.6386,2.6386,2.6386,2.6386,2.6386,2.6386,2.6386,2.6386,2.6386,0.0,0.0,0.0,0.0,0.0,0.0,0.0,0.0,0.0,0.0,0.0,0.0,0.0,0.0,0.0,0.0,0.0,0.0,0.0,0.0,2.1049,2.1054,1.948,1.7731,1.6172,1.4232,1.3325,1.3325,1.1505,1.0717,1.0717,1.0717,1.0717,1.0717,1.0717,1.0717,1.0717,1.0717,1.0717,1.0717,1.0717,1.0717,1.0717,1.0717,0.0,0.0,0.0,0.0,0.0,0.0,0.0,0.0,0.0,0.0,1.19,1.3872,1.5698,1.7721,0.0,0.0,0.0,0.0,0.0,0.0,0.0,2.4636,2.4649,2.4676,0.0,2.5411,2.5197,2.5598,2.5959,2.5999,2.5999,2.6092,2.636,2.6386,2.6386,2.6386,2.6386,2.6386,2.6386,2.6386,2.6386,2.6386,2.6146,2.5999,2.5999,2.5718,2.5558,2.5558,2.5531,2.5531,2.5558,2.5558,2.5705,2.5999,2.5999,2.6132,2.6386,2.6119,2.6146,2.6386,2.6386,2.6386,2.6386,2.6386,2.6386,2.6386,2.6386,2.6386,2.6386,2.6386,2.6386,2.6386,0.0,0.0,0.0,0.0,0.0,0.0,0.0,0.0,0.0,0.0,0.0,0.0,0.0,0.0,0.0,0.0,0.0,0.0,0.0,0.0,2.1122,2.1162,1.9431,1.8372,1.7988,1.4874,1.3325,1.3325,1.1505,1.0717,1.0717,1.0717,1.0717,1.0717,1.0717,1.0717,1.0717,1.0717,1.0717,1.0717,1.0717,1.0717,1.0717,1.0717,1.0717,0.0,0.0,0.0,0.0,0.0,0.0,0.0,1.1797,1.1497,1.19,1.3872,1.5698,1.7762,0.0,0.0,0.0,0.0,0.0,0.0,0.0,2.4636,2.4703,2.493,2.509,2.5291,2.5692,2.5879,2.6039,2.6266,2.6293,2.6319,2.6386,2.6386,2.6386,2.6386,2.6386,2.6386,2.6386,2.6386,2.6386,2.6386,2.6333,2.6293,2.6293,2.6026,2.5865,2.5865,2.5638,2.5625,2.5865,2.5865,2.6012,2.6293,2.6293,2.6333,2.6386,2.6319,2.6333,2.6386,2.6386,2.6386,2.6386,2.6386,2.6386,2.6386,2.6386,2.6386,2.6386,2.6386,2.6386,2.6386,0.0,0.0,0.0,0.0,0.0,0.0,0.0,0.0,0.0,0.0,0.0,0.0,0.0,0.0,0.0,0.0,0.0,0.0,0.0,0.0,2.1109,2.1109,2.0195,1.9801,1.9801,1.6302,1.4484,1.4484,1.2025,1.0717,1.0717,1.0717,1.0717,1.0717,1.0717,1.0717,1.0717,1.0717,1.0717,1.0717,1.0717,1.124,1.1894,1.1894,1.2413,1.3202,1.3426,0.0,0.0,0.0,0.0,0.0,0.0,0.0,1.4725,1.6545,1.7882,1.9334,0.0,0.0,0.0,0.0,0.0,0.0,0.0,2.4743,2.493,2.5224,2.5291,2.5424,2.5879,2.6066,2.6213,2.636,2.6386,2.6386,2.6386,2.6386,2.6386,2.6386,2.6386,2.6386,2.6386,2.6386,2.6386,2.6386,2.6386,2.6386,2.6386,2.6239,2.6159,2.6159,2.6012,2.6012,2.6159,2.6159,2.6239,2.6386,2.6386,2.6386,2.6386,2.6386,2.6386,2.6386,2.6386,2.6386,2.6386,2.6386,2.6386,2.6386,2.6386,2.6386,2.6386,2.6386,2.6386,2.6386,0.0,0.0,0.0,0.0,0.0,0.0,0.0,0.0,0.0,0.0,0.0,0.0,0.0,0.0,0.0,0.0,0.0,0.0,0.0,0.0,0.0,2.1109,2.1109,2.1109,2.1109,1.7731,1.5913,1.5913,1.2444,1.0758,0.0,1.0731,1.0717,1.0717,1.0717,1.0717,1.0717,1.0982,1.1108,1.124,1.1505,1.2561,1.3892,1.3892,1.4828,1.6055,1.6369,1.5662,1.4818,1.6519,0.0,0.0,0.0,0.0,1.7529,1.9495,2.0239,2.0922,0.0,0.0,0.0,0.0,0.0,0.0,0.0,2.4863,2.5157,2.5451,2.5558,2.5678,2.5972,2.6226,2.6386,2.6386,2.6386,2.6386,2.6386,2.6386,2.6386,2.6386,2.6386,2.6386,2.6386,2.6386,2.6386,2.6386,2.6386,2.6386,2.6386,2.6386,2.6386,2.6386,2.6386,2.6386,2.6386,2.6386,2.6386,2.6386,2.6689,2.6689,2.6386,2.7162,2.7004,2.6386,2.6386,2.6386,2.6386,2.6386,2.6386,2.6386,2.6386,2.6386,2.6386,2.6386,2.6386,2.6386,0.0,0.0,0.0,0.0,0.0,0.0,0.0,0.0,0.0,0.0,0.0,0.0,0.0,0.0,0.0,0.0,0.0,0.0,0.0,0.0,0.0,2.1109,2.1109,2.1109,2.1109,1.7731,1.5913,1.5913,1.257,0.0,0.0,0.0,0.0,1.0717,1.0717,1.0717,1.085,1.2281,1.2931,1.3062,1.4623,1.5512,1.5942,1.5942,1.6318,1.6624,1.6789,1.7733,1.8744,1.7444,1.8015,0.0,0.0,0.0,1.7529,1.9495,2.0239,0.0,0.0,0.0,0.0,0.0,0.0,0.0,0.0,0.0,2.5157,0.0,2.5718,2.5985,2.6279,2.636,2.6386,2.6386,2.6386,2.6386,2.6386,2.6386,2.6386,2.6386,2.6386,2.6386,2.6386,2.6386,2.6386,2.6386,2.6386,2.6386,2.6386,2.6386,2.6386,2.6386,2.6386,2.6386,2.6386,2.6386,2.6386,2.6386,2.8232,2.8076,2.6544,3.0068,2.9759,2.6386,2.6386,2.6386,2.6386,2.6386,2.6386,2.6386,2.6386,2.6386,2.6386,2.6386,2.6386,2.6386,0.0,0.0,0.0,0.0,0.0,0.0,0.0,0.0,0.0,0.0,0.0,0.0,0.0,0.0,0.0,0.0,0.0,0.0,0.0,0.0,0.0,2.1109,2.1109,2.1109,2.1109,1.864,1.7345,1.7345,0.0,0.0,0.0,1.3629,1.3503,0.0,0.0,1.31,1.4165,1.4957,1.5224,1.5357,1.6155,1.7145,1.8039,1.8039,1.8772,1.9699,1.9843,1.984,1.9687,2.0114,2.0233,2.0201,2.0328,0.0,0.0,0.0,2.2052,0.0,0.0,0.0,0.0,0.0,0.0,0.0,0.0,0.0,2.5358,2.5491,2.5879,2.6239,2.636,2.6386,2.6386,2.6386,2.6386,2.6386,2.6386,2.6386,2.6386,2.6386,2.6386,2.6386,2.6386,2.6386,2.6386,2.6386,2.6386,2.6386,2.6386,2.6386,2.6386,2.6386,2.6386,2.6386,2.6386,2.6386,2.7004,2.8076,2.8983,2.9604,2.9913,3.0515,2.9743,2.8076,2.8076,2.8076,2.7919,2.6847,2.6386,2.6386,2.6386,2.6386,2.6386,2.6386,2.6386,2.6386,0.0,0.0,0.0,0.0,0.0,0.0,0.0,0.0,0.0,0.0,0.0,0.0,0.0,0.0,0.0,0.0,0.0,0.0,0.0,0.0,0.0,2.1109,2.1109,2.1109,2.1109,1.9419,1.8536,0.0,0.0,0.0,1.4423,1.6099,1.6479,0.0,1.501,1.5498,1.684,1.7244,1.7524,1.7524,1.7927,1.891,2.0184,2.0184,2.1047,2.2231,2.2458,2.1565,2.0625,2.2369,2.2022,2.1044,2.2448,2.2859,0.0,0.0,0.0,0.0,0.0,0.0,0.0,0.0,0.0,0.0,0.0,0.0,2.5531,0.0,2.6026,2.6386,2.6386,2.6386,2.6386,2.6386,2.6386,2.6386,2.6386,2.6386,2.6386,2.6386,2.6386,2.6386,2.6386,2.6386,2.6386,2.6386,2.6386,2.6386,2.6386,2.6386,2.6386,2.6386,2.6386,2.6386,2.6386,2.6386,2.7462,2.9449,2.9898,3.0977,3.2505,3.2032,3.1421,3.0961,2.9898,2.9449,2.9293,2.7762,2.6847,2.6386,2.6386,2.6386,2.6386,2.6386,2.6386,2.6386,0.0,0.0,0.0,0.0,0.0,0.0,0.0,0.0,0.0,0.0,0.0,0.0,2.1109,2.1109,2.1109,2.1109,2.1109,2.1109,2.1109,2.1109,2.1109,2.1109,2.1109,0.0,2.1109,1.9419,1.863,0.0,0.0,0.0,1.6884,1.7106,1.8057,1.9715,1.758,1.6716,1.684,1.8596,1.9276,1.9409,2.104,2.1885,2.2257,2.2257,2.243,2.2819,2.2832,2.2832,2.2696,2.2859,2.2859,2.2722,2.2859,2.2859,2.2859,0.0,0.0,0.0,0.0,0.0,0.0,0.0,0.0,0.0,0.0,0.0,2.5598,2.5879,2.6172,2.6386,2.6386,2.6386,2.6386,2.6386,2.6386,2.6386,2.6386,2.6386,2.6386,2.6386,2.6386,2.6386,2.6386,2.6386,2.6386,2.6386,2.6386,2.6386,2.6386,2.6386,2.6386,2.6386,2.6386,2.6386,2.6386,2.6386,2.7462,2.9449,3.1437,3.2353,3.2657,3.6442,3.7032,3.49,3.1115,2.9449,2.9449,2.9293,2.8076,2.6386,2.6386,2.6386,2.6386,2.6386,2.6386,2.6386,0.0,0.0,0.0,0.0,0.0,0.0,0.0,0.0,0.0,0.0,0.0,0.0,0.0,2.1109,2.1109,2.1109,2.1109,2.1109,2.1109,2.1109,2.1109,2.1109,2.1109,2.1109,2.1109,2.0462,0.0,0.0,0.0,1.9551,1.8709,2.0209,2.0617,2.0051,1.9301,1.9632,2.0737,2.1429,2.1713,2.1713,2.2268,2.2605,2.2699,2.2699,2.2766,2.2859,2.2859,2.2859,2.2859,2.2859,2.2859,2.2859,2.2859,2.2859,2.2939,2.3327,2.3594,0.0,0.0,0.0,0.0,0.0,0.0,0.0,0.0,2.517,2.5545,2.5651,2.6052,2.6386,2.6386,2.6386,2.6386,2.6386,2.6386,2.6386,2.6386,2.6386,2.6386,2.6386,2.6386,2.6386,2.6386,2.6386,2.6386,2.6386,2.6386,2.6386,2.6386,2.6386,2.6386,2.6386,2.6386,2.6386,2.6386,2.7605,2.9293,3.1437,3.3398,3.5068,3.6442,3.6571,3.6885,3.7345,3.4601,3.3381,3.3079,3.05,2.8983,2.8218,2.6847,2.6386,2.6386,2.6386,2.6386,2.6386,0.0,0.0,0.0,0.0,0.0,0.0,0.0,0.0,0.0,2.1109,0.0,0.0,0.0,0.0,2.1109,2.1109,2.1109,2.1109,2.1109,2.1109,2.1109,2.1109,2.1109,2.1109,2.1109,2.1203,2.1403,0.0,0.0,0.0,0.0,2.2206,2.2297,2.1032,2.1032,2.1734,0.0,0.0,2.2859,2.2859,2.2859,2.2859,2.2859,2.2859,2.3256,2.3788,2.3788,2.4196,2.4588,2.3924,2.3788,2.3652,2.3133,2.2859,2.2979,2.3594,2.3768,0.0,0.0,0.0,0.0,0.0,0.0,0.0,0.0,0.0,2.5545,2.5638,2.6052,2.6386,2.6386,2.6386,2.6386,2.6386,2.6386,2.6386,2.6386,2.6386,2.6386,2.6386,2.6386,2.6386,2.6386,2.6386,2.6386,2.6386,2.6386,2.6386,2.6386,2.6386,2.6386,2.6386,2.6386,2.6689,2.7462,2.8686,3.0807,3.3549,3.49,3.6571,3.8574,3.7198,3.7345,3.8574,3.7179,3.6109,3.5199,3.1879,3.0053,2.9138,2.7148,2.6386,2.6386,2.6386,2.6386,2.6386,0.0,0.0,0.0,0.0,0.0,0.0,0.0,0.0,2.1109,2.1109,0.0,0.0,0.0,0.0,0.0,2.1235,2.1109,2.1109,2.1109,2.1109,2.1109,2.1109,2.1109,2.1109,2.1109,2.1403,2.1697,0.0,0.0,0.0,0.0,0.0,2.2859,2.2859,2.2859,2.2859,2.2859,0.0,2.2859,2.2859,2.2996,2.2996,2.2996,2.2996,2.406,2.5651,2.5651,2.6706,2.79,2.6039,2.5517,2.5248,2.3529,2.301,2.2993,2.3594,2.3781,0.0,0.0,0.0,0.0,0.0,0.0,0.0,2.501,0.0,2.5598,2.5892,2.6186,2.6386,2.6386,2.6386,2.6386,2.6386,2.6386,2.6386,2.6386,2.6386,2.6386,2.6386,2.6386,2.6386,2.6386,2.6386,2.6386,2.6386,2.6386,2.6386,2.6386,2.6386,2.6386,2.6386,2.6386,2.7305,2.9449,2.9449,3.1574,3.5497,3.5497,3.6571,3.8574,3.8574,3.8574,3.8574,3.8574,3.7492,3.5497,3.3398,3.1437,2.9308,2.7305,2.64,2.64,2.6386,2.6386,2.6386,0.0,0.0,0.0,0.0,0.0,0.0,2.1109,2.1109,2.1109,0.0,0.0,0.0,2.2952,2.3915,2.4163,2.2952,2.2952,2.2341,2.1235,2.1109,2.1109,2.1109,2.1109,2.1109,2.1109,2.1403,2.1697,0.0,0.0,2.2565,2.2859,2.2859,2.2859,0.0,2.2859,2.2859,2.2859,2.2859,0.0,2.2996,2.4331,2.4723,2.4993,2.6188,2.6972,2.7503,2.7503,2.7768,2.79,2.6039,2.6306,2.7105,2.5383,2.4092,2.3273,2.3661,2.3915,0.0,2.4529,0.0,0.0,0.0,0.0,0.0,2.501,0.0,2.5598,2.5892,2.6186,2.6386,2.6386,2.6386,2.6386,2.6386,2.6386,2.6386,2.6386,2.6386,2.6386,2.6386,2.6386,2.6386,2.6386,2.6386,2.6386,2.6386,2.6386,2.6386,2.6386,2.6386,2.6386,2.6386,2.6386,2.7305,2.9449,3.0823,3.2944,3.5497,3.7032,3.8097,3.8574,3.8574,3.8574,3.8574,3.8574,3.8263,3.7639,3.5515,3.3551,3.1772,2.9383,2.7745,2.668,2.6466,2.6386,2.6386,0.0,0.0,0.0,0.0,0.0,0.0,2.1109,2.1109,2.1362,0.0,0.0,0.0,2.4532,2.5497,2.5619,2.4655,2.4655,2.4163,2.3186,2.2577,2.209,2.209,2.1475,2.1109,2.1109,2.1523,2.1817,2.1991,2.2405,2.2699,2.2859,2.2859,2.2859,2.2859,0.0,0.0,0.0,0.0,0.0,2.2996,2.4858,2.5517,2.5651,2.7503,2.8689,2.9344,2.9344,2.9735,3.0142,2.8279,2.7467,2.7059,2.5982,2.4744,2.3567,2.3861,2.4075,0.0,0.0,0.0,0.0,2.4636,0.0,0.0,2.485,2.5211,2.5558,2.5732,2.6106,2.6386,2.6386,2.6386,2.6386,2.6386,2.6386,2.6386,2.6386,2.6386,2.6386,2.6386,2.6386,2.6386,2.6386,2.6386,2.6386,2.6386,2.6386,2.6386,2.6386,2.6386,2.6386,2.6386,2.7148,2.8686,3.0669,3.2792,3.4769,3.6885,3.7951,3.8574,3.8574,3.8574,3.8574,3.8574,3.8574,3.8574,3.8574,3.7345,3.5192,3.2495,3.0437,2.8447,2.6613,2.6453,2.6386,2.6386,0.0,0.0,0.0,0.0,0.0,0.0,2.1362,2.1475,2.2215,0.0,2.4054,2.4778,2.6349,2.6591,2.647,2.6227,2.6227,2.6227,2.5968,2.4532,2.3574,2.3574,2.1978,2.1109,2.1109,2.1683,2.1991,2.1991,2.2579,2.2859,2.2859,2.2859,2.2859,2.2859,0.0,0.0,0.0,0.0,0.0,2.3393,2.5113,2.5786,2.6039,2.8032,2.9735,3.1047,3.1047,3.2091,3.3165,3.1616,2.8959,2.6284,2.6588,2.549,2.4147,2.4404,2.4367,0.0,0.0,2.4636,2.4636,2.4636,2.4636,0.0,2.4676,2.5117,2.5518,2.5558,2.5999,2.6386,2.6386,2.6386,2.6386,2.6386,2.6386,2.6386,2.6386,2.6386,2.6386,2.6386,2.6386,2.6386,2.6386,2.6386,2.6386,2.6386,2.6386,2.6386,2.6386,2.6386,2.6386,2.6386,2.8374,3.0361,3.2505,3.4451,3.6571,3.8574,3.8574,3.8574,3.8574,3.8574,3.8574,3.8574,3.8574,3.8574,3.8574,3.8633,3.6201,3.2435,3.0872,2.8805,2.6426,2.64,2.6386,2.6386,2.1109,0.0,0.0,0.0,0.0,0.0,2.3076,2.4163,2.513,2.5497,2.6712,2.8068,2.9785,2.9903,2.9412,2.8051,2.7931,2.7314,2.6106,2.4532,2.3574,2.3574,2.1978,2.1109,2.1109,2.1683,2.1991,2.1991,2.2579,2.2859,2.2859,2.2859,2.2859,2.2859,0.0,0.0,0.0,0.0,0.0,2.5113,2.6972,2.7635,2.8032,3.1176,3.2638,3.2892,3.2892,3.3146,3.3476,3.3425,3.1181,2.8607,3.0407,2.8834,2.6339,2.6398,2.5492,2.4569,2.4623,2.4636,2.4636,2.4636,2.4636,0.0,2.4943,2.5264,2.5585,2.5825,2.6146,2.6386,2.6386,2.6386,2.6386,2.6386,2.6386,2.6386,2.6386,2.6386,2.6386,2.6386,2.6386,2.6386,2.6386,2.6386,2.6386,2.6386,2.6386,2.6386,2.6386,2.6386,2.6386,2.6386,2.8374,3.0361,3.2505,3.4451,3.6571,3.8574,3.8574,3.8574,3.8574,3.8574,3.8574,3.8574,3.8574,3.8574,3.8613,3.8945,3.6604,3.2747,3.2227,2.9814,2.6707,2.648,2.6386,2.6386,2.1109,0.0,0.0,0.0,0.0,0.0,2.4778,2.5497,2.6349,2.7073,2.8664,3.002,3.0762,3.0898,3.0528,2.9766,2.9648,2.9294,2.8545,2.697,2.5635,2.4778,2.3201,2.1978,2.1109,2.1683,2.1991,2.1991,2.2579,2.2859,2.2859,2.2859,2.3393,2.4196,2.3256,0.0,0.0,0.0,2.3924,2.5651,2.7503,2.8689,2.9735,3.2365,3.3418,3.3418,3.3418,3.3555,3.3809,3.4238,3.2766,3.0785,3.1944,3.0581,2.8491,2.7508,2.6648,2.5786,2.4918,2.4636,2.4636,2.4636,2.4636,0.0,0.0,2.509,2.5384,2.5678,2.5972,2.6213,2.636,2.6386,2.6386,2.6386,2.6386,2.6386,2.6386,2.6386,2.6386,2.6386,2.6386,2.6386,2.6386,2.6386,2.6386,2.6386,2.6386,2.6386,2.6386,2.6386,2.6386,2.6386,2.9293,3.1437,3.2505,3.5515,3.7492,3.8574,3.8574,3.8574,3.8574,3.8574,3.8574,3.8574,3.8574,3.8574,3.8594,3.8809,3.6439,3.2769,3.2769,3.0312,2.6587,2.644,2.6386,2.6386,2.209,0.0,0.0,0.0,0.0,0.0,0.0,2.6712,2.7452,2.8664,3.002,3.0898,3.0898,3.0898,3.0898,3.0898,3.0898,3.0898,3.0898,2.9275,2.7811,2.647,2.4901,2.3325,2.1601,2.2189,2.2372,2.1991,2.2579,2.2859,2.2859,2.2859,2.3665,2.4979,2.3924,0.0,0.0,0.0,0.0,2.6706,2.8163,2.9605,3.1029,3.2765,3.3418,3.3437,3.3516,3.3828,3.4258,3.4687,3.4089,3.3002,3.3093,3.2052,3.0451,2.8629,2.778,2.707,2.5065,2.4636,2.4636,2.4636,2.4636,2.4636,0.0,0.0,0.0,2.5384,2.5705,2.6026,2.6266,2.636,2.6373,2.6319,2.636,2.6373,2.6319,2.636,2.6386,2.6386,2.6386,2.6386,2.6386,2.6386,2.6386,2.6386,2.6386,2.6386,2.6386,2.6689,2.7004,2.7004,3.0977,3.3095,3.3095,3.6737,3.8574,3.8574,3.8574,3.8574,3.8574,3.8574,3.8574,3.8574,3.8574,3.8574,3.8574,3.8574,3.6146,3.2522,3.2819,3.0297,2.6386,2.6386,2.6386,2.6386,2.5497,2.5619,0.0,0.0,0.0,0.0,0.0,2.9412,0.0,0.0,0.0,3.0898,3.0898,3.0898,3.0898,3.0898,3.0898,3.0898,3.0898,2.9275,2.8307,2.817,2.6591,2.5024,2.3325,2.3833,2.3392,2.1991,2.2579,2.2859,2.2859,2.2859,2.2996,2.3256,2.4588,0.0,0.0,0.0,2.8558,0.0,3.0384,3.0642,3.1029,3.2765,3.3418,3.3476,3.3867,3.4277,3.4707,3.5156,3.5218,3.5162,3.5549,3.4415,3.2455,3.0593,2.8772,2.707,2.5065,2.4636,2.4636,2.4636,2.4636,2.4636,2.4636,0.0,2.509,2.5117,0.0,2.5972,2.5999,0.0,0.0,2.6052,2.6226,2.6306,2.6039,2.6226,2.6386,2.6386,2.6386,2.6386,2.6386,2.6386,2.6386,2.6386,2.6386,2.6386,2.6386,2.8076,2.8983,2.8983,3.3079,3.5199,3.5199,3.7492,3.8574,3.8574,3.8574,3.8574,3.8574,3.8574,3.8574,3.8574,3.8574,3.8574,3.8574,3.8574,3.6146,3.2505,3.2538,3.0098,2.6386,2.6386,2.6386,2.6386,2.6227,2.6712,0.0,0.0,0.0,0.0,0.0,3.0392,0.0,0.0,0.0,3.0898,3.0898,3.0898,3.0898,3.0898,3.0898,3.0898,3.0898,3.0274,2.9412,2.8426,2.6832,2.5349,2.3843,2.3293,2.2704,2.2231,2.2659,2.2859,2.2859,2.2859,2.3393,2.4452,2.5113,0.0,2.7105,0.0,2.935,0.0,3.0861,3.158,3.2706,3.3243,3.3574,3.3887,3.459,3.4941,3.5176,3.5605,3.5762,3.5781,3.5957,3.5451,3.4158,3.1158,2.9741,2.8485,2.5345,2.5345,2.6078,2.4918,2.5492,2.5932,2.4918,2.473,2.4877,2.5037,0.0,0.0,0.0,0.0,0.0,0.0,2.6199,2.6346,2.6226,2.6319,2.6386,2.6386,2.6386,2.6386,2.6386,2.6386,2.6386,2.6386,2.6386,2.6847,2.8076,2.8983,2.9898,3.113,3.4001,3.5497,3.5497,3.7492,3.8574,3.8574,3.8574,3.8574,3.8574,3.8574,3.8574,3.8574,3.8574,3.8574,3.8574,3.8574,3.6146,3.2505,3.2505,3.0068,2.6386,2.6386,2.6386,2.6386,2.7572,0.0,0.0,0.0,0.0,0.0,0.0,3.0898,3.0898,3.0898,3.0898,3.0898,3.0898,3.0898,3.0898,3.0898,3.0898,3.0898,3.0898,3.0898,3.0449,2.9324,2.8091,2.6912,2.5549,2.4242,2.337,2.3209,2.2984,2.2859,2.2859,2.2859,2.3529,2.4858,0.0,2.6972,2.8295,0.0,3.0562,3.1874,3.169,3.2611,3.4043,3.373,3.3945,3.4512,3.5156,3.5469,3.5605,3.5918,3.6016,3.6016,3.6016,3.6016,3.5314,3.2018,3.1017,3.031,2.6488,2.6502,2.707,2.5065,2.5639,2.6357,2.4918,2.4636,2.4703,2.4917,2.5024,0.0,0.0,0.0,2.5812,2.5732,0.0,2.6119,2.6039,2.6172,2.6306,2.6373,2.6386,2.6386,2.6386,2.6386,2.6386,2.6386,2.6386,2.7305,2.9293,2.9898,3.1115,3.3247,3.5366,3.6423,3.6423,3.7805,3.8574,3.8574,3.8574,3.8574,3.8574,3.8574,3.8574,3.8574,3.8574,3.8574,3.8574,3.8574,3.6146,3.2505,3.2505,3.0068,2.6386,2.6386,2.6386,2.6386,3.0762,3.0762,0.0,0.0,0.0,0.0,3.0898,3.0898,3.0898,3.0898,3.0898,3.0898,3.0898,3.0898,3.0898,3.0898,3.0898,3.0898,3.0898,3.0898,3.1074,3.1365,3.1365,3.0819,2.9563,2.806,2.6581,2.5039,2.3649,0.0,0.0,2.2859,2.2859,2.3133,2.6573,2.8163,2.8427,3.1835,3.3292,3.3311,3.3292,3.3672,3.4082,3.4062,3.459,3.5351,3.5391,3.5664,3.5996,3.6016,3.6016,3.6016,3.6016,3.6016,3.5587,3.3743,3.317,3.2316,2.8501,2.7505,2.707,2.5065,2.4636,2.4636,2.4636,2.4636,2.4636,2.4649,2.4877,2.5077,2.509,2.5331,2.5438,2.5157,2.5344,0.0,0.0,2.5611,2.6079,2.636,2.6386,2.6386,2.6386,2.6386,2.6386,2.6386,2.6386,2.7305,2.9293,3.1284,3.3247,3.5348,3.7345,3.8574,3.8574,3.8574,3.8574,3.8574,3.8574,3.8574,3.8574,3.8574,3.8574,3.8574,3.8574,3.8574,3.8574,3.8574,3.6146,3.2505,3.2505,3.0068,2.6386,2.6386,2.6386,2.6386,0.0,0.0,0.0,0.0,0.0,3.0898,3.0898,3.0898,3.0898,3.0898,3.0898,3.0898,3.0898,3.0898,3.0898,3.0898,3.0898,3.1016,3.1289,3.1055,3.1211,3.1914,3.066,2.9959,2.9978,2.8452,2.6823,2.5353,2.4935,0.0,0.0,0.0,2.3529,2.4723,2.7105,2.8821,0.0,0.0,0.0,3.3887,3.416,3.4531,3.4941,3.4941,3.5137,3.543,3.5703,3.5898,3.6016,3.6016,3.6016,3.6016,3.6016,3.6016,3.5587,3.3743,3.317,3.2595,3.0042,3.0326,3.0751,2.89,2.8326,2.8053,2.6779,2.5492,2.4636,2.4636,2.4716,2.4783,2.4783,2.5024,2.5197,2.509,2.5331,2.5478,0.0,2.5531,2.5772,2.6066,2.6279,2.6386,2.6386,2.6386,2.6386,2.6386,2.6386,2.7305,2.9293,3.1437,3.3398,3.5497,3.7492,3.8574,3.8574,3.8574,3.8574,3.8574,3.8574,3.8574,3.8574,3.8574,3.8574,3.8574,3.8574,3.8574,3.8428,3.7179,3.4918,3.2353,3.0977,2.8842,2.6386,2.6386,2.6386,2.6386,3.0898,0.0,0.0,0.0,3.0898,3.0898,3.0898,3.0898,3.0898,3.0898,3.0898,3.0898,3.0898,3.0898,3.0957,3.1094,3.1113,3.1289,3.1719,3.1504,3.166,3.2363,3.1096,3.0754,3.1299,2.9626,2.8307,2.7354,2.6706,2.592,0.0,0.0,0.0,2.6573,0.0,2.9735,3.09,3.2619,3.3672,3.4121,3.4707,3.5137,3.541,3.5566,3.5605,3.5644,3.5918,3.6016,3.6016,3.6016,3.6016,3.6016,3.6016,3.6016,3.5743,3.459,3.4176,3.3743,3.1878,3.2316,3.2735,3.0734,3.031,3.0026,2.8772,2.749,2.6634,2.6634,2.6634,2.6634,2.6634,2.6234,2.5931,2.5931,2.5514,2.5237,0.0,2.5358,2.5464,2.5772,2.6052,2.6279,2.6373,2.7004,2.7148,2.6386,2.7004,2.8374,3.0361,3.1743,3.3717,3.6571,3.7951,3.8574,3.8574,3.8574,3.8574,3.8574,3.8574,3.8574,3.8574,3.8574,3.8574,3.8574,3.8574,3.8117,3.7345,3.6109,3.385,3.1284,2.9898,2.8218,2.6386,2.6386,2.6386,2.6386,0.0,3.0918,3.0918,3.0918,3.0898,3.0898,3.0918,3.0918,3.0937,3.0957,3.0957,3.0957,3.0957,3.0957,3.1113,3.1504,3.1543,3.1738,3.2168,3.2187,3.2363,3.2812,3.2812,3.2988,3.3418,3.1835,3.09,3.0771,2.9083,2.8295,0.0,0.0,0.0,0.0,3.0125,0.0,3.1029,3.2746,3.3691,3.418,3.5039,3.541,3.5469,3.5859,3.6016,3.6016,3.6016,3.6016,3.6016,3.6016,3.6016,3.6016,3.6016,3.6016,3.6016,3.6016,3.6016,3.5587,3.3882,3.3309,3.2874,3.1017,3.0451,3.0451,3.0451,3.031,3.031,3.031,3.031,3.031,3.0168,2.8772,2.7505,2.736,2.5786,2.473,2.5024,2.5064,2.517,2.5464,2.5899,2.6208,2.6346,2.8218,2.8686,2.6689,2.8374,3.0361,3.2353,3.2657,3.4469,3.8263,3.8574,3.8574,3.8574,3.8574,3.8574,3.8574,3.8574,3.8574,3.8574,3.8574,3.8574,3.8574,3.8574,3.7492,3.5497,3.5348,3.2927,2.9449,2.9293,2.8076,2.6386,2.6386,2.6386,2.6386,3.0898,3.1133,3.1367,3.1367,3.1094,3.0996,3.1309,3.1367,3.1465,3.1797,3.1836,3.1836,3.1836,3.1836,3.1875,3.1992,3.2012,3.2187,3.2598,3.2344,3.25,3.3223,3.2969,3.2988,3.3418,3.3019,3.2091,3.0771,3.0384,2.9474,2.8163,0.0,0.0,0.0,0.0,0.0,3.2765,3.3165,3.3848,3.459,3.5156,3.5586,3.5879,3.5976,3.6016,3.6016,3.6016,3.6016,3.6016,3.6016,3.6016,3.6016,3.6016,3.6016,3.6016,3.6016,3.6016,3.5879,3.5451,3.5295,3.5158,3.4727,3.3448,3.2455,3.2455,3.1299,3.031,3.031,3.031,2.9884,2.8485,2.778,2.707,2.5639,2.4918,2.4663,2.4743,2.4756,2.4863,2.5157,2.6777,2.7392,2.6195,2.8089,2.9138,2.8686,3.0515,3.1896,3.2505,3.385,3.5217,3.6275,3.7805,3.8574,3.8574,3.8574,3.8574,3.8574,3.8574,3.8574,3.8574,3.8574,3.8574,3.8574,3.8574,3.7492,3.5348,3.385,3.1727,2.9293,2.7762,2.6847,2.6386,2.6386,2.6386,2.6386,3.1172,3.1504,3.1797,3.1797,3.2177,3.2529,3.2771,3.2256,3.2116,3.3035,3.2633,3.2168,3.2168,3.2168,3.2246,3.2422,3.2441,3.2617,3.3047,3.2851,3.293,3.3398,3.3184,3.3184,3.3418,3.3418,3.2892,3.1963,3.1963,3.1451,3.0531,0.0,0.0,0.0,0.0,3.2587,3.373,3.4121,3.457,3.5039,3.5488,3.5801,0.0,3.6016,3.6016,3.6016,3.6016,3.6016,3.6016,3.6016,3.6016,3.6016,3.6016,3.6016,3.6016,3.6016,3.6016,3.6016,3.6016,3.6016,3.6016,3.6016,3.5158,3.4452,3.4452,3.3586,3.2735,3.2735,3.2735,3.2455,3.1474,2.99,2.778,2.5065,2.4636,2.4636,2.4636,2.4636,2.4703,2.4863,2.6168,2.6777,2.5886,2.9625,3.0977,2.8218,3.0823,3.2505,3.2505,3.3549,3.5068,3.6737,3.797,3.8574,3.8574,3.8574,3.8574,3.8574,3.8574,3.8574,3.8574,3.8574,3.8574,3.8574,3.8574,3.6885,3.4151,3.2961,3.0823,2.7919,2.6847,2.6386,2.6386,2.6386,2.6386,2.6386,3.1601,3.1953,3.2246,3.2246,3.3557,3.4728,3.4728,3.3656,3.3316,3.4274,3.3357,3.2568,3.2324,3.2344,3.248,3.2851,3.2871,3.3027,3.3398,3.3418,3.3418,3.3418,3.3418,3.3418,3.3418,3.3418,3.3418,3.3418,3.3418,3.3418,0.0,0.0,0.0,0.0,0.0,0.0,0.0,3.5039,3.5391,3.543,3.5859,3.6016,3.6016,3.6016,3.6016,3.6016,3.6016,3.6016,3.6016,3.6016,3.6016,3.6016,3.6016,3.6016,3.6016,3.6016,3.6016,3.6016,3.6016,3.6016,3.6016,3.6016,3.6016,3.6016,3.6016,3.6016,3.6016,3.6016,3.6016,3.5879,3.5724,3.2735,2.9171,2.5918,2.5345,2.5345,2.5345,2.5345,2.5198,2.5065,2.5472,0.0,2.5424,3.1093,3.2439,2.7148,3.0361,3.2657,3.2944,3.2944,3.4619,3.8428,3.8574,3.8574,3.8574,3.8574,3.8574,3.8574,3.8574,3.8613,3.8652,3.8652,3.8691,3.875,3.875,3.6608,3.3095,3.3044,3.0562,2.6847,2.6847,2.6702,2.6386,2.6386,2.6386,2.6386,3.2051,3.2402,3.2676,3.2676,3.4268,3.5554,3.5554,3.6199,3.5875,3.3853,3.4492,3.4615,3.3309,3.3203,3.3242,3.3301,3.332,3.334,3.3418,3.3418,3.3418,3.3418,3.3418,3.3418,3.3418,3.3418,3.3418,3.3418,3.3418,3.3418,0.0,0.0,0.0,0.0,0.0,0.0,3.4629,3.5156,3.5391,3.543,3.5859,3.6016,3.6016,3.6016,3.6016,3.6016,3.6016,3.6016,3.6016,3.6016,3.6016,3.6016,3.6016,3.6016,3.6016,3.6016,3.6016,3.6016,3.6016,3.6016,3.6016,3.6016,3.6016,3.6016,3.6016,3.6016,3.6016,3.6016,3.6016,3.5587,3.402,3.1878,3.0026,2.9456,2.9313,2.9313,2.9313,2.9313,2.8757,2.7215,2.878,2.8719,2.5445,2.8218,2.9763,2.8968,3.113,3.3247,3.49,3.49,3.6127,3.8574,3.8574,3.8574,3.8574,3.8574,3.8574,3.8574,3.8574,3.875,3.9082,3.9082,3.9297,3.9668,3.9668,3.8255,3.6012,3.5709,3.2923,2.8827,2.8827,2.7919,2.6386,2.6386,2.6386,2.6386,3.2773,3.2988,3.3355,3.4184,3.5781,3.7002,3.7002,3.8964,3.9011,3.5191,3.5335,3.5211,3.3544,3.4133,3.4258,3.3418,3.3418,3.3418,3.3418,3.3418,3.3418,3.3418,3.3418,3.3418,3.3418,3.3418,3.3418,3.3418,3.3418,3.3418,3.3437,3.3652,0.0,0.0,0.0,3.4863,0.0,3.5527,3.5723,3.5742,3.5937,3.6016,3.6016,3.6016,3.6016,3.6016,3.6016,3.6016,3.6016,3.6016,3.6016,3.6016,3.6016,3.6016,3.6016,3.6016,3.6016,3.6016,3.6016,3.6016,3.6016,3.6016,3.6016,3.6016,3.6016,3.6016,3.6016,3.6016,3.6016,3.5451,3.3586,3.2455,3.1456,3.0451,3.031,3.031,3.031,3.031,3.0026,2.9043,2.9903,2.9504,2.68,2.7832,2.8851,2.9165,3.1172,3.3398,3.5348,3.5497,3.6423,3.8574,3.8574,3.8574,3.8574,3.8574,3.8574,3.8574,3.8789,3.9004,3.9199,3.9453,3.9687,3.9902,3.9902,3.8785,3.6705,3.5432,3.3681,3.1636,3.1462,3.0156,2.8303,2.7976,2.7305,2.6386,3.3842,3.3902,3.4383,3.6051,3.7604,3.858,3.8223,4.0592,4.0937,3.6881,3.6295,3.5683,3.4133,3.4736,3.4736,3.3544,3.3418,3.3418,3.3418,3.3418,3.3418,3.3418,3.3418,3.3418,3.3418,3.3418,3.3476,3.3555,3.3555,3.3594,3.3691,3.4043,3.4258,3.4375,3.5078,3.5449,3.5547,3.5879,3.6016,3.6016,3.6016,3.6016,3.6016,3.6016,3.6016,3.6016,3.6016,3.6016,3.6016,3.6016,3.6016,3.6016,3.6016,3.6016,3.6016,3.6016,3.6016,3.6016,3.6016,3.6016,3.6016,3.6016,3.6016,3.6016,3.6016,3.6016,3.6016,3.6016,3.6016,3.5587,3.402,3.3743,3.3309,3.1738,3.1456,3.1456,3.1456,3.1456,3.1299,3.1017,3.0876,3.0316,2.8673,2.8432,2.8762,2.9534,3.1077,3.2792,3.4751,3.5199,3.6423,3.8574,3.8574,3.8574,3.8574,3.8574,3.8574,3.8574,3.9004,3.9258,3.9355,3.9824,4.0078,4.0176,4.0176,3.9147,3.7484,3.5902,3.4898,3.4328,3.4041,3.2683,3.079,2.9904,2.8575,2.7196,3.5314,3.556,3.6051,3.7746,3.9288,3.9873,3.8461,3.9639,4.0129,3.8223,3.7985,3.7385,3.5806,3.4383,3.3544,3.3418,3.3418,3.3418,3.3418,3.3418,3.3418,3.3418,3.3418,3.3418,3.3418,3.3418,3.3613,3.4004,3.4004,3.4199,3.459,3.4609,3.4863,3.5273,3.5351,3.5605,3.5957,3.5996,3.6016,3.6016,3.6016,3.6016,3.6016,3.6016,3.6016,3.6016,3.6016,3.6016,3.6016,3.6016,3.6016,3.6016,3.6016,3.6016,3.6016,3.6016,3.6016,3.6016,3.6016,3.6016,3.6016,3.6016,3.6016,3.6016,3.6016,3.6016,3.6016,3.6016,3.6016,3.6016,3.5743,3.5743,3.5724,3.5451,3.5451,3.5451,3.5451,3.5451,3.4883,3.317,3.2874,3.2316,3.0821,2.9307,2.9348,3.1479,3.0467,3.0669,3.2657,3.4451,3.6423,3.8574,3.8574,3.8574,3.8574,3.8574,3.8574,3.8574,3.9004,3.9414,3.9844,4.0273,4.0684,4.1055,4.1055,4.0666,4.0143,3.997,3.8476,3.6551,3.6515,3.5244,3.3215,3.1128,3.0331,2.9865,3.7144,3.7243,3.7723,3.9405,4.0129,4.0707,4.1076,4.1672,4.1541,4.0176,3.8999,3.7265,3.4612,3.4612,3.4507,3.3544,3.3418,3.3535,3.3789,3.3809,3.3926,3.418,3.418,3.418,3.418,3.418,3.4277,3.4453,3.4453,3.4531,3.4707,3.498,3.5351,3.5762,3.5762,3.5859,3.6016,3.6016,3.6016,3.6016,3.6016,3.6016,3.6016,3.6016,3.6016,3.6016,3.6016,3.6016,3.6016,3.6016,3.6016,3.6016,3.6016,3.6016,3.6016,3.6016,3.6016,3.6016,3.6016,3.6016,3.6016,3.6016,3.6016,3.6016,3.6016,3.6016,3.6016,3.6016,3.6016,3.6016,3.6016,3.6016,3.6016,3.6016,3.6016,3.6016,3.6016,3.6016,3.5743,3.5021,3.5111,3.4603,3.2861,3.2407,3.1795,3.0291,2.9716,3.0807,3.4151,3.505,3.6423,3.8574,3.8574,3.8574,3.8574,3.8574,3.8691,3.8965,3.9414,3.9844,4.0293,4.0723,4.1016,4.1172,4.1172,4.1074,4.0918,4.0918,4.0318,3.9334,3.9088,3.7723,3.5939,3.4759,3.3578,3.2316,3.8817,3.8935,3.9451,4.1268,4.1547,4.1964,4.33,4.3463,4.2995,4.1661,4.0313,3.8166,3.4891,3.5123,3.4997,3.3917,3.3789,3.3926,3.4238,3.4258,3.4394,3.4687,3.4707,3.4707,3.4707,3.4707,3.4766,3.4902,3.4902,3.4961,3.5098,3.543,3.5742,3.6016,3.6016,3.6016,3.6016,3.6016,3.6016,3.6016,3.6016,3.6016,3.6016,3.6016,3.6016,3.6016,3.6016,3.6016,3.6016,3.6016,3.6016,3.6016,3.6016,3.6016,3.6016,3.6016,3.6016,3.6016,3.6016,3.6016,3.6016,3.6016,3.6016,3.6016,3.6016,3.6016,3.6016,3.6016,3.6016,3.6016,3.6016,3.6016,3.6016,3.6016,3.6016,3.6074,3.6191,3.6211,3.625,3.6387,3.666,3.6316,3.5105,3.4903,3.3778,3.1038,3.0529,3.1574,3.4451,3.5812,3.7032,3.8574,3.8574,3.8574,3.8574,3.8574,3.8789,3.9199,3.9668,4.0117,4.0547,4.0976,4.1172,4.1172,4.1172,4.1172,4.1172,4.1172,4.1172,4.1152,4.084,3.9912,3.842,3.7486,3.627,3.484,4.0245,4.0592,4.1244,4.3323,4.379,4.3966,4.4518,4.4593,4.4011,4.2544,4.2305,4.093,3.7445,3.569,3.4687,3.4687,3.4687,3.4687,3.4687,3.4687,3.4687,3.4707,3.4707,3.4707,3.4707,3.4707,3.4922,3.5391,3.5391,3.5605,3.5996,3.6016,3.6016,3.6016,3.6016,3.6016,3.6016,3.6016,3.6016,3.6016,3.6016,3.6016,3.6016,3.6016,3.6016,3.6016,3.6016,3.6016,3.6016,3.6016,3.6016,3.6016,3.6016,3.6016,3.6016,3.6016,3.6016,3.6016,3.6016,3.6016,3.6016,3.6016,3.6016,3.6016,3.6016,3.6016,3.6016,3.6016,3.6016,3.6016,3.6016,3.6016,3.6016,3.6016,3.6016,3.6172,3.6601,3.666,3.6816,3.7226,3.7285,3.7461,3.7871,3.6104,3.5082,3.5461,3.3549,3.2505,3.2505,3.6442,3.8574,3.8574,3.8574,3.8574,3.8574,3.8574,3.8789,3.9199,3.9668,4.0117,4.0547,4.0976,4.1172,4.1172,4.1172,4.1172,4.1172,4.1172,4.1172,4.1172,4.1172,4.1172,4.0841,3.8706,3.7878,3.756,4.2618,4.2806,4.3094,4.4152,4.4367,4.4418,4.4593,4.4618,4.3757,4.1268,4.0943,3.9825,3.6729,3.6445,3.5949,3.4818,3.4707,3.4824,3.5156,3.5176,3.5293,3.5586,3.5605,3.5605,3.5605,3.5605,3.5664,3.582,3.582,3.5879,3.6016,3.6016,3.6016,3.6016,3.6016,3.6016,3.6016,3.6016,3.6016,3.6016,3.6016,3.6016,3.6016,3.6016,3.6016,3.6016,3.6016,3.6016,3.6016,3.6016,3.6016,3.6016,3.6016,3.6016,3.6016,3.6016,3.6016,3.6016,3.6016,3.6016,3.6016,3.6016,3.6016,3.6094,3.6406,3.668,3.6894,3.6894,3.6894,3.6894,3.6894,3.6894,3.6894,3.6894,3.6894,3.6934,3.709,3.709,3.7148,3.7285,3.7539,3.7773,3.791,3.7586,3.6901,3.5646,3.6275,3.5979,3.4601,3.5812,3.7179,3.8574,3.8574,3.8574,3.8574,3.8867,3.9219,3.9687,4.0117,4.0547,4.0976,4.1113,4.1172,4.1172,4.1172,4.1172,4.1172,4.1172,4.1172,4.1172,4.1172,4.1172,4.1172,4.0353,4.0178,4.0021,4.3991,4.4116,4.4292,4.4844,4.4945,4.502,4.5221,4.5246,4.4611,4.2815,4.2591,4.1582,3.9213,3.9346,3.8466,3.5441,3.5195,3.5312,3.5605,3.5625,3.5742,3.6016,3.6016,3.6016,3.6016,3.6016,3.6016,3.6016,3.6016,3.6016,3.6016,3.6016,3.6016,3.6016,3.6016,3.6016,3.6016,3.6016,3.6016,3.6016,3.6016,3.6016,3.6016,3.6016,3.6016,3.6016,3.6016,3.6016,3.6035,3.6211,3.6269,3.6289,3.6445,3.6504,3.6445,3.6113,3.6016,3.6055,3.623,3.6269,3.6309,3.6465,3.6504,3.6562,3.6836,3.7109,3.7305,3.7305,3.7305,3.7305,3.7305,3.7305,3.7305,3.7305,3.7305,3.7344,3.75,3.7539,3.7598,3.7754,3.8008,3.8164,3.8164,3.8418,3.8117,3.6737,3.7805,3.797,3.6719,3.6719,3.7198,3.8574,3.8574,3.8574,3.8574,3.8984,3.9434,3.9902,4.0488,4.0918,4.1172,4.1172,4.1172,4.1172,4.1172,4.1172,4.1172,4.1172,4.1172,4.1172,4.1172,4.1172,4.1172,4.1172,4.1172,4.1172,4.4568,4.4694,4.4869,4.5447,4.5547,4.5723,4.6225,4.6301,4.6301,4.618,4.618,4.5403,4.3731,4.3458,4.1542,3.6789,3.6403,3.6403,3.6403,3.6403,3.6403,3.6403,3.6403,3.6268,3.6152,3.6152,3.6152,3.6016,3.6016,3.6016,3.6016,3.6016,3.6016,3.6016,3.6016,3.6016,3.6016,3.6016,3.6016,3.6016,3.6055,3.6074,3.6074,3.6094,3.6113,3.6113,3.6113,3.6113,3.6172,3.6582,3.6719,3.6777,3.7168,3.7305,3.7148,3.6348,3.6113,3.6191,3.6601,3.6719,3.6816,3.7207,3.7324,3.7344,3.7344,3.7363,3.7383,3.7383,3.7383,3.7383,3.7383,3.7383,3.7383,3.7383,3.7383,3.7519,3.791,3.7969,3.8125,3.8535,3.8574,3.8574,3.8574,3.8574,3.8574,3.8574,3.8574,3.8574,3.8574,3.8574,3.8574,3.8574,3.8574,3.8594,3.8613,3.9043,3.9492,4.0,4.0781,4.1172,4.1172,4.1172,4.1172,4.1172,4.1172,4.1172,4.1172,4.1172,4.1172,4.1172,4.1172,4.1172,4.1172,4.1172,4.1172,4.1172,4.5171,4.5271,4.5447,4.6024,4.6125,4.615,4.6301,4.6301,4.5793,4.4497,4.4374,4.3731,4.1947,4.182,4.1309,4.0018,4.0018,4.0018,4.0018,4.0018,4.0018,4.0018,4.0018,3.9387,3.7955,3.7955,3.7307,3.6016,3.6016,3.6016,3.6016,3.6016,3.6016,3.6016,3.6016,3.6016,3.6016,3.6016,3.6016,3.6055,3.6387,3.6523,3.6543,3.6875,3.6992,3.6992,3.6992,3.6992,3.7012,3.7109,3.7148,3.7168,3.7266,3.7305,3.7266,3.7051,3.6992,3.7012,3.7129,3.7148,3.7168,3.7266,3.7539,3.7773,3.7773,3.8027,3.8281,3.8281,3.8281,3.8281,3.8281,3.8281,3.8281,3.8281,3.8281,3.8301,3.8418,3.8418,3.8457,3.8555,3.8574,3.8574,3.8574,3.8574,3.8574,3.8574,3.8574,3.8574,3.8574,3.8574,3.8574,3.8574,3.8574,3.873,3.9043,3.9512,4.0117,4.0879,4.1074,4.1172,4.1172,4.1172,4.1172,4.1172,4.1172,4.1172,4.1172,4.1172,4.1172,4.1172,4.1172,4.1172,4.1172,4.1172,4.1172,4.1172,4.5748,4.5874,4.5949,4.625,4.6301,4.6301,4.6301,4.6301,4.5939,4.5013,4.489,4.4497,4.3606,4.3482,4.3482,4.3482,4.2074,4.1181,4.1181,4.1181,4.1181,4.1181,4.1181,4.0795,3.9758,3.9758,3.9387,3.8353,3.7575,3.7193,3.7193,3.6403,3.6016,3.6016,3.6016,3.6133,3.6309,3.6309,3.6426,3.6621,3.6855,3.6953,3.6992,3.7207,3.7305,3.7305,3.7305,3.7305,3.7324,3.7519,3.7578,3.7617,3.7812,3.7891,3.7891,3.7891,3.7598,3.7344,3.7539,3.7578,3.7637,3.7832,3.8047,3.8223,3.8223,3.8398,3.8574,3.8574,3.8574,3.8574,3.8574,3.8574,3.8574,3.8574,3.8574,3.8574,3.8574,3.8574,3.8574,3.8574,3.8574,3.8574,3.8574,3.8574,3.8574,3.8574,3.8574,3.8574,3.8574,3.8574,3.8574,3.8574,3.8574,3.8769,3.9199,3.9844,4.0508,4.1172,4.1172,4.1172,4.1172,4.1172,4.1172,4.1172,4.1172,4.1172,4.1172,4.1172,4.1172,4.1172,4.1172,4.1172,4.1172,4.1172,4.1172,4.1172,4.6225,4.6301,4.6301,4.6301,4.6301,4.6301,4.6301,4.6301,4.6301,4.6301,4.6301,4.6301,4.6301,4.6301,4.6301,4.6301,4.3606,4.1947,4.1947,4.1947,4.1947,4.1947,4.1947,4.182,4.1565,4.1052,4.0795,4.0795,3.9125,3.8221,3.8221,3.6674,3.6055,3.6113,3.6113,3.6367,3.6758,3.6758,3.6973,3.7305,3.7363,3.7402,3.7402,3.7461,3.75,3.75,3.75,3.75,3.7539,3.7891,3.8027,3.8086,3.8457,3.8574,3.8574,3.8574,3.8066,3.7578,3.793,3.8027,3.8105,3.8476,3.8574,3.8574,3.8574,3.8574,3.8574,3.8574,3.8574,3.8574,3.8574,3.8574,3.8574,3.8574,3.8574,3.8574,3.8574,3.8574,3.8574,3.8574,3.8574,3.8574,3.8574,3.8574,3.8574,3.8574,3.8574,3.8574,3.8574,3.8574,3.8613,3.8672,3.8672,3.8906,3.9394,4.0215,4.0801,4.1172,4.1172,4.1172,4.1172,4.1172,4.1172,4.1172,4.1172,4.1172,4.1172,4.1172,4.1172,4.1172,4.1172,4.1172,4.1172,4.1172,4.1172,4.1172,4.6301,4.6301,4.6301,4.6301,4.6301,4.6301,4.6301,4.6301,4.6301,4.6301,4.6301,4.6301,4.6301,4.6301,4.6301,4.6301,4.5793,4.555,4.555,4.555,4.555,4.555,4.555,4.4767,4.3333,4.0537,3.8993,3.8993,3.7307,3.6403,3.6403,3.6152,3.6211,3.6562,3.6562,3.6797,3.7207,3.7207,3.7246,3.7324,3.7676,3.7832,3.7871,3.8242,3.8379,3.8379,3.8379,3.8379,3.8398,3.8457,3.8476,3.8476,3.8555,3.8574,3.8574,3.8574,3.8476,3.8398,3.8457,3.8476,3.8496,3.8555,3.8574,3.8574,3.8574,3.8574,3.8574,3.8574,3.8574,3.8574,3.8574,3.8574,3.8574,3.8574,3.8574,3.8574,3.8574,3.8574,3.8574,3.8574,3.8574,3.8574,3.8574,3.8574,3.8574,3.8574,3.8574,3.8574,3.8574,3.8574,3.875,3.9101,3.9101,3.9492,4.0312,4.082,4.1113,4.1172,4.1172,4.1172,4.1172,4.1172,4.1172,4.1172,4.1172,4.1172,4.1172,4.1172,4.1172,4.1172,4.1172,4.1172,4.1172,4.1172,4.1172,4.1172,4.6301,4.6301,4.6301,4.6301,4.6301,4.6301,4.6301,4.6301,4.6301,4.6301,4.6301,4.6301,4.6301,4.6301,4.6301,4.6301,4.6301,4.6301,4.6301,4.6301,4.6301,4.6301,4.6301,4.5914,4.5135,4.3606,4.2706,4.2706,4.1321,4.0672,4.0672,4.0008,3.9323,3.8478,3.8478,3.8187,3.7637,3.7637,3.7773,3.8008,3.8203,3.8281,3.8301,3.8496,3.8574,3.8574,3.8574,3.8574,3.8574,3.8574,3.8574,3.8574,3.8574,3.8574,3.8574,3.8574,3.8574,3.8574,3.8574,3.8574,3.8574,3.8574,3.8574,3.8574,3.8574,3.8574,3.8574,3.8574,3.8574,3.8574,3.8574,3.8574,3.8574,3.8574,3.8574,3.8574,3.8574,3.8574,3.8574,3.8574,3.8574,3.8574,3.8574,3.8574,3.8574,3.8574,3.8574,3.8574,3.8574,3.8789,3.9004,3.9199,3.9668,4.0117,4.0527,4.0957,4.1172,4.1172,4.1172,4.1172,4.1172,4.1172,4.1172,4.1172,4.1172,4.1172,4.1172,4.1172,4.1172,4.1172,4.1172,4.1172,4.1172,4.1172,4.1172,4.1172,4.6301,4.6301,4.6301,4.6301,4.6301,4.6301,4.6301,4.6301,4.6301,4.6301,4.6301,4.6301,4.6301,4.6301,4.6301,4.6301,4.6301,4.6301,4.6301,4.6301,4.6301,4.6301,4.6301,4.6376,4.6502,4.6113,4.5919,4.6043,4.4768,4.4172,4.4196,4.3225,4.2148,4.0951,4.0814,4.0264,3.9313,3.8906,3.8962,3.9116,3.872,3.8574,3.8574,3.8574,3.8574,3.8574,3.8574,3.8574,3.8574,3.8574,3.8574,3.8574,3.8574,3.8574,3.8574,3.8574,3.8574,3.8574,3.8574,3.8574,3.8574,3.8574,3.8574,3.8574,3.8574,3.8574,3.8574,3.8574,3.8574,3.8574,3.8574,3.8574,3.8574,3.8574,3.8574,3.8574,3.8574,3.8574,3.8574,3.8574,3.8574,3.8574,3.8574,3.8574,3.8574,3.8574,3.8574,3.8613,3.8711,3.9023,3.9297,3.9492,4.0176,4.0566,4.0664,4.1016,4.1172,4.1172,4.1172,4.1172,4.1172,4.1172,4.1172,4.1172,4.1172,4.1172,4.1172,4.1172,4.1172,4.1172,4.1172,4.1172,4.1172,4.1172,4.1172,4.1172,4.6301,4.6301,4.6301,4.6301,4.6301,4.6301,4.6301,4.6301,4.6301,4.6301,4.6301,4.6301,4.6301,4.6301,4.6301,4.6301,4.6301,4.6301,4.6301,4.6301,4.6301,4.6301,4.6301,4.6552,4.7054,4.5521,4.496,4.5414,4.3732,4.2944,4.2944,4.2857,4.2995,4.3197,4.3174,4.3306,4.3498,4.1848,4.1022,4.0921,3.9261,3.8574,3.8574,3.8574,3.8574,3.8574,3.8574,3.8574,3.8574,3.8574,3.8574,3.8574,3.8574,3.8574,3.8574,3.8574,3.8574,3.8574,3.8574,3.8574,3.8574,3.8574,3.8574,3.8574,3.8574,3.8574,3.8574,3.8574,3.8574,3.8574,3.8574,3.8574,3.8574,3.8574,3.8574,3.8574,3.8574,3.8574,3.8574,3.8574,3.8574,3.8574,3.8574,3.8574,3.8574,3.8574,3.8574,3.875,3.9141,3.918,3.957,4.041,4.0488,4.0723,4.1113,4.1152,4.1172,4.1172,4.1172,4.1172,4.1172,4.1172,4.1172,4.1172,4.1172,4.1172,4.1172,4.1172,4.1172,4.1172,4.1172,4.1172,4.1172,4.1172,4.1172,4.1172,4.6301,4.6301,4.6301,4.6301,4.6301,4.6301,4.6301,4.6301,4.6301,4.6301,4.6301,4.6301,4.6301,4.6301,4.6301,4.6301,4.6627,4.6828,4.6828,4.7129,4.7154,4.6828,4.7129,4.7405,4.7606,4.696,4.6784,4.6981,4.6664,4.6553,4.6577,4.6891,4.6478,4.5582,4.5559,4.5002,4.3978,4.2171,4.1326,4.1205,3.9261,3.8574,3.8574,3.8574,3.8574,3.8574,3.8574,3.8574,3.8574,3.8574,3.8574,3.8574,3.8574,3.8574,3.8574,3.8574,3.8574,3.8574,3.8574,3.8574,3.8574,3.8574,3.8574,3.8574,3.8574,3.8574,3.8574,3.8574,3.8574,3.8574,3.8574,3.8574,3.8574,3.8574,3.8574,3.8574,3.8574,3.8574,3.8574,3.8574,3.8574,3.8574,3.8574,3.8574,3.8691,3.8945,3.8965,3.916,3.9609,3.9883,4.0293,4.0898,4.0918,4.1016,4.1172,4.1172,4.1172,4.1172,4.1172,4.1172,4.1172,4.1172,4.1172,4.1172,4.1172,4.1172,4.1172,4.1172,4.1172,4.1172,4.1172,4.1172,4.1172,4.1172,4.1172,4.1172,4.6301,4.6301,4.6301,4.6301,4.6301,4.6301,4.6301,4.6301,4.6301,4.6301,4.6301,4.6376,4.6552,4.6577,4.6627,4.6803,4.7154,4.738,4.738,4.7883,4.7933,4.7405,4.7707,4.7983,4.8184,4.8184,4.8259,4.8435,4.8837,4.9038,4.9038,4.9414,4.8893,4.7641,4.7641,4.6955,4.5615,4.3266,4.2171,4.2031,3.955,3.8574,3.8574,3.8574,3.8574,3.8574,3.8574,3.8574,3.8574,3.8574,3.8574,3.8574,3.8574,3.8574,3.8574,3.8574,3.8574,3.8574,3.8574,3.8574,3.8574,3.8574,3.8574,3.8574,3.8574,3.8574,3.8574,3.8574,3.8574,3.8574,3.8574,3.8574,3.8574,3.8574,3.8574,3.8574,3.8574,3.8574,3.8574,3.8574,3.8574,3.8574,3.8574,3.8691,3.8887,3.918,3.9336,3.9609,4.0059,4.0488,4.0859,4.1172,4.1172,4.1172,4.1172,4.1172,4.1172,4.1172,4.1172,4.1172,4.1172,4.1172,4.1172,4.1172,4.1172,4.1172,4.1172,4.1172,4.1172,4.1172,4.1172,4.1172,4.1172,4.1172,4.1172,4.1172,4.6301,4.6301,4.6301,4.6301,4.6301,4.6301,4.6301,4.6301,4.6326,4.6326,4.6326,4.6527,4.7079,4.7154,4.7355,4.7857,4.7908,4.7908,4.7933,4.846,4.851,4.7933,4.7933,4.8184,4.8761,4.8786,4.9038,4.959,4.959,4.959,4.959,4.959,4.959,4.959,4.959,4.959,4.9332,4.5615,4.4116,4.3841,4.0105,3.8574,3.8574,3.8574,3.8574,3.8574,3.8574,3.8574,3.8574,3.8574,3.8574,3.8574,3.8574,3.8574,3.8574,3.8574,3.8574,3.8574,3.8574,3.8574,3.8574,3.8574,3.8574,3.8574,3.8574,3.8574,3.8574,3.8574,3.8574,3.8574,3.8574,3.8574,3.8574,3.8574,3.8574,3.8574,3.8574,3.8574,3.8574,3.8574,3.8574,3.8574,3.8574,3.8965,3.9199,3.9219,3.9648,4.0098,4.0508,4.0937,4.1172,4.1172,4.1172,4.1172,4.1172,4.1172,4.1172,4.1172,4.1172,4.1172,4.1172,4.1172,4.1172,4.1172,4.1172,4.1172,4.1172,4.1172,4.1172,4.1172,4.1172,4.1172,4.1172,4.1172,4.1172,4.1172,4.6301,4.6301,4.6301,4.6301,4.6301,4.6301,4.6301,4.6652,4.6878,4.6878,4.7205,4.7481,4.7657,4.7682,4.7732,4.7883,4.8284,4.8686,4.9063,4.9264,4.9264,4.9088,4.9088,4.9163,4.9339,4.9339,4.9439,4.959,4.959,4.959,4.959,4.959,4.959,4.959,4.959,4.959,4.9461,4.6955,4.5996,4.5727,4.201,4.0514,4.0371,3.9136,3.8574,3.8574,3.8574,3.8574,3.8574,3.8574,3.8574,3.8574,3.8574,3.8574,3.8574,3.8574,3.8574,3.8574,3.8574,3.8574,3.8574,3.8574,3.8574,3.8574,3.8574,3.8574,3.8574,3.8574,3.8574,3.8574,3.8574,3.8574,3.8574,3.8574,3.8574,3.8574,3.8574,3.8574,3.8574,3.8574,3.8828,3.9004,3.9004,3.9414,3.9805,4.0098,4.0547,4.084,4.0976,4.1094,4.1172,4.1172,4.1172,4.1172,4.1172,4.1172,4.1172,4.1172,4.1172,4.1172,4.1172,4.1172,4.1172,4.1172,4.1172,4.1172,4.1172,4.1172,4.1172,4.1172,4.1172,4.1172,4.1172,4.1172,4.1172,4.1172,4.6301,4.6301,4.6301,4.6301,4.6502,4.6652,4.6652,4.7104,4.7431,4.7431,4.7707,4.7983,4.8234,4.8259,4.8335,4.856,4.8887,4.9238,4.9565,4.959,4.959,4.959,4.959,4.959,4.959,4.959,4.959,4.959,4.959,4.959,4.959,4.959,4.959,4.959,4.959,4.959,4.9461,4.7641,4.6798,4.6532,4.3542,4.2452,4.2171,4.0371,3.9674,3.953,3.8846,3.8574,3.8574,3.8574,3.8574,3.8574,3.8574,3.8574,3.8574,3.8574,3.8574,3.8574,3.8574,3.8574,3.8574,3.8574,3.8574,3.8574,3.8574,3.8574,3.8574,3.8574,3.8574,3.8574,3.8574,3.8574,3.8574,3.8574,3.8574,3.8574,3.8574,3.8711,3.8828,3.8828,3.9219,3.9473,3.9473,3.9883,4.0312,4.0742,4.1035,4.1172,4.1172,4.1172,4.1172,4.1172,4.1172,4.1172,4.1172,4.1172,4.1172,4.1172,4.1172,4.1172,4.1172,4.1172,4.1172,4.1172,4.1172,4.1172,4.1172,4.1172,4.1172,4.1172,4.1172,4.1172,4.1172,4.1172,4.1172,4.1172,4.6301,4.6351,4.6376,4.6376,4.6853,4.7205,4.7205,4.7657,4.7983,4.7983,4.8033,4.8259,4.8786,4.8837,4.9063,4.9565,4.959,4.959,4.959,4.959,4.959,4.959,4.959,4.959,4.959,4.959,4.959,4.959,4.959,4.959,4.959,4.959,4.959,4.959,4.959,4.959,4.9461,4.7773,4.7088,4.6955,4.505,4.4368,4.4094,4.229,4.1608,4.1326,3.955,3.8846,3.8865,3.872,3.8574,3.8574,3.8574,3.8574,3.8574,3.8574,3.8574,3.8574,3.8574,3.8574,3.8574,3.8574,3.8574,3.8574,3.8574,3.8574,3.8574,3.8574,3.8574,3.8574,3.8574,3.8574,3.8594,3.8633,3.8633,3.8652,3.8691,3.9023,3.9258,3.9258,3.9668,3.9961,3.9961,4.0332,4.0742,4.1152,4.1172,4.1172,4.1172,4.1172,4.1172,4.1172,4.1172,4.1172,4.1172,4.1172,4.1172,4.1172,4.1172,4.1172,4.1172,4.1172,4.1172,4.1172,4.1172,4.1172,4.1172,4.1172,4.1172,4.1172,4.1172,4.1172,4.1172,4.1172,4.1172,4.1172,4.6301,4.6652,4.6954,4.6954,4.738,4.7732,4.7732,4.8209,4.8586,4.8586,4.8962,4.9264,4.9414,4.9414,4.9464,4.959,4.959,4.959,4.959,4.959,4.959,4.959,4.959,4.959,4.959,4.959,4.959,4.959,4.959,4.959,4.959,4.959,4.959,4.959,4.959,4.959,4.959,4.9177,4.9023,4.8893,4.6955,4.6264,4.5996,4.4231,4.3542,4.3288,4.1326,4.0636,4.0514,3.9136,3.8574,3.8574,3.8574,3.8574,3.8574,3.8574,3.8574,3.8574,3.8574,3.8574,3.8574,3.8574,3.8574,3.8574,3.8574,3.8574,3.8574,3.8574,3.8574,3.8574,3.8574,3.8574,3.8691,3.9004,3.9062,3.9199,3.9551,3.9687,3.9746,3.9746,4.0117,4.0391,4.0391,4.0781,4.1074,4.1172,4.1172,4.1172,4.1172,4.1172,4.1172,4.1172,4.1172,4.1172,4.1172,4.1172,4.1172,4.1172,4.1172,4.1172,4.1172,4.1172,4.1172,4.1172,4.1172,4.1172,4.1172,4.1172,4.1172,4.1172,4.1172,4.1172,4.1172,4.1172,4.1172,4.1172,4.6702,4.7129,4.7506,4.7506,4.7958,4.8309,4.8309,4.8812,4.9163,4.9163,4.9414,4.959,4.959,4.959,4.959,4.959,4.959,4.959,4.959,4.959,4.959,4.959,4.959,4.959,4.959,4.959,4.959,4.959,4.959,4.959,4.959,4.959,4.959,4.959,4.959,4.959,4.959,4.959,4.959,4.9461,4.8477,4.8191,4.7929,4.613,4.5321,4.5186,4.3266,4.2031,4.1205,4.0228,3.9261,3.8574,3.8574,3.8574,3.8574,3.8574,3.8574,3.8574,3.8574,3.873,3.8867,3.8867,3.9043,3.9101,3.8672,3.8574,3.8633,3.8828,3.8867,3.8945,3.916,3.9199,3.9277,3.9492,3.9531,3.9609,3.9863,4.0078,4.0195,4.0195,4.0566,4.084,4.084,4.1035,4.1172,4.1172,4.1172,4.1172,4.1172,4.1172,4.1172,4.1172,4.1172,4.1172,4.1172,4.1172,4.1172,4.1172,4.1172,4.1172,4.1172,4.1172,4.1172,4.1172,4.1172,4.1172,4.1172,4.1172,4.1172,4.1172,4.1172,4.1172,4.1172,4.1172,4.1172,4.1172,4.7255,4.7682,4.8058,4.8058,4.8535,4.8912,4.8912,4.9289,4.959,4.959,4.959,4.959,4.959,4.959,4.959,4.959,4.959,4.959,4.959,4.959,4.959,4.959,4.959,4.959,4.959,4.959,4.959,4.959,4.959,4.959,4.959,4.959,4.959,4.959,4.959,4.959,4.959,4.959,4.959,4.959,4.959,4.959,4.9461,4.7904,4.7221,4.7088,4.5186,4.3404,4.1749,4.1467,4.0371,3.9011,3.8798,3.8691,3.8691,3.8769,3.8809,3.8809,3.8809,3.9062,3.9316,3.9316,3.9609,3.9707,3.8965,3.8809,3.8906,3.9258,3.9316,3.9434,3.9824,3.9902,3.9922,4.0,4.0,4.0019,4.0098,4.041,4.0644,4.0644,4.0957,4.1172,4.1172,4.1172,4.1172,4.1172,4.1172,4.1172,4.1172,4.1172,4.1172,4.1172,4.1172,4.1172,4.1172,4.1172,4.1172,4.1172,4.1172,4.1172,4.1172,4.1172,4.1172,4.1172,4.1172,4.1172,4.1172,4.1172,4.1172,4.1172,4.1172,4.1172,4.1172,4.1172,4.1172,4.1172,4.7807,4.8259,4.8661,4.8661,4.9113,4.949,4.949,4.954,4.959,4.959,4.959,4.959,4.959,4.959,4.959,4.959,4.959,4.959,4.959,4.959,4.959,4.959,4.959,4.959,4.959,4.959,4.959,4.959,4.959,4.959,4.959,4.959,4.959,4.959,4.959,4.959,4.959,4.959,4.959,4.959,4.959,4.959,4.959,4.9307,4.9177,4.9047,4.7088,4.5321,4.3426,4.189,4.1205,4.0719,3.9572,3.9121,3.9199,3.959,3.9726,3.9726,3.9726,3.9766,3.9805,3.9805,3.9844,3.9863,3.9746,3.9726,3.9726,3.9785,3.9805,3.9824,3.9883,3.9902,4.0019,4.0371,4.043,4.0566,4.0957,4.1055,4.1094,4.1094,4.1133,4.1172,4.1172,4.1172,4.1172,4.1172,4.1172,4.1172,4.1172,4.1172,4.1172,4.1172,4.1172,4.1172,4.1172,4.1172,4.1172,4.1172,4.1172,4.1172,4.1172,4.1172,4.1172,4.1172,4.1172,4.1172,4.1172,4.1172,4.1172,4.1172,4.1172,4.1172,4.1172,4.1172,4.1172,4.1172,4.8385,4.8837,4.9238,4.9238,4.9439,4.959,4.959,4.959,4.959,4.959,4.959,4.959,4.959,4.959,4.959,4.959,4.959,4.959,4.959,4.959,4.959,4.959,4.959,4.959,4.959,4.959,4.959,4.959,4.959,4.959,4.959,4.959,4.959,4.959,4.959,4.959,4.959,4.959,4.959,4.959,4.959,4.959,4.959,4.959,4.9791,4.9962,4.9421,4.8132,4.6449,4.5597,4.462,4.3534,4.1772,4.1269,4.1036,4.0125,3.9902,3.9902,3.9902,4.0059,4.0254,4.0254,4.043,4.0605,4.0605,4.0605,4.0547,4.0293,4.0254,4.0312,4.0566,4.0605,4.0664,4.0859,4.0879,4.0957,4.1152,4.1172,4.1172,4.1172,4.1172,4.1172,4.1172,4.1172,4.1172,4.1172,4.1172,4.1172,4.1172,4.1172,4.1172,4.1172,4.1172,4.1172,4.1172,4.1172,4.1172,4.1172,4.1172,4.1172,4.1172,4.1172,4.1172,4.1172,4.1172,4.1172,4.1172,4.1172,4.1172,4.1172,4.1172,4.1172,4.1172,4.1172,4.1172,4.1172]}]]